     2.11           OBSERVATION DATA    G (GPS)             RINEX VERSION / TYPE
teqc 2010Oct21 OPUS Account 20111030 16:26:36UTC            PGM / RUN BY / DATE
Q 1522                                                      MARKER NAME
1170                                                        MARKER NUMBER
DBPROUTY NGS                                                OBSERVER / AGENCY
0220316069 TRIMBLE 5700 1.30                                REC # / TYPE / VERS
12469273 TRM41249.00 NONE                                   ANT # / TYPE
  -738054.0640 -5496298.3381  3140267.0286                  APPROX POSITION XYZ
        2.0000        0.0000        0.0000                  ANTENNA: DELTA H/E/N
     1     1                                                WAVELENGTH FACT L1/2
     5    L1    L2    C1    P1    P2                        # / TYPES OF OBSERV
    15                                                      LEAP SECONDS
  2011     9    27     0     0   30.0000000     GPS         TIME OF FIRST OBS
                                                            END OF HEADER
 11  9 27  0  0 30.0000000  0  9G02G12G29G30G15G10G25G05G26
 -85288826.18457 -66434517.14655  22014508.4534                   22014509.2974
 -65985432.91858 -51393188.16055  22194989.0164                   22194991.3554
 -32753314.75857 -25500230.85556  22071563.7114                   22071565.3914
 -25243566.31257 -19647418.16554  22820209.7274                   22820213.2504
  -7178071.62157  -5570432.71553  24082454.3524                   24082461.5514
 -64350890.54356 -50120737.68253  24513098.8444                   24513104.9104
 -49723661.42658 -38720991.81156  21787976.2194                   21787979.9924
 -66083524.03958 -51469009.89356  20672930.1484                   20672931.1094
 -19743189.46957 -15366365.84754  23166864.5004                   23166869.2544
 11  9 27  0  1  0.0000000  0  9G02G12G29G30G15G10G25G05G26
 -85350698.79747 -66482729.54245  22002734.4224                   22002735.2234
 -66011121.35948 -51413205.14146  22190101.1254                   22190102.7234
 -32935766.03947 -25642400.59246  22036844.6884                   22036846.9734
 -25365201.19947 -19742198.47644  22797063.4774                   22797066.5314
  -7380711.21947  -5728333.28644  24043893.3444                   24043900.2624
 -64347294.79346 -50117935.61643  24513782.1484                   24513789.2854
 -49800273.68748 -38780689.64046  21773397.1334                   21773401.5434
 -66148067.93048 -51519303.80446  20660647.7814                   20660648.5274
 -19939566.76247 -15519386.86444  23129495.3134                   23129500.1994
 11  9 27  0  1 30.0000000  0  9G02G12G29G30G15G10G25G05G26
 -85412426.36747 -66530828.94045  21990988.1254                   21990988.7664
 -66036451.93748 -51432943.25645  22185280.4304                   22185282.3754
 -33118000.30147 -25784401.21946  22002166.5634                   22002168.3714
 -25486203.46146 -19836485.83044  22774037.1804                   22774040.5554
  -7583328.59047  -5886216.54644  24005336.3914                   24005343.4844
 -64343589.03546 -50115047.90642  24514487.4304                   24514493.7034
 -49876306.65248 -38839936.07246  21758928.4384                   21758932.5904
 -66212105.03548 -51569202.82646  20648462.0004                   20648462.6334
 -20135691.19547 -15672210.83044  23092173.8984                   23092177.9924
 11  9 27  0  2  0.0000000  0  9G02G12G29G30G15G10G25G05G26
 -85474009.02047 -66578815.41545  21979269.2034                   21979269.4574
 -66061428.11348 -51452405.22245  22180527.8134                   22180530.3484
 -33300015.75847 -25926231.34446  21967530.1954                   21967531.9184
 -25606573.62547 -19930280.66245  22751130.9144                   22751135.0984
  -7785921.57847  -6044080.81444  23966784.2274                   23966790.3674
 -64339776.25845 -50112076.79243  24515212.7504                   24515219.1524
 -49951762.64548 -38898732.91446  21744569.6254                   21744574.3754
 -66275638.11748 -51618709.08646  20636372.1884                   20636372.7504
 -20331559.69947 -15824835.39844  23054900.4454                   23054905.4064
 11  9 27  0  2 30.0000000  0  9G02G12G29G30G15G10G25G05G26
 -85535446.71546 -66626688.92545  21967578.1804                   21967578.8914
 -66086052.45748 -51471593.01345  22175841.9224                   22175843.8874
 -33481810.37947 -26067889.37146  21932935.5704                   21932937.2034
 -25726311.79347 -20023583.02545  22728345.7194                   22728348.9024
  -7988487.13747  -6201923.71044  23928236.5864                   23928242.9064
 -64335858.53946 -50109023.83642  24515958.4844                   24515964.0004
 -50026643.20748 -38957081.37046  21730320.3524                   21730324.6524
 -66338669.13347 -51667824.14546  20624377.6484                   20624378.0944
 -20527168.56646 -15977257.61444  23017676.7034                   23017682.0234
 11  9 27  0  3  0.0000000  0  9G02G12G29G30G15G10G25G05G26
 -85596737.36347 -66674447.85845  21955914.7974                   21955915.6684
 -66110325.74648 -51490507.28745  22171223.0784                   22171225.5354
 -33663380.06647 -26209372.14846  21898383.7664                   21898385.2544
 -25845415.94947 -20116391.36145  22705680.9384                   22705683.7584
  -8191020.66847  -6359741.62544  23889696.0554                   23889702.0234
 -64331836.68046 -50105889.72742  24516724.2424                   24516728.9494
 -50100948.15648 -39014981.31046  21716180.4694                   21716184.7774
 -66401197.80947 -51716547.75446  20612478.9844                   20612479.2384
 -20722512.09446 -16129473.09344  22980504.3594                   22980509.0394
 11  9 27  0  3 30.0000000  0  9G02G12G29G30G15G10G25G05G26
 -85657879.28147 -66722090.90545  21944280.0004                   21944280.2974
 -66134249.95347 -51509149.53045  22166670.6254                   22166672.5554
 -33844720.71947 -26350676.42646  21863875.8284                   21863877.6414
 -25963884.52047 -20208704.41445  22683137.1414                   22683140.0274
  -8393517.50846  -6517530.94544  23851161.2504                   23851168.1374
 -64327711.08646 -50102674.75042  24517508.8284                   24517513.3914
 -50174677.48047 -39072432.70746  21702150.2504                   21702154.3094
 -66463225.05948 -51764880.63746  20600675.1094                   20600675.7934
 -20917584.89146 -16281477.62044  22943383.0474                   22943388.0784
 11  9 27  0  4  0.0000000  0  9G02G12G29G30G15G10G25G05G26
 -85718874.23047 -66769619.40745  21932673.1724                   21932673.7274
 -66157829.91447 -51527523.54345  22162183.0784                   22162185.5704
 -34025832.07848 -26491802.03646  21829410.8524                   21829412.7934
 -26081719.73047 -20300523.98445  22660713.6724                   22660716.2274
  -8595976.73846  -6675290.95644  23812634.3204                   23812640.7464
 -64323486.10946 -50099382.37542  24518312.9614                   24518317.4804
 -50247834.98048 -39129438.52846  21688229.1254                   21688233.1414
 -66524754.43748 -51812825.57046  20588966.6724                   20588967.1844
 -21112385.41847 -16433269.92544  22906313.4384                   22906318.4304
 11  9 27  0  4 30.0000000  0  9G02G12G29G30G15G10G25G05G26
 -85779721.26647 -66817032.65945  21921094.3444                   21921094.8094
 -66181067.68048 -51545630.88745  22157761.2114                   22157763.3674
 -34206711.30948 -26632746.74446  21794990.6094                   21794992.4774
 -26198920.86347 -20391849.44745  22638411.2194                   22638413.9384
  -8798394.71946  -6833018.85844  23774115.2034                   23774121.6374
 -64319163.12146 -50096013.71943  24519135.3984                   24519140.9384
 -50320421.54748 -39185999.47046  21674416.1884                   21674420.0704
 -66585787.61748 -51860383.86446  20577352.7504                   20577353.1214
 -21306908.87147 -16584846.35844  22869296.8984                   22869301.8754
 11  9 27  0  5  0.0000000  0  9G02G12G29G30G15G25G05G26G21
 -85840424.03548 -66864333.48445  21909542.7584                   21909543.0274
 -66203969.52347 -51563476.50845  22153402.7664                   22153405.2584
 -34387359.41848 -26773511.36946  21760614.5634                   21760616.0234
 -26315491.38747 -20482683.54145  22616228.4614                   22616230.3094
  -9000771.91046  -6990714.96144  23735603.2734                   23735609.6174
 -50392442.36348 -39242119.57346  21660711.1564                   21660715.2154
 -66646330.22748 -51907559.89146  20565831.6254                   20565832.1954
 -21501155.31646 -16736206.91944  22832333.6644                   22832337.0474
   -240674.81615                  25098368.453
 11  9 27  0  5 30.0000000  0  9G02G12G29G30G15G25G05G26G21
 -85900987.47748 -66911525.76345  21898017.9454                   21898018.0084
 -66226543.91847 -51581066.94945  22149107.3054                   22149109.6484
 -34567779.71148 -26914098.48146  21726281.4534                   21726282.8554
 -26431437.26647 -20573030.91544  22594164.7504                   22594166.0084
  -9203111.09446  -7148381.39144  23697099.3834                   23697104.6374
 -50463904.79348 -39297804.56846  21647112.1564                   21647116.1804
 -66706389.82048 -51954359.54346  20554402.6724                   20554403.1294
 -21695126.19947 -16887352.76944  22795420.5944                   22795425.8094
   -403917.582 5                  25067303.711
 11  9 27  0  6  0.0000000  0  9G02G12G29G30G15G25G05G26G21
 -85961408.64547 -66958607.16145  21886520.3834                   21886520.3284
 -66248790.73848 -51598402.15245  22144874.3284                   22144876.3674
 -34747967.07848 -27054504.08346  21691992.8364                   21691994.3834
 -26546755.45747 -20662889.17844  22572220.4774                   22572221.9454
  -9405406.08646  -7306013.43544  23658603.2974                   23658609.3484
 -50534807.59848 -39353053.49646  21633619.9614                   21633624.2424
 -66765965.32047 -52000781.97346  20543065.9064                   20543066.2114
 -21888814.84047 -17038278.71044  22758563.1414                   22758567.8244
   -567106.37546   -427522.59452  25036249.4384                   25036253.6484
 11  9 27  0  6 30.0000000  0  9G02G12G29G30G15G25G05G26G21
 -86021681.13347 -67005572.71545  21875050.9534                   21875050.9614
 -66270706.81648 -51615479.61645  22140703.7974                   22140705.4344
 -34927912.93447 -27194721.49946  21657749.9694                   21657751.2584
 -26661440.10547 -20752253.73244  22550397.0634                   22550398.3284
  -9607647.96947  -7463604.09844  23620117.4064                   23620124.1294
 -50605146.36348 -39407862.92046  21620234.6564                   21620238.6334
 -66825052.53547 -52046823.91546  20531821.5004                   20531822.1374
 -22082211.37147 -17188977.00544  22721760.7814                   22721764.9494
   -730235.14545   -554635.60942  25005206.8444                   25005211.7934
 11  9 27  0  7  0.0000000  0  9G02G12G29G30G15G25G05G26G21
 -84506381.31647 -65824819.59845  22163403.3054                   22163403.4964
 -64716873.28948 -50404700.25545  22436387.9224                   22436389.9064
 -33532187.55547 -26107143.14546  21923347.3914                   21923348.7664
 -25200066.20747 -19613520.78144  22828486.5554                   22828489.5394
  -8234405.55946  -6393544.67944  23881437.3134                   23881442.5084
 -49099499.23048 -38234631.39646  21906749.6724                   21906754.0784
 -65308230.38348 -50864884.53046  20820463.4454                   20820463.9454
 -20699884.30547 -16111838.72844  22984809.0704                   22984812.5084
    682122.22746    545902.89542  25273970.6024                   25273974.0314
 11  9 27  0  7 30.0000000  0  9G02G12G29G30G15G25G05G26G21
 -84566353.43047 -65871551.11645  22151990.7814                   22151991.0744
 -64738134.75047 -50421267.63345  22432342.2344                   22432344.0044
 -33711640.77747 -26246976.68446  21889198.7034                   21889200.5664
 -25313482.01647 -19701896.66444  22806904.5554                   22806906.3324
  -8436529.91846  -6551043.76644  23842973.6724                   23842979.2734
 -49168713.00448 -38288564.20946  21893579.0084                   21893582.8634
 -65366345.40648 -50910168.91446  20809404.4224                   20809404.6954
 -20892683.14847 -16262071.30844  22948120.2114                   22948124.1174
    519113.85945    418883.69142  25242949.3204                   25242954.6054
 11  9 27  0  8  0.0000000  0  9G02G12G29G30G15G25G05G26G21
 -84626176.42247 -65918166.42545  22140606.3834                   22140606.9344
 -64759074.47747 -50437584.29945  22428357.5164                   22428359.8984
 -33890845.67247 -26386616.72646  21855097.0634                   21855098.6454
 -25426265.04747 -19789779.46144  22785442.4774                   22785445.7734
  -8638592.23847  -6708494.51444  23804522.5004                   23804527.4384
 -49237368.33248 -38342061.87246  21880514.4694                   21880519.0744
 -65423978.64848 -50955077.88046  20798437.0554                   20798437.5984
 -21085178.48047 -16412067.38044  22911489.0864                   22911492.9654
    356164.09046    291910.10543  25211940.5394                   25211946.1254
 11  9 27  0  8 30.0000000  0  9G02G12G29G30G15G25G05G26G21
 -84685852.42647 -65964667.19445  22129250.3754                   22129250.6994
 -64779697.58247 -50453654.26445  22424432.7894                   22424435.2344
 -34069802.68447 -26526063.61046  21821042.7194                   21821044.5944
 -25538418.05147 -19877171.31944  22764100.3054                   22764102.8554
  -8840591.82447  -6865896.40144  23766082.5784                   23766087.6254
 -49305469.45748 -38395127.67646  21867554.8204                   21867559.0124
 -65481134.79348 -50999615.08946  20787560.6884                   20787561.3284
 -21277369.29747 -16561826.17444  22874916.1724                   22874920.3134
    193269.74246    164979.69643  25180942.8524                   25180948.3014
 11  9 27  0  9  0.0000000  0  9G02G12G29G30G15G25G05G26G21
 -84745380.18447 -66011052.45345  22117923.0004                   22117923.4454
 -64800006.37547 -50469479.31045  22420568.7664                   22420570.4884
 -34248508.20747 -26665314.54146  21787036.0864                   21787037.5234
 -25649940.61747 -19964071.96745  22742878.0784                   22742881.1374
  -9042524.98447  -7023246.51144  23727655.9534                   23727661.0164
 -49373017.53548 -38447762.53746  21854700.7114                   21854705.3954
 -65537814.98848 -51043781.44046  20776774.6564                   20776775.0394
 -21469250.64547 -16711343.84044  22838402.5784                   22838405.7274
     30431.24246     38092.82043  25149957.0474                   25149960.6214
 11  9 27  0  9 30.0000000  0  9G02G12G29G30G15G25G05G26G21
 -84804760.41047 -66057322.75345  22106623.3594                   22106623.2894
 -64820004.89847 -50485062.57845  22416762.8204                   22416765.1374
 -34426960.91047 -26804368.45646  21753076.9304                   21753079.0004
 -25760834.01247 -20050482.30045  22721775.4924                   22721778.6684
  -9244389.80947  -7180543.39944  23689242.1254                   23689247.1374
 -49440015.32448 -38499968.61846  21841951.6094                   21841955.7154
 -65594022.67648 -51087579.59646  20766078.9064                   20766079.1994
 -21660819.99647 -16860618.37544  22801947.4224                   22801951.5864
   -132353.03546    -88751.80143  25118978.4384                   25118983.5164
 11  9 27  0 10  0.0000000  0  9G02G12G29G30G15G25G05G26G21
 -84863994.06247 -66103478.83945  22095351.7274                   22095351.6994
 -64839696.92247 -50500407.01545  22413015.4304                   22413017.9384
 -34605159.40248 -26943224.30546  21719167.6414                   21719169.1254
 -25871099.59047 -20136403.43344  22700792.6724                   22700795.3554
  -9446184.19146  -7337785.34344  23650840.5084                   23650846.9264
 -49506465.81248 -38551748.20546  21829306.7664                   21829310.7194
 -65649760.60548 -51131011.71546  20755472.0394                   20755472.6334
 -21852074.41447 -17009647.54144  22765552.4144                   22765556.5944
   -295084.17246   -215555.02543  25088012.5234                   25088016.4384
 11  9 27  0 10 30.0000000  0  9G02G12G29G30G15G25G05G26G21
 -84923080.73047 -66149520.37345  22084106.8834                   22084107.8984
 -64859085.39847 -50515514.93845  22409326.1094                   22409328.6954
 -34783101.11748 -27081880.04546  21685306.3054                   21685307.0984
 -25980737.73047 -20221835.68044  22679929.3054                   22679932.2154
  -9647905.05547  -7494970.04944  23612454.6954                   23612459.4344
 -49572370.91048 -38603102.82546  21816764.7664                   21816769.6254
 -65705031.26248 -51174079.72546  20744954.5944                   20744954.9654
 -22043010.19547 -17158428.41044  22729218.7584                   22729221.9734
   -457762.51246   -342317.15943  25057054.7664                   25057059.5784
 11  9 27  0 11  0.0000000  0  9G02G12G29G30G15G25G05G26G21
 -84982019.40247 -66195446.57645  22072891.5314                   22072892.1054
 -64878172.22347 -50530387.81345  22405693.9064                   22405696.2584
 -34960783.27048 -27220333.53146  21651494.4454                   21651495.5394
 -26089747.77347 -20306778.51844  22659185.0314                   22659188.0394
  -9849548.37547  -7652094.30144  23574082.7814                   23574088.2424
 -49637731.49248 -38654033.14446  21804327.6644                   21804332.2974
 -65759835.32848 -51216784.15646  20734525.5784                   20734525.7734
 -22233622.52047 -17306957.25344  22692946.6564                   22692949.8634
   -620387.70346   -469037.86943  25026108.4144                   25026113.1884
 11  9 27  0 11 30.0000000  0  9G02G12G29G30G15G25G05G26G21
 -85040809.84047 -66241257.28645  22061704.5004                   22061704.1414
 -64896960.60547 -50545028.12645  22402118.8204                   22402121.3134
 -35138203.15648 -27358582.67346  21617732.2424                   21617733.6564
 -26198130.37547 -20391232.42244  22638560.4774                   22638563.2894
 -10051111.14147  -7809155.79144  23535727.0234                   23535732.0514
 -49702549.57448 -38704540.71746  21791993.4144                   21791997.6414
 -65814175.25048 -51259126.92746  20724185.2504                   20724185.5204
 -22423907.68447 -17455231.15044  22656736.3134                   22656740.4304
   -782959.99246   -595717.32443  24995172.7194                   24995176.1764
 11  9 27  0 12  0.0000000  0  9G02G12G29G30G15G25G05G26G21
 -85099452.79747 -66286953.06045  22050545.3364                   22050545.1804
 -64915454.40247 -50559438.90345  22398599.6954                   22398601.5204
 -35315359.41448 -27496626.37946  21584020.3524                   21584022.0784
 -26305886.91847 -20475198.49544  22618055.0554                   22618058.7504
 -10252591.21547  -7966152.84244  23497385.9384                   23497391.7234
 -49766828.34848 -38754628.05146  21779760.9224                   21779765.8364
 -65868054.07448 -51301110.39646  20713932.3284                   20713932.4774
 -22613862.85247 -17603247.92444  22620588.5164                   22620591.7154
   -945481.21946   -722356.93143  24964244.7584                   24964249.2734
 11  9 27  0 12 30.0000000  0  9G02G12G29G30G15G25G05G26G21
 -85157947.00447 -66332532.92345  22039413.9064                   22039413.8484
 -64933655.79347 -50573621.82545  22395135.8204                   22395138.3364
 -35492249.52047 -27634462.69546  21550358.7974                   21550360.9534
 -26413017.58247 -20558676.89744  22597669.2504                   22597672.0664
 -10453985.41847  -8123082.98644  23459061.8054                   23459066.9264
 -49830569.27748 -38804296.29046  21767631.7344                   21767635.9844
 -65921473.79348 -51342736.13546  20703767.0474                   20703767.6564
 -22803484.04747 -17751004.46244  22584504.6334                   22584507.3164
  -1107950.94546   -848956.66943  24933327.9534                   24933332.1684
 11  9 27  0 13  0.0000000  0  9G02G12G29G30G15G25G05G26G21
 -85216294.03947 -66377998.10145  22028310.7194                   22028310.5434
 -64951569.63347 -50587580.68245  22391726.7114                   22391728.8244
 -35668872.10248 -27772090.54946  21516748.9304                   21516750.0594
 -26519524.10947 -20641668.94344  22577401.6484                   22577403.3284
 -10655291.82446  -8279944.72144  23420753.8594                   23420758.5514
 -49893775.66848 -38853547.99546  21755604.2114                   21755608.5314
 -65974437.76648 -51384006.73546  20693688.1094                   20693688.5354
 -22992768.34447 -17898498.48744  22548485.1884                   22548489.1024
  -1270371.16046   -975517.61743  24902420.6174                   24902424.9494
 11  9 27  0 13 30.0000000  0  9G02G12G29G30G15G25G05G26G21
 -85274493.58247 -66423348.34045  22017235.7664                   22017235.5864
 -64969198.85547 -50601317.76645  22388372.4144                   22388374.6994
 -35845224.90248 -27909508.17646  21483189.8444                   21483191.2114
 -26625407.22347 -20724175.21244  22557252.7814                   22557254.1094
 -10856507.44546  -8436735.71444  23382463.5004                   23382468.3404
 -49956449.78548 -38902384.96246  21743678.0864                   21743681.3554
 -66026948.42648 -51424924.10746  20683695.3284                   20683695.7624
 -23181712.39147 -18045727.38245  22512529.8054                   22512533.3244
  -1432742.28946  -1102040.35843  24871521.4694                   24871525.8054
 11  9 27  0 14  0.0000000  0  9G02G12G29G30G15G25G05G26G21
 -85332546.12947 -66468584.04945  22006188.7734                   22006188.9264
 -64986547.04347 -50614835.86945  22385071.3134                   22385073.5084
 -36021306.38748 -28046714.41446  21449683.0084                   21449683.6684
 -26730668.33647 -20806196.81244  22537222.0234                   22537224.0044
 -11057629.98447  -8593454.16644  23344191.0864                   23344196.2854
 -50018594.43748 -38950809.33446  21731851.6094                   21731855.8134
 -66079008.87548 -51465490.66946  20673788.8364                   20673789.3594
 -23370313.21947 -18192688.83844  22476640.7504                   22476643.3364
  -1595065.64146  -1228526.04943  24840632.7814                   24840635.9384
 11  9 27  0 14 30.0000000  0  9G02G12G29G30G15G25G05G26G21
 -83815029.19947 -65286103.29845  22294962.6724                   22294962.6294
 -63428196.50447 -49400536.77745  22681615.6254                   22681617.5554
 -34621687.87948 -26956102.47746  21716021.6024                   21716021.4264
 -25259884.05947 -19660131.08745  22817102.2584                   22817105.0004
  -9683229.60546  -7522492.45444  23605729.8674                   23605734.4654
 -48504789.29348 -37771220.89046  22019919.4774                   22019923.7504
 -64555198.48848 -50278105.93246  20963760.2894                   20963760.9104
 -21983140.20347 -17111774.56244  22740610.4064                   22740613.9184
   -181915.75446   -127370.06043  25109545.7034                   25109550.4144
 11  9 27  0 15  0.0000000  0  9G02G12G29G30G15G25G05G26G21
 -83872788.75047 -65331110.71145  22283971.2344                   22283971.5784
 -63444993.37947 -49413625.29045  22678419.0864                   22678421.8014
 -34797220.98448 -27092881.42046  21682618.4614                   21682618.8834
 -25363904.48447 -19741185.92245  22797308.4454                   22797310.3324
  -9884158.66447  -7679060.19744  23567494.5634                   23567498.6684
 -48565882.97348 -37818826.32946  22008293.6254                   22008297.7894
 -64606366.17248 -50317976.81746  20954023.8444                   20954023.7154
 -22171044.85547 -17258193.56444  22704853.4144                   22704856.7974
   -344146.18046   -253783.27443  25078674.3674                   25078679.1294
 11  9 27  0 15 30.0000000  0  9G02G12G29G30G15G25G05G26G21
 -83930399.50447 -65376002.15945  22273008.1954                   22273008.1134
 -63461517.17247 -49426501.00345  22675274.6884                   22675277.3524
 -34972474.95748 -27229442.86046  21649268.4844                   21649268.8594
 -25467304.01647 -19821756.94845  22777632.3364                   22777634.0984
 -10084984.41847  -7835547.42044  23529278.9614                   23529283.5394
 -48626452.70348 -37866023.50246  21996767.5864                   21996771.4024
 -64657089.23048 -50357501.24846  20944371.0634                   20944371.6484
 -22358593.82447 -17404335.41045  22669163.8364                   22669166.7504
   -506329.42646   -380159.67843  25047811.7344                   25047815.2934
 11  9 27  0 16  0.0000000  0  9G02G12G29G30G15G25G05G26G21
 -83987863.12548 -65420778.95645  22262073.5004                   22262072.4574
 -63477773.03147 -49439167.94445  22672180.8674                   22672184.2464
 -35147448.87148 -27365786.06646  21615971.9454                   21615972.2304
 -25570084.89547 -19901845.88544  22758073.9224                   22758075.6294
 -10285705.77347  -7991953.33844  23491082.5554                   23491086.1844
 -48686502.29748 -37912815.37346  21985340.6884                   21985344.4384
 -64707371.53148 -50396682.23846  20934802.7664                   20934803.0594
 -22545785.41447 -17550198.77044  22633542.2424                   22633545.3364
   -668467.32046   -506500.70443  25016958.2344                   25016961.3674
 11  9 27  0 16 30.0000000  0  9G02G12G29G30G15G25G05G26G21
 -84045181.00047 -65465442.18645  22251166.2894                   22251165.7154
 -63493765.64847 -49451629.76645  22669138.1724                   22669140.7304
 -35322142.68748 -27501911.01546  21582729.3204                   21582729.1644
 -25672250.02747 -19981455.03745  22738632.0944                   22738634.5124
 -10486321.44147  -8148276.85044  23452906.6094                   23452910.0864
 -48746036.00448 -37959205.25846  21974011.4304                   21974015.7154
 -64757217.59048 -50435523.30046  20925317.3204                   20925317.6524
 -22732617.78947 -17695782.21745  22597989.1484                   22597991.2584
   -830562.44146   -632808.38743  24986111.9534                   24986116.7304
 11  9 27  0 17  0.0000000  0  9G02G12G29G30G15G25G05G26G21
 -84102352.93047 -65509991.72445  22240286.7584                   22240286.2234
 -63509497.73447 -49463888.57345  22666144.5394                   22666146.7544
 -35496553.35248 -27637815.34946  21549539.8754                   21549540.0594
 -25773799.75047 -20060584.64145  22719308.0864                   22719310.0354
 -10686828.93747  -8304516.13344  23414750.7424                   23414753.4774
 -48805055.68448 -38005194.61046  21962780.1414                   21962784.4964
 -64806629.30948 -50474025.91546  20915914.4614                   20915914.8914
 -22919087.06647 -17841082.72645  22562505.1024                   22562507.2234
   -992614.52746   -759082.59543  24955274.1334                   24955277.9494
 11  9 27  0 17 30.0000000  0  9G02G12G29G30G15G25G05G26G21
 -84159377.31647 -65554426.24545  22229434.7814                   22229434.4694
 -63524971.25847 -49475945.89945  22663199.7504                   22663202.2114
 -35670677.37548 -27773496.31846  21516405.5314                   21516405.8244
 -25874733.91847 -20139234.57645  22700100.6094                   22700102.3834
 -10887223.27747  -8460667.22244  23376617.2974                   23376620.3014
 -48863562.59447 -38050784.40346  21951646.8364                   21951651.3094
 -64855607.80548 -50512190.97546  20906593.9774                   20906594.2974
 -23105188.13747 -17986096.36945  22527090.5004                   22527094.0634
  -1154623.33646   -885322.97743  24924444.8594                   24924449.0704
 11  9 27  0 18  0.0000000  0  9G02G12G29G30G15G25G05G26G21
 -84216254.05547 -65598745.73345  22218611.7734                   22218611.6914
 -63540189.75047 -49487804.49845  22660303.8134                   22660305.8594
 -35844512.78948 -27908952.37846  21483325.2894                   21483325.8444
 -25975053.58247 -20217405.69545  22681010.1334                   22681013.0084
 -11087501.53947  -8616727.83244  23338504.5554                   23338508.6414
 -48921559.20348 -38095976.55246  21940610.5004                   21940614.9654
 -64904155.50848 -50550020.34146  20897356.1564                   20897356.0594
 -23290917.92247 -18130820.66145  22491747.5084                   22491750.2234
  -1316589.11746  -1011529.92443  24893623.9844                   24893628.5474
 11  9 27  0 18 30.0000000  0  9G02G12G29G30G15G25G05G26G21
 -84272983.41847 -65642950.37345  22207816.6884                   22207816.4414
 -63555156.13347 -49499466.64645  22657456.1564                   22657458.3794
 -36018057.21148 -28044181.68746  21450300.4924                   21450301.3404
 -26074759.84447 -20295098.78345  22662036.9384                   22662039.2234
 -11287661.17647  -8772696.09644  23300414.9774                   23300418.8754
 -48979047.96148 -38140772.98346  21929670.9304                   21929675.0084
 -64952275.00048 -50587516.03446  20888198.9304                   20888199.2504
 -23476272.64547 -18275252.72445  22456475.6334                   22456477.7504
  -1478512.85246  -1137704.02943  24862810.5314                   24862814.1644
 11  9 27  0 19  0.0000000  0  9G02G12G29G30G15G25G05G26G21
 -84329566.02347 -65687040.66945  22197048.6334                   22197048.5634
 -63569874.94147 -49510935.90045  22654654.7194                   22654657.6374
 -36191309.73848 -28179183.54746  21417331.6174                   21417332.5164
 -26173854.80947 -20372315.59945  22643180.0234                   22643182.0394
 -11487700.24647  -8928570.38844  23262349.1094                   23262352.1914
 -49036032.51648 -38185176.52646  21918827.3674                   21918831.2194
 -64999969.98448 -50624680.93146  20879122.9534                   20879123.2424
 -23661250.21947 -18419390.90845  22421275.4924                   22421278.5004
  -1640396.55146  -1263846.96943  24832005.0004                   24832008.2894
 11  9 27  0 19 30.0000000  0  9G02G12G29G30G15G25G05G26G21
 -84386002.73047 -65731017.24945  22186309.5314                   22186309.3674
 -63584349.96947 -49522215.18245  22651900.6804                   22651903.3714
 -36364268.94948 -28313956.83846  21384418.5234                   21384419.6524
 -26272340.34847 -20449057.48645  22624438.3914                   22624440.4264
 -11687616.68047  -9084349.11344  23224305.5314                   23224309.4184
 -49092515.99648 -38229189.61746  21908078.2974                   21908082.3364
 -65047243.45748 -50661517.38446  20870126.7814                   20870127.3094
 -23845847.36347 -18563232.66645  22386147.4534                   22386149.4104
  -1802241.15246  -1389959.36043  24801207.1174                   24801209.9884
 11  9 27  0 20  0.0000000  0  9G02G12G29G30G15G25G05G26G21
 -84442293.45347 -65774880.11545  22175597.7114                   22175597.7464
 -63598584.50047 -49533307.05745  22649191.9384                   22649194.4964
 -36536932.74248 -28448499.92546  21351561.3984                   21351562.7734
 -26370217.67647 -20525325.44645  22605813.0234                   22605814.9494
 -11887407.59847  -9240030.01244  23186286.8754                   23186290.5274
 -49148501.05548 -38272814.32246  21897424.9384                   21897429.1374
 -65094098.22748 -50698027.57146  20861210.8754                   20861211.1844
 -24030061.07047 -18706775.63945  22351092.6094                   22351094.8014
  -1964048.02346  -1516042.51143  24770415.6804                   24770419.6524
 11  9 27  0 20 30.0000000  0  9G02G12G29G30G15G25G05G26G21
 -84498436.12547 -65818627.58845  22164913.4774                   22164913.7624
 -63612579.87147 -49544212.58245  22646528.5784                   22646531.3634
 -36709296.78548 -28582809.44346  21318761.5004                   21318762.3634
 -26467486.03147 -20601118.87745  22587303.6094                   22587304.9184
 -12087068.29747  -9395609.47944  23148292.1094                   23148294.9844
 -49203988.27048 -38316051.10546  21886866.1884                   21886870.2074
 -65140534.90248 -50734211.95746  20852374.3204                   20852374.4844
 -24213885.67247 -18850015.39145  22316111.8204                   22316114.8984
  -2125815.01346  -1642094.53743  24739632.6724                   24739635.6254
 11  9 27  0 21  0.0000000  0  9G02G12G29G30G15G25G05G26G21
 -84554430.82046 -65862259.77945  22154258.3524                   22154258.5664
 -63626339.02347 -49554934.02845  22643910.6174                   22643912.4534
 -36881359.30948 -28716883.98646  21286018.8524                   21286019.9494
 -26564146.74247 -20676438.81345  22568908.9454                   22568911.5314
 -12286595.94547  -9551085.29545  23110322.7504                   23110326.9924
 -49258980.32847 -38358902.04346  21876401.0004                   21876405.7624
 -65186556.00048 -50770072.50546  20843616.5784                   20843617.1914
 -24397317.91447 -18992949.41545  22281206.1024                   22281208.3404
  -2287543.16846  -1768116.14343  24708856.3754                   24708859.6214
 11  9 27  0 21 30.0000000  0  9G02G12G29G30G15G25G05G26G21
 -84610278.08647 -65905777.08945  22143631.0634                   22143631.3244
 -63639866.71547 -49565475.11645  22641336.3984                   22641338.7424
 -37053118.89148 -28850722.48346  21253334.1884                   21253335.0124
 -26660201.87547 -20751286.90345  22550630.3674                   22550632.9654
 -12485988.48847  -9706455.80944  23072380.0864                   23072382.9104
 -49313480.71148 -38401369.86246  21866030.6174                   21866034.4064
 -65232164.93048 -50805611.90046  20834937.6414                   20834937.9064
 -24580355.10247 -19135575.64545  22246374.9144                   22246376.8914
  -2449234.43746  -1894109.17443  24678087.0554                   24678090.2664
 11  9 27  0 22  0.0000000  0  9G02G12G29G30G15G25G05G26G21
 -83090556.68047 -64721578.56745  22432824.4064                   22432824.5944
 -62077746.09447 -48348238.31245  22938598.3754                   22938599.5984
 -35649147.84448 -27756718.94146  21520500.8364                   21520501.2464
 -25180229.89147 -19598061.89644  22832259.9694                   22832262.2114
 -11109816.90247  -8634114.05244  23334256.5634                   23334259.3204
 -47792070.59848 -37215855.44346  22155544.8134                   22155548.8284
 -63701943.04348 -49613231.17346  21126129.0394                   21126129.1254
 -23187568.12147 -18050286.88445  22511413.3524                   22511416.5824
  -1035463.61346   -792469.31143  24947119.2974                   24947122.1994
 11  9 27  0 22 30.0000000  0  9G02G12G29G30G15G25G05G26G21
 -83146109.43747 -64764866.41945  22422252.9454                   22422253.4884
 -62090820.38747 -48358426.06345  22936109.9454                   22936112.8484
 -35820294.76648 -27890080.06046  21487932.5394                   21487932.9344
 -25275077.59447 -19671969.09044  22814210.6174                   22814213.8914
 -11308930.65647  -8789267.36745  23296365.6024                   23296369.7424
 -47845595.26248 -37257562.96246  22145360.0314                   22145363.7934
 -63746735.07448 -49648134.01746  21117605.4304                   21117605.0904
 -23369804.97747 -18192289.48445  22476734.5554                   22476736.8674
  -1197081.48456   -918405.00653  24916363.3284                   24916366.9614
 11  9 27  0 23  0.0000000  0  9G02G12G29G30G15G25G05G26G21
 -83201515.09847 -64808039.61845  22411709.5314                   22411709.6604
 -62103673.22347 -48368441.31045  22933664.6644                   22933666.4884
 -35991132.57848 -28023200.31146  21455423.1954                   21455423.7274
 -25369324.23447 -19745407.95644  22796275.6724                   22796278.2734
 -11507901.18747  -8944309.07045  23258503.2584                   23258506.3954
 -47898636.74648 -37298893.97546  22135265.9534                   22135270.7464
 -63791123.40647 -49682722.31146  21109158.2504                   21109159.1564
 -23551637.05947 -18333976.63445  22442132.7734                   22442134.2344
  -1358664.85546  -1044313.97343  24885615.8364                   24885618.4804
 11  9 27  0 23 30.0000000  0  9G02G12G29G30G15G25G05G26G21
 -83256773.86747 -64851098.36345  22401194.2584                   22401194.2344
 -62116307.44947 -48378286.19045  22931260.1484                   22931262.4144
 -36161659.32047 -28156078.15846  21422972.6884                   21422973.7734
 -25462971.22347 -19818379.53745  22778455.8204                   22778458.3634
 -11706725.85247  -9099237.11545  23220667.9144                   23220670.5474
 -47951197.75848 -37339850.55546  22125264.1414                   22125267.7624
 -63835110.39547 -49716997.86346  21100788.2894                   21100788.2734
 -23733061.01247 -18475345.76945  22407609.0164                   22407611.3204
  -1520213.76646  -1170195.99143  24854874.2894                   24854876.0984
 11  9 27  0 24  0.0000000  0  9G02G12G29G30G15G25G05G26G21
 -83311884.41047 -64894041.62745  22390707.1884                   22390706.9694
 -62128726.48047 -48387963.38845  22928896.9454                   22928899.6484
 -36331872.09048 -28288711.36146  21390582.2894                   21390583.2034
 -25556019.14847 -19890884.34444  22760748.9144                   22760751.2304
 -11905400.71947  -9254048.48245  23182861.2584                   23182863.0234
 -48003280.09448 -37380434.17346  22115353.2034                   22115356.9964
 -63878698.04747 -49750962.25146  21092493.7274                   21092493.5744
 -23914072.41447 -18616393.45845  22373163.5084                   22373166.4264
  -1681728.89546  -1296051.72243  24824138.8984                   24824139.6414
 11  9 27  0 24 30.0000000  0  9G02G12G29G30G15G25G05G26G21
 -83366847.30947 -64936869.83645  22380248.2114                   22380247.9574
 -62140933.87547 -48397475.67445  22926573.5554                   22926576.7854
 -36501769.22747 -28421098.60646  21358251.9614                   21358252.9184
 -25648469.85247 -19962923.77544  22743156.2814                   22743158.6604
 -12103923.41047  -9408741.26345  23145083.7584                   23145087.0704
 -48054887.06247 -37420647.36746  22105532.8984                   22105536.8594
 -63921889.22348 -49784617.69246  21084274.6804                   21084275.0084
 -24094668.75447 -18757117.69345  22338796.7894                   22338799.0394
  -1843211.35946  -1421881.98843  24793408.4454                   24793411.0944
 11  9 27  0 25  0.0000000  0  9G02G12G29G30G15G25G05G26G21
 -83421663.09447 -64979583.38745  22369817.0314                   22369816.8754
 -62152932.84847 -48406825.54845  22924290.0004                   22924293.3954
 -36671348.94548 -28553238.52446  21325981.9304                   21325982.4884
 -25740324.99247 -20034499.11944  22725676.6564                   22725679.1094
 -12302291.37147  -9563313.47545  23107335.2274                   23107338.1254
 -48106021.50848 -37460492.36146  22095802.5084                   22095806.2704
 -63964686.85247 -49817966.47646  21076130.4924                   21076130.5314
 -24274846.57847 -18897515.82845  22304510.3444                   22304512.2194
  -2004661.21546  -1547686.88243  24762686.0394                   24762687.7544
 11  9 27  0 25 30.0000000  0  9G02G12G29G30G15G25G05G26G21
 -83476334.87147 -65022184.74845  22359413.5234                   22359412.5704
 -62164730.19947 -48416018.31345  22922045.6254                   22922048.5274
 -36840612.21947 -28685131.87046  21293772.2504                   21293772.3594
 -25831589.55947 -20105614.29344  22708309.3524                   22708312.4454
 -12500505.60246  -9717765.90445  23069615.7814                   23069618.2234
 -48156689.80147 -37499974.12746  22086160.2584                   22086164.1414
 -64007096.93748 -49851013.27546  21068060.1954                   21068060.0944
 -24454606.07847 -19037587.96645  22270303.1484                   22270305.1954
  -2166082.94946  -1673469.82443  24731967.9224                   24731969.2304
 11  9 27  0 26  0.0000000  0  9G02G12G29G30G15G25G05G26G21
 -83530869.14847 -65064678.92045  22349035.4144                   22349034.9804
 -62176335.69547 -48425061.60245  22919836.7274                   22919839.5864
 -37009563.42248 -28816782.05446  21261621.6724                   21261621.9304
 -25922271.53147 -20176275.50044  22691053.3754                   22691056.5044
 -12698569.16047  -9872100.91145  23031926.4304                   23031927.9414
 -48206901.04348 -37539099.74246  22076605.4774                   22076609.0124
 -64049128.75848 -49883765.32746  21060061.7894                   21060061.9184
 -24633950.31647 -19177336.57045  22236174.7344                   22236177.2734
  -2327483.91846  -1799236.61143  24701253.7344                   24701256.0634
 11  9 27  0 26 30.0000000  0 10G02G12G29G30G15G18G25G05G26G21
 -83585270.10947 -65107069.23645  22338683.2974                   22338683.2774
 -62187756.91046 -48433961.28845  22917664.0704                   22917666.7464
 -37178205.07047 -28948191.02646  21229530.3284                   21229531.1994
 -26012376.85547 -20246487.36344  22673906.9694                   22673909.2664
 -12896483.47347 -10026319.61144  22994262.9924                   22994266.5514
   4055034.62915                  24607935.211
 -48256662.55547 -37577874.91746  22067135.9384                   22067139.9614
 -64090789.29747 -49916228.05746  21052133.9924                   21052134.5704
 -24812880.59047 -19316762.55345  22202124.8444                   22202127.2704
  -2488869.60946  -1924991.49643  24670542.7114                   24670544.6454
 11  9 27  0 27  0.0000000  0 10G02G12G29G30G15G18G25G05G26G21
 -83639536.09847 -65149354.36945  22328356.4384                   22328357.0594
 -62198995.71547 -48442718.82445  22915525.1174                   22915527.5554
 -37346533.20347 -29079355.67846  21197498.5164                   21197498.9414
 -26101905.46147 -20316249.84344  22656869.7344                   22656872.0274
 -13094244.42647 -10180418.83945  22956630.4454                   22956632.6684
   3862202.38315                  24571240.070
 -48305975.45747 -37616300.52446  22057751.7734                   22057755.7704
 -64132079.27048 -49948402.03346  21044276.9064                   21044276.9844
 -24991391.70347 -19455861.93745  22168155.4064                   22168157.7344
  -2650238.87946  -2050733.49443  24639835.3134                   24639837.3754
 11  9 27  0 27 30.0000000  0 10G02G12G29G30G15G18G25G05G26G21
 -83693662.42247 -65191530.68945  22318056.6804                   22318056.5434
 -62210050.84447 -48451333.23945  22913421.6174                   22913424.0664
 -37514540.92648 -29210270.68246  21165527.3984                   21165528.6914
 -26190854.30547 -20385560.57345  22639943.9064                   22639946.3834
 -13291844.50847 -10334392.71944  22919027.9924                   22919030.1414
                                  24534581.617
 -48354837.97747 -37654375.19046  22048453.5784                   22048457.6024
 -64172996.88348 -49980285.86146  21036490.4064                   21036490.7154
 -25169475.93747 -19594628.69545  22134267.4614                   22134269.2274
  -2811586.95346  -2176459.06243  24609131.6724                   24609133.5004
 11  9 27  0 28  0.0000000  0 10G02G12G29G30G15G18G25G05G26G21
 -83747650.11747 -65233598.96745  22307783.5704                   22307782.8014
 -62220926.77047 -48459808.02245  22911352.0864                   22911354.1374
 -37682227.76248 -29340935.64346  21133617.6724                   21133618.2734
 -26279226.30147 -20454421.79245  22623127.1954                   22623129.6844
 -13489281.99646 -10488239.88145  22881457.2504                   22881459.1094
   3477129.15215                  24497961.836
 -48403254.15248 -37692102.05846  22039240.4304                   22039244.3874
 -64213546.02348 -50011882.53546  21028774.3594                   21028774.3284
 -25347130.90647 -19733060.95245  22100460.0554                   22100461.9264
  -2972915.98846  -2302169.72343  24578431.6094                   24578433.3054
 11  9 27  0 28 30.0000000  0 10G02G12G29G30G15G18G25G05G26G21
 -83801492.67647 -65275554.14045  22297537.5474                   22297537.1564
 -62231620.34447 -48468140.70845  22909316.9224                   22909318.7464
 -37849584.84848 -29471343.65746  21101770.4924                   21101771.0204
 -26367016.66047 -20522829.82245  22606421.1024                   22606423.5204
 -13686547.41047 -10641952.94845  22843918.6414                   22843920.8484
   3284895.38346   2581813.25852  24461381.3204                   24461386.0704
 -48451220.42647 -37729478.35046  22030112.8134                   22030116.0704
 -64253723.18048 -50043189.37046  21021128.7814                   21021128.5394
 -25524347.07447 -19871151.30345  22066737.0554                   22066739.4574
  -3134220.44946  -2427861.33243  24547736.0704                   24547738.1094
 11  9 27  0 29  0.0000000  0 10G02G12G29G30G15G18G25G05G26G21
 -83855195.02347 -65317400.07945  22287318.5474                   22287318.4804
 -62242139.27347 -48476337.33045  22907315.8914                   22907317.3204
 -38016615.02748 -29601496.94246  21069985.3984                   21069985.6604
 -26454231.67247 -20590789.50045  22589824.3284                   22589826.7704
 -13883642.85547 -10795533.58845  22806412.0474                   22806413.9494
   3092862.26646   2432177.46643  24424838.0314                   24424842.5314
 -48498744.41048 -37766510.00446  22021069.3524                   22021072.4924
 -64293534.99248 -50074211.51146  21013552.8444                   21013552.4064
 -25701125.83247 -20008900.81345  22033097.2974                   22033099.2584
  -3295505.75046  -2553538.02443  24517044.7894                   24517047.1254
 11  9 27  0 29 30.0000000  0 10G02G12G29G30G15G18G25G05G26G21
 -83908751.52347 -65359132.36445  22277126.3984                   22277126.2624
 -62252482.02747 -48484396.63144  22905348.0394                   22905349.0434
 -38183310.59048 -29731389.50346  21038264.5004                   21038264.6884
 -26540867.81647 -20658298.09644  22573337.8284                   22573340.2234
 -14080560.00447 -10948975.26945  22768939.6804                   22768942.6684
   2901036.26646   2282703.07042  24388334.6564                   24388339.6604
 -48545823.68048 -37803195.10746  22012110.0944                   22012114.3164
 -64332979.63348 -50104947.54946  21006046.4304                   21006046.4734
 -25877458.43047 -20146302.68345  21999542.0784                   21999544.0784
  -3456766.57846  -2679195.59843  24486357.5554                   24486359.5164
 11  9 27  0 30  0.0000000  0 10G02G12G29G30G15G18G25G05G26G21
 -82386741.73447 -64173150.62745  22566755.5634                   22566755.6254
 -60687232.90647 -47264722.01445  23203204.6414                   23203206.3554
 -36774245.31648 -28633416.45346  21306400.4064                   21306401.0594
 -25051505.36347 -19497755.85345  22856754.4534                   22856756.6454
 -12701871.00047  -9874671.90045  23031295.1724                   23031298.3674
   4284843.30546   3360994.63342  24651663.5314                   24651669.5434
 -47017041.05548 -36611935.90446  22303028.0704                   22303031.9534
 -62796639.71548 -48907799.52346  21298402.2584                   21298402.5004
 -24477917.52047 -19055751.13545  22265866.1644                   22265867.6454
  -2042581.02346  -1577232.66643  24755468.2504                   24755470.6334
 11  9 27  0 30 30.0000000  0 10G02G12G29G30G15G18G25G05G26G21
 -82440007.84047 -64214656.62345  22556619.2344                   22556619.2774
 -60697234.34447 -47272515.39044  23201300.8754                   23201303.4414
 -36940266.83648 -28762783.75746  21274807.7034                   21274807.9884
 -25136990.43747 -19564367.51645  22840486.7194                   22840488.9964
 -12898424.68447 -10027830.36445  22993892.3134                   22993894.6564
   4093432.98446   3211844.09442  24615239.2034                   24615244.2974
 -47063241.09047 -36647935.90646  22294236.5234                   22294239.7774
 -62835358.91848 -48937970.29146  21291034.0554                   21291034.4694
 -24653349.63347 -19192451.32245  22232481.9774                   22232483.1844
  -2203798.27746  -1702856.36943  24724789.2584                   24724791.4384
 11  9 27  0 31  0.0000000  0 10G02G12G29G30G15G18G25G05G26G21
 -82493128.21547 -64256049.06045  22546510.8594                   22546510.7814
 -60707069.46547 -47280179.13245  23199430.3754                   23199432.7154
 -37105947.59048 -28891885.51946  21243279.7194                   21243279.5744
 -25221901.94147 -19630532.24244  22824329.2344                   22824330.8444
 -13094791.77047 -10180843.44645  22956524.3914                   22956526.8524
   3902232.60546   3062857.17242  24578854.1954                   24578858.4734
 -47109005.31647 -36683596.31646  22285528.2274                   22285531.3984
 -62873718.63348 -48967860.90746  21283734.2274                   21283734.2974
 -24828326.43047 -19328796.71145  22199184.6254                   22199186.3134
  -2364993.82846  -1828463.09943  24694115.2034                   24694116.8134
 11  9 27  0 31 30.0000000  0 10G02G12G29G30G15G18G25G05G26G21
 -82546102.18047 -64297327.39945  22536430.5554                   22536429.7584
 -60716741.33647 -47287715.67744  23197589.1564                   23197592.3444
 -37271285.16848 -29020719.88846  21211816.6804                   21211816.9454
 -25306241.53547 -19696251.32645  22808279.7974                   22808281.4694
 -13290968.81647 -10333708.42445  22919193.7504                   22919196.0124
   3711243.51646   2914034.83242  24542510.5864                   24542515.8284
 -47154336.42648 -36718919.22446  22276901.4384                   22276905.1644
 -62911721.43748 -48997473.42546  21276502.7584                   21276502.3484
 -25002843.87147 -19464784.16445  22165975.4614                   22165976.9534
  -2526167.88746  -1954053.11943  24663445.0634                   24663446.1134
 11  9 27  0 32  0.0000000  0 10G02G12G29G30G15G18G25G05G26G21
 -82598928.64147 -64338490.80445  22526377.5084                   22526376.9654
 -60726251.89147 -47295126.52645  23195778.9064                   23195782.0744
 -37436276.20348 -29149284.22446  21180420.0554                   21180420.2934
 -25390009.87147 -19761525.29644  22792338.6644                   22792341.0124
 -13486952.10247 -10486422.40545  22881898.6174                   22881901.1174
   3520467.91845   2765378.83242  24506206.1484                   24506211.9184
 -47199236.23047 -36753906.04346  22268357.3674                   22268361.1414
 -62949368.87548 -49026809.03146  21269338.4924                   21269338.8444
 -25176897.77047 -19600410.41445  22132853.5004                   22132855.6684
  -2687320.31246  -2079626.32343  24632778.7584                   24632780.0704
 11  9 27  0 32 30.0000000  0 10G02G12G29G30G15G18G25G05G26G21
 -82651609.16847 -64379540.49845  22516352.5004                   22516352.2304
 -60735606.59847 -47302415.90744  23193999.4694                   23194001.0084
 -37600920.46147 -29277578.32946  21149088.7194                   21149089.3594
 -25473210.61747 -19826356.94545  22776506.1254                   22776508.0084
 -13682740.72746 -10638984.71545  22844641.1484                   22844643.8324
   3329904.95346   2616888.59842  24469943.5084                   24469948.0594
 -47243709.54747 -36788560.56446  22259894.8754                   22259898.2894
 -62986665.21548 -49055871.07446  21262241.3444                   21262242.0394
 -25350486.93447 -19735674.55145  22099820.3834                   22099822.3634
  -2848453.10546  -2205184.25143  24602116.4454                   24602116.8984
 11  9 27  0 33  0.0000000  0 10G02G12G29G30G15G18G25G05G26G21
 -82704143.14847 -64420476.01845  22506356.1024                   22506354.9964
 -60744807.85547 -47309585.74245  23192247.8594                   23192251.6644
 -37765215.24647 -29405600.14446  21117824.5704                   21117825.0944
 -25555845.00447 -19890747.33844  22760781.2584                   22760783.6604
 -13878330.87947 -10791392.37745  22807421.2974                   22807423.6644
   3139556.03946   2468565.08642  24433720.6884                   24433726.1214
 -47287758.69147 -36822884.52646  22251511.9534                   22251516.2504
 -63023612.71948 -49084661.28346  21255210.4064                   21255210.3014
 -25523607.38747 -19870573.44345  22066876.8134                   22066878.6414
  -3009567.14546  -2330727.51243  24571456.4064                   24571457.7344
 11  9 27  0 33 30.0000000  0 10G02G12G29G30G15G18G25G05G26G21
 -82756530.35947 -64461297.14645  22496386.8054                   22496386.6954
 -60753858.84047 -47316638.49744  23190525.7664                   23190528.7154
 -37929158.39148 -29533347.94046  21086627.1254                   21086628.0944
 -25637914.62947 -19954697.62344  22745163.1724                   22745166.2664
 -14073719.52747 -10943643.04045  22770240.2584                   22770241.9614
   2949422.67646   2320409.53942  24397539.9224                   24397544.6414
 -47331386.41047 -36856880.10846  22243210.1414                   22243213.4534
 -63060213.92248 -49113181.66446  21248245.3834                   21248245.2274
 -25696255.46547 -20005104.25345  22034022.5084                   22034024.7304
  -3170662.27346  -2456256.06443  24540801.5084                   24540801.9224
 11  9 27  0 34  0.0000000  0 10G02G12G29G30G15G18G25G05G26G21
 -82808772.52347 -64502005.27845  22486445.2974                   22486444.8524
 -60762764.77047 -47323578.20645  23188831.4304                   23188833.8284
 -38092749.30148 -29660821.26846  21055497.0084                   21055497.3244
 -25719423.39147 -20018210.86944  22729652.5394                   22729655.3914
 -14268905.43747 -11095735.71045  22733097.2344                   22733099.4924
   2759504.02046   2172421.25842  24361399.7274                   24361402.9104
 -47374597.62147 -36890551.15046  22234986.7664                   22234990.4694
 -63096473.20748 -49141435.61146  21241345.3594                   21241345.6334
 -25868430.00847 -20139266.08345  22001258.6804                   22001260.2774
  -3331741.07046  -2581771.87643  24510149.4844                   24510149.6454
 11  9 27  0 34 30.0000000  0 10G02G12G29G30G15G18G25G05G26G21
 -82860867.13747 -64542598.42645  22476531.8444                   22476531.7854
 -60771526.32047 -47330405.39145  23187164.0784                   23187166.1454
 -38255983.74247 -29788016.83546  21024434.8444                   21024435.3594
 -25800370.80947 -20081286.73744  22714248.9924                   22714251.2664
 -14463883.92647 -11247666.78145  22695994.0704                   22695996.4024
   2569803.07046   2024602.62142  24325300.2894                   24325303.8014
 -47417392.93747 -36923898.12545  22226843.5864                   22226847.3094
 -63132390.71548 -49169423.23946  21234510.6094                   21234510.6994
 -26040125.35547 -20273054.50645  21968586.2664                   21968587.1804
  -3492801.70346  -2707273.48243  24479499.9064                   24479500.3164
 11  9 27  0 35  0.0000000  0 10G02G12G29G30G15G18G25G05G26G21
 -82912813.81247 -64583076.30145  22466647.0634                   22466646.5164
 -60780146.54747 -47337122.48345  23185524.1174                   23185525.7704
 -38418859.26247 -29914932.71346  20993440.1954                   20993440.8754
 -25880758.50847 -20143926.46844  22698951.5394                   22698953.9534
 -14658651.23447 -11399433.28945  22658930.2734                   22658932.6684
   2380321.27046   1876954.73143  24289242.9144                   24289247.8874
 -47459775.08647 -36956923.14445  22218777.9224                   22218782.2814
 -63167969.12148 -49197146.65346  21227740.4694                   21227740.3364
 -26211338.23847 -20406466.97945  21936005.5944                   21936006.7034
  -3653844.71146  -2832761.49643  24448853.5474                   24448854.4264
 11  9 27  0 35 30.0000000  0 10G02G12G29G30G15G18G25G05G26G21
 -82964613.99247 -64623440.02345  22456789.2504                   22456789.3594
 -60788630.57847 -47343733.42844  23183908.8284                   23183911.5784
 -38581375.35548 -30041568.52846  20962514.1804                   20962514.7584
 -25960590.19947 -20206132.89544  22683760.2114                   22683762.3984
 -14853206.37547 -11551034.48245  22621908.0234                   22621909.9304
   2191057.85546   1729477.02043  24253227.1804                   24253231.9024
 -47501748.80947 -36989629.93945  22210790.9614                   22210794.8134
 -63203212.49648 -49224608.98746  21221033.9384                   21221033.5514
 -26382067.19947 -20539502.38845  21903516.3444                   21903517.1564
  -3814871.79746  -2958236.99243  24418211.3134                   24418212.7344
 11  9 27  0 36  0.0000000  0 10G02G12G29G30G15G18G25G05G26G21
 -83016266.10547 -64663688.36045  22446960.2504                   22446959.9924
 -60796979.84447 -47350239.36545  23182320.3674                   23182322.7344
 -38743528.47747 -30167921.50546  20931657.3444                   20931657.6294
 -26039866.29347 -20267906.43545  22668674.7504                   22668676.5044
 -15047544.75447 -11702466.79145  22584926.6254                   22584928.1524
   2002015.31346   1582171.41843  24217253.8134                   24217257.5664
 -47543315.70347 -37022019.67945  22202881.0314                   22202884.8164
 -63238122.16048 -49251811.30246  21214390.6564                   21214390.4104
 -26552307.67247 -20672157.14245  21871121.1644                   21871121.6374
  -3975882.45346  -3083699.75643  24387572.0784                   24387573.0164
 11  9 27  0 36 30.0000000  0 10G02G12G29G30G15G18G25G05G26G21
 -83067767.25847 -64703819.09945  22437159.7424                   22437159.8594
 -60805195.17647 -47356640.94444  23180757.3134                   23180758.9414
 -38905313.74647 -30293987.87046  20900870.9384                   20900870.8984
 -26118586.22747 -20329246.64844  22653695.2114                   22653696.8164
 -15241660.89147 -11853725.92045  22547987.8134                   22547988.5124
   1813197.30946   1435040.76343  24181322.1484                   24181326.2854
 -47584475.94547 -37054092.59546  22195048.7194                   22195052.5744
 -63272698.02348 -49278753.51646  21207811.1024                   21207810.7074
 -26722053.53947 -20804426.49845  21838819.2344                   21838820.3444
  -4136874.94146  -3209148.24443  24356936.3284                   24356937.7734
 11  9 27  0 37  0.0000000  0 10G02G12G29G30G15G18G25G05G26G21
 -83119117.79747 -64743832.44845  22427388.2894                   22427388.0904
 -60813280.06647 -47362940.83844  23179218.5864                   23179220.7194
 -39066729.10247 -30419765.98446  20870154.6174                   20870154.4774
 -26196752.21947 -20390155.16944  22638820.9774                   22638822.7194
 -15435552.46547 -12004810.07545  22511090.8364                   22511092.8914
   1624604.21946   1288085.35243  24145433.9224                   24145438.1844
 -47625233.07447 -37085851.37345  22187292.0784                   22187295.9654
 -63306943.18448 -49305438.03246  21201294.5944                   21201294.3204
 -26891302.10547 -20936308.35745  21806611.9774                   21806613.5944
  -4297849.85546  -3334583.15343  24326303.2734                   24326305.2504
 11  9 27  0 37 30.0000000  0 10G02G12G29G30G15G18G25G05G26G21
 -81594899.13347 -63556129.53845  22717437.7274                   22717436.4304
 -59245820.93447 -46141544.13644  23477496.2584                   23477498.9144
 -37652350.85248 -29317652.97846  21139301.7274                   21139301.8324
 -24698947.21947 -19223034.37545  22923843.4454                   22923845.4384
 -14053793.44147 -10928114.55645  22774030.7974                   22774031.7274
   3011660.04346   2368908.31943  24409380.4614                   24409385.6454
 -46090172.11347 -35889699.96445  22479405.1334                   22479409.0044
 -61765442.30948 -48104268.49146  21494631.9844                   21494632.0784
 -25484628.04747 -19840198.55845  22074293.6414                   22074294.3554
  -2883385.97346  -2232403.33143  24595466.6724                   24595468.8014
 11  9 27  0 38  0.0000000  0 10G02G12G29G30G15G18G25G05G26G21
 -81645954.97747 -63595913.28145  22707721.6724                   22707721.4144
 -59253661.75447 -46147653.86644  23476004.0394                   23476007.0864
 -37813027.73048 -29442855.65746  21108725.4224                   21108726.0594
 -24776018.62547 -19283090.00945  22909177.6254                   22909178.9804
 -14247233.84047 -11078847.14745  22737220.1094                   22737221.3444
   2823513.18846   2222300.53743  24373579.2344                   24373582.5004
 -46130139.10247 -35920843.06845  22471799.5554                   22471802.9104
 -61799040.82848 -48130449.14546  21488238.2034                   21488238.6454
 -25652879.79747 -19971303.66645  22042276.1094                   22042277.3524
  -3044334.61746  -2357817.68343  24564839.7114                   24564842.0354
 11  9 27  0 38 30.0000000  0 10G02G12G29G30G15G18G25G05G26G21
 -81696865.60947 -63635583.85645  22698034.1564                   22698033.1524
 -59261387.82847 -46153674.19144  23474533.5944                   23474536.0204
 -37973334.61347 -29567770.01446  21078220.1644                   21078220.3484
 -24852548.43447 -19342723.59945  22894614.4064                   22894616.1684
 -14440446.79747 -11229402.49145  22700452.9774                   22700454.3404
   2635588.48846   2075865.88543  24337817.2584                   24337821.1454
 -46169718.14147 -35951683.86145  22464267.9304                   22464272.0004
 -61832322.68448 -48156383.03746  21481905.0704                   21481905.5514
 -25820630.81247 -20102018.61945  22010354.2274                   22010355.0394
  -3205273.43745  -2483224.45943  24534213.1484                   24534214.7344
 11  9 27  0 39  0.0000000  0 10G02G12G29G30G15G18G25G05G26G21
 -81747628.89547 -63675139.63345  22688374.0234                   22688372.9024
 -59269000.47346 -46159606.15744  23473084.6094                   23473088.0944
 -38133267.45748 -29692392.94246  21047785.8834                   21047786.3524
 -24928536.73447 -19401935.25844  22880154.1724                   22880154.7854
 -14633427.55947 -11379776.94045  22663729.5164                   22663730.5904
   2447888.53946   1929606.42943  24302099.0704                   24302102.7234
 -46208910.38347 -35982223.27645  22456809.5634                   22456813.9344
 -61865288.21148 -48182070.44346  21475632.0704                   21475631.7154
 -25987876.35247 -20232339.67345  21978528.0474                   21978528.6884
  -3366201.09446  -2608622.40043  24503589.7274                   24503592.0314
 11  9 27  0 39 30.0000000  0 10G02G12G29G30G15G18G25G05G26G21
 -81798245.11347 -63714580.78245  22678742.3914                   22678740.9924
 -59276503.32046 -46165452.52244  23471657.8594                   23471660.1764
 -38292824.47348 -29816723.00146  21017423.0944                   21017423.6094
 -25003986.03547 -19460726.93744  22865796.6254                   22865797.9184
 -14826173.49647 -11529968.38045  22627051.2974                   22627052.3164
   2260413.57846   1783522.25943  24266423.7974                   24266426.4344
 -46247719.29347 -36012463.98445  22449424.9694                   22449428.2894
 -61897940.75848 -48207513.94846  21469418.1724                   21469418.4694
 -26154613.60247 -20362264.64845  21946798.7974                   21946800.0314
  -3527118.66846  -2734012.55543  24472968.3754                   24472970.2344
 11  9 27  0 40  0.0000000  0 10G02G12G29G30G15G18G25G05G26G21
 -81848713.89547 -63753907.05345  22669137.7344                   22669136.7814
 -59283899.41846 -46171215.75744  23470249.2894                   23470253.0474
 -38452003.15648 -29940758.24546  20987132.5004                   20987132.2814
 -25078898.14547 -19519099.95944  22851541.1334                   22851541.7384
 -15018681.17647 -11679974.17345  22590418.3524                   22590419.4224
   2073165.23046   1637614.68343  24230790.8444                   24230795.2894
 -46286147.58647 -36042408.10745  22442111.6564                   22442115.7974
 -61930282.17248 -48232715.03146  21463264.2274                   21463264.1764
 -26320838.95347 -20491790.77145  21915166.9774                   21915168.3984
  -3688026.41447  -2859395.02543  24442348.2114                   24442349.8554
 11  9 27  0 40 30.0000000  0 10G02G12G29G30G15G18G25G05G26G21
 -81899034.69147 -63793118.01845  22659562.6884                   22659561.5474
 -59291191.21146 -46176897.64244  23468862.0784                   23468864.9734
 -38610800.93448 -30064496.67746  20956914.2974                   20956914.2344
 -25153274.82847 -19577055.82045  22837386.9304                   22837389.6094
 -15210947.55147 -11829791.92745  22553830.3674                   22553832.4494
   1886144.94946   1491884.79443  24195202.5864                   24195205.7734
 -46324197.98047 -36072057.76345  22434871.2114                   22434875.1094
 -61962314.83648 -48257675.52246  21457168.0784                   21457168.3954
 -26486549.21547 -20620915.53845  21883633.5784                   21883634.2624
  -3848924.19146  -2984769.76043  24411730.3594                   24411731.2114
 11  9 27  0 41  0.0000000  0 10G02G12G29G30G15G18G25G05G26G21
 -81949205.55947 -63832212.15845  22650014.8834                   22650013.5784
 -59298380.41047 -46182499.67944  23467494.1564                   23467497.2774
 -38769214.28148 -30187935.56346  20926768.9534                   20926768.8634
 -25227116.77747 -19634594.97644  22823335.9924                   22823337.1994
 -15402967.84047 -11979417.94445  22517290.5084                   22517291.9734
   1699355.04746   1346334.47143  24159657.2894                   24159660.2774
 -46361872.09447 -36101414.21545  22427702.1094                   22427705.6954
 -61994039.95748 -48282396.37046  21451131.4694                   21451131.4264
 -26651739.69947 -20749635.27145  21852198.4924                   21852199.8914
  -4009811.33246  -3110136.14043  24381114.5474                   24381115.6294
 11  9 27  0 41 30.0000000  0 10G02G12G29G30G15G18G25G05G26G21
 -81999226.65647 -63871189.59745  22640496.1174                   22640495.1294
 -59305470.01247 -46188024.05644  23466145.7664                   23466148.2934
 -38927240.71948 -30311072.93346  20896697.3754                   20896697.4414
 -25300425.91047 -19691718.97644  22809384.9064                   22809387.4654
 -15594739.13747 -12128849.95145  22480797.0554                   22480798.8674
   1512796.46146   1200964.40243  24124155.7424                   24124160.4774
 -46399172.82847 -36130479.70845  22420604.0084                   22420607.6844
 -62025460.26248 -48306879.70046  21445152.1254                   21445152.0124
 -26816407.20747 -20877947.46345  21820863.3754                   21820864.3364
  -4170688.13747  -3235494.55143  24350500.8524                   24350500.3054
 11  9 27  0 42  0.0000000  0 10G02G12G29G30G15G18G25G05G26G21
 -82049100.30547 -63910052.15045  22631005.7344                   22631004.8634
 -59312466.91446 -46193476.17244  23464813.8594                   23464816.8984
 -39084881.67648 -30433909.95546  20866699.6254                   20866698.9694
 -25373207.79347 -19748432.09144  22795535.4384                   22795538.4774
 -15786261.84047 -12278088.20545  22444351.3674                   22444352.7234
   1326466.85946   1055772.68143  24088698.6024                   24088702.2704
 -46436106.53147 -36159259.21745  22413576.1804                   22413580.1174
 -62056581.43048 -48331129.95746  21439230.3134                   21439230.2504
 -26980552.09447 -21005852.44545  21789627.4064                   21789628.1604
  -4331558.11746  -3360847.53443  24319887.7194                   24319888.7734
 11  9 27  0 42 30.0000000  0 10G02G12G29G30G15G18G25G05G26G21
 -82098823.46147 -63948797.41145  22621543.3444                   22621542.8834
 -59319370.93446 -46198855.95645  23463500.1644                   23463502.9494
 -39242131.81648 -30556442.43846  20836775.4144                   20836775.5164
 -25445461.46147 -19804733.64544  22781786.0234                   22781788.1374
 -15977529.93447 -12427128.10545  22407954.6414                   22407955.7734
   1140370.33246    910762.66843  24053285.1414                   24053289.0204
 -46472673.34047 -36187752.82945  22406617.4694                   22406621.8594
 -62087402.98048 -48355146.72346  21433365.1644                   21433364.9804
 -27144168.30147 -21133345.47245  21758491.8054                   21758493.2034
  -4492418.96946  -3486193.37843  24289276.8054                   24289277.8054
 11  9 27  0 43  0.0000000  0 10G02G12G29G30G15G18G25G05G26G21
 -82148397.31247 -63987426.33344  22612109.7194                   22612108.7814
 -59326186.39146 -46204166.71544  23462203.4924                   23462205.9064
 -39398990.14848 -30678669.60046  20806926.3834                   20806926.0474
 -25517190.53546 -19860626.37444  22768136.2814                   22768138.3754
 -16168541.78947 -12575968.35945  22371605.6884                   22371607.1334
    954506.53946    765933.97743  24017917.1484                   24017920.2034
 -46508877.54347 -36215963.89445  22399728.1884                   22399731.4224
 -62117928.69948 -48378932.98046  21427556.2504                   21427556.2304
 -27307253.82047 -21260424.98245  21727458.1024                   21727458.6134
  -4653272.66046  -3611533.69243  24258666.9844                   24258668.3164
 11  9 27  0 43 30.0000000  0 10G02G12G29G30G15G18G25G05G26G21
 -82197819.42247 -64025937.04044  22602705.4844                   22602704.5784
 -59332913.96147 -46209409.01844  23460922.8054                   23460925.6414
 -39555452.49648 -30800588.21346  20777152.5234                   20777152.2704
 -25588394.91046 -19916110.27444  22754586.4064                   22754589.3094
 -16359291.88347 -12724604.59945  22335307.4384                   22335308.3554
    768878.27746    621288.78543  23982591.9144                   23982595.5594
 -46544720.03147 -36243893.11845  22392907.5704                   22392911.4024
 -62148158.69548 -48402488.81246  21421803.1334                   21421803.4924
 -27469803.37947 -21387086.84345  21696525.7734                   21696526.4844
  -4814117.21546  -3736866.91443  24228059.6334                   24228059.8754
 11  9 27  0 44  0.0000000  0 10G02G12G29G30G15G18G25G05G26G21
 -82247091.93447 -64064331.16945  22593329.0394                   22593328.3524
 -59339559.30546 -46214587.21644  23459659.2274                   23459660.7234
 -39711518.70348 -30922198.13146  20747454.0784                   20747453.7734
 -25659079.15647 -19971188.84044  22741135.7424                   22741138.1414
 -16549779.69147 -12873036.48945  22299058.5234                   22299059.9534
    583484.48046    476826.38543  23947313.5634                   23947316.0904
 -46580206.21547 -36271544.68345  22386154.6884                   22386158.0634
 -62178097.97748 -48425818.09546  21416106.0704                   21416105.6684
 -27631816.82847 -21513330.97445  21665695.5704                   21665696.1564
  -4974955.29746  -3862195.01543  24197452.6724                   24197453.7274
 11  9 27  0 44 30.0000000  0 10G02G12G29G30G15G18G25G05G26G21
 -82296217.05947 -64102610.45044  22583980.5474                   22583979.7154
 -59346128.37946 -46219705.99344  23458407.7734                   23458411.2114
 -39867189.57048 -31043500.00646  20717830.7344                   20717830.7974
 -25729248.12546 -20025865.93444  22727783.1804                   22727785.7734
 -16740004.88347 -13021263.74345  22262860.1414                   22262860.6844
    398323.64146    332545.46443  23912078.6334                   23912080.9654
 -46615341.75447 -36298923.00945  22379468.4384                   22379471.8954
 -62207751.67648 -48448924.86146  21410463.2034                   21410463.5634
 -27793293.15647 -21639156.54745  21634967.6484                   21634968.3404
  -5135789.52746  -3987520.15443  24166846.1804                   24166847.3324
 11  9 27  0 45  0.0000000  0 10G02G12G29G30G15G18G25G05G26G21
 -80769768.87947 -62913170.25144  22874454.4144                   22874452.8914
 -57777199.50446 -44997164.04344  23756965.9064                   23756968.0984
 -38447033.36348 -29936884.70847  20988077.5554                   20988077.2974
 -24223477.81246 -18852538.33745  23014321.2504                   23014324.1804
 -15354533.93447 -11941675.82245  22526506.1804                   22526506.4024
   1788826.49646   1416054.45443  24176681.7734                   24176684.1374
 -45074704.58247 -35098426.51245  22672641.8914                   22672645.7384
 -60661697.68748 -47244207.45846  21704667.4384                   21704667.6454
 -26378800.21947 -20536954.11645  21904136.4614                   21904137.0274
  -3721191.18046  -2885235.49643  24436035.5084                   24436036.9964
 11  9 27  0 45 30.0000000  0 10G02G12G29G30G15G18G25G05G26G21
 -80818592.56247 -62951214.67444  22865163.0314                   22865162.7584
 -57783618.64847 -45002166.01244  23755743.9384                   23755746.3094
 -38601900.57448 -30057560.35146  20958607.1884                   20958607.1644
 -24292617.23847 -18906413.15745  23001164.4924                   23001166.6604
 -15544218.99647 -12089482.19945  22490409.6564                   22490411.0274
   1604139.30946   1272142.62543  24141537.1174                   24141539.6564
 -45109142.37547 -35125261.15745  22666088.1954                   22666092.4964
 -60690782.10548 -47266870.62846  21699132.8284                   21699132.7074
 -26539188.10947 -20661931.57145  21873615.4614                   21873616.4104
  -3882014.19946  -3010551.89043  24405431.1254                   24405431.9184
 11  9 27  0 46  0.0000000  0 10G02G12G29G30G15G18G25G05G26G21
 -80867263.31247 -62989139.91344  22855901.1254                   22855900.5704
 -57789965.84447 -45007111.92044  23754536.4224                   23754538.0634
 -38756361.22748 -30177919.22046  20929214.0784                   20929214.0704
 -24361243.43747 -18959888.05444  22988105.5004                   22988107.7934
 -15733627.75447 -12237073.27645  22454366.7344                   22454367.3364
   1419692.08646   1128417.85243  24106436.9774                   24106440.2274
 -45143234.06647 -35151826.12745  22659601.5314                   22659604.5474
 -60719583.85548 -47289313.52446  21693652.2344                   21693652.0904
 -26699025.52747 -20786480.09345  21843199.5084                   21843200.2234
  -4042830.44146  -3135863.05043  24374828.7584                   24374830.4104
 11  9 27  0 46 30.0000000  0 10G02G12G29G30G15G18G25G05G26G21
 -80915784.10947 -63026948.30744  22846667.9844                   22846668.0394
 -57796247.51246 -45012006.77044  23753340.9064                   23753343.6334
 -38910416.56248 -30297962.26946  20899898.6334                   20899898.0864
 -24429362.17647 -19012967.55945  22975143.2274                   22975146.0944
 -15922760.47347 -12384449.27145  22418375.6884                   22418376.5004
   1235482.75846    984878.36543  24071382.8754                   24071385.8594
 -45176986.24247 -35178126.51945  22653178.1414                   22653182.3244
 -60748108.65248 -47311540.61446  21688223.8834                   21688223.9184
 -26858312.56647 -20910599.73545  21812887.7424                   21812888.7974
  -4203643.58246  -3261171.76743  24344226.9924                   24344228.4654
 11  9 27  0 47  0.0000000  0 10G02G12G29G30G15G18G25G05G26G21
 -80964155.52747 -63064640.27845  22837463.3134                   22837463.1294
 -57802467.35546 -45016853.41544  23752157.4694                   23752160.2424
 -39064065.02748 -30417688.26246  20870660.1804                   20870659.6724
 -24496976.55147 -19065654.01145  22962276.0004                   22962278.4454
 -16111615.10247 -12531608.56745  22382437.2814                   22382438.0204
   1051511.36746    841524.30243  24036373.6804                   24036377.9534
 -45210402.68447 -35204165.30945  22646819.4454                   22646822.8014
 -60776359.66448 -47333554.35246  21682848.0864                   21682847.8324
 -27017047.57447 -21034289.21345  21782681.6724                   21782682.1914
  -4364454.68046  -3386478.90143  24313625.6094                   24313626.9774
 11  9 27  0 47 30.0000000  0 10G02G12G29G30G15G18G25G05G26G21
 -81012376.72347 -63102215.23745  22828286.9534                   22828287.3204
 -57808627.62146 -45021653.69144  23750985.3204                   23750987.2974
 -39217303.56248 -30537094.84947  20841499.8054                   20841499.7274
 -24564088.10247 -19117948.65845  22949506.0864                   22949508.5704
 -16300187.75447 -12678548.16845  22346553.7114                   22346554.4144
    867779.02346    698356.51143  24001411.1724                   24001414.3914
 -45243485.85247 -35229944.41645  22640523.8594                   22640527.6764
 -60804339.27048 -47355356.62546  21677523.7504                   21677523.3794
 -27175226.56247 -21157545.46045  21752581.1414                   21752581.8914
  -4525263.71146  -3511784.41443  24283024.1804                   24283025.1914
 11  9 27  0 48  0.0000000  0 10G02G12G29G30G15G18G25G05G26G21
 -81060445.29747 -63139671.21945  22819139.6644                   22819139.3164
 -57814729.55147 -45026408.46144  23749824.6884                   23749826.0084
 -39370127.94148 -30656178.70947  20812418.2664                   20812417.8874
 -24630697.19147 -19169851.74845  22936830.3134                   22936832.6724
 -16488473.42247 -12825264.12545  22310724.0004                   22310724.3444
    684289.33246    555377.73943  23966493.3984                   23966496.8484
 -45276236.77347 -35255464.61645  22634291.5004                   22634295.1804
 -60832047.37548 -47376947.32446  21672250.9064                   21672251.0434
 -27332844.85547 -21280364.78845  21722587.6484                   21722587.8244
  -4686068.60947  -3637086.75943  24252425.4614                   24252425.2894
 11  9 27  0 48 30.0000000  0 10G02G12G29G30G15G18G25G05G26G21
 -81108360.00447 -63177007.32945  22810022.4304                   22810022.0594
 -57820775.28146 -45031119.45744  23748674.0634                   23748676.0354
 -39522535.49248 -30774937.78847  20783416.0944                   20783415.7664
 -24696805.46147 -19221364.63645  22924250.3674                   22924253.2114
 -16676468.47347 -12971753.63345  22274949.2664                   22274950.5474
    501043.34446    412588.90643  23931622.8674                   23931626.2114
 -45308657.88347 -35280727.81045  22628121.7584                   22628125.9574
 -60859486.03148 -47398328.06346  21667029.6024                   21667029.1564
 -27489898.51647 -21402744.15745  21692701.2814                   21692701.7734
  -4846869.35247  -3762385.81543  24221825.1334                   24221825.9964
 11  9 27  0 49  0.0000000  0 10G02G12G29G30G15G18G25G05G26G21
 -81156123.32047 -63214225.48445  22800933.2734                   22800932.4494
 -57826770.47746 -45035791.08744  23747533.3364                   23747535.4654
 -39674526.68448 -30893372.41546  20754492.8054                   20754492.5124
 -24762417.91447 -19272491.15545  22911765.0314                   22911766.5944
 -16864172.45747 -13118016.35745  22239230.8444                   22239230.8324
    318039.40246    269988.60943  23896798.8914                   23896800.5124
 -45340754.84047 -35305738.45045  22622013.9224                   22622018.1724
 -60886659.96948 -47419502.54046  21661858.8984                   21661858.4104
 -27646387.37947 -21524683.41045  21662922.2734                   21662922.2234
  -5007668.89146  -3887684.02744  24191225.5704                   24191226.6994
 11  9 27  0 49 30.0000000  0 10G02G12G29G30G15G18G25G05G26G21
 -81203735.08247 -63251325.51045  22791873.2114                   22791872.2734
 -57832718.27046 -45040425.77544  23746401.5234                   23746403.0474
 -39826099.68448 -31011481.18847  20725648.9694                   20725649.2194
 -24827537.19947 -19323233.35445  22899372.6724                   22899374.6914
 -17051582.71147 -13264050.16645  22203567.3594                   22203567.8484
    135278.13746    127577.48443  23862019.8134                   23862022.2304
 -45372531.14847 -35330499.23245  22615967.3364                   22615971.4104
 -60913572.26648 -47440473.14246  21656737.5164                   21656737.4924
 -27802308.98047 -21646180.65945  21633251.2814                   21633251.8554
  -5168468.11347  -4012981.86643  24160626.3054                   24160627.5394
 11  9 27  0 50  0.0000000  0 10G02G12G29G30G15G18G25G05G26G21
 -81251193.74247 -63288306.27445  22782841.8284                   22782841.0204
 -57838620.39847 -45045024.86744  23745278.2424                   23745280.5394
 -39977250.72748 -31129261.16546  20696886.0784                   20696885.9224
 -24892164.25447 -19373592.03345  22887074.6414                   22887076.5904
 -17238694.54747 -13409851.47845  22167961.2344                   22167961.5554
    -47238.02346    -14642.63243  23827288.4774                   23827290.2074
 -45403988.37547 -35355011.36445  22609981.3984                   22609984.8874
 -60940223.63748 -47461240.41146  21651665.5864                   21651665.6564
 -27957658.89847 -21767232.42745  21603689.1334                   21603689.1804
  -5329265.39147  -4138278.26744  24130027.5474                   24130028.3014
 11  9 27  0 50 30.0000000  0 10G02G12G29G30G15G18G25G05G26G21
 -81298501.57447 -63325169.48945  22773839.3594                   22773838.4024
 -57844482.38747 -45049592.65744  23744162.4224                   23744166.0944
 -40127980.50448 -31246712.88646  20668203.0164                   20668202.6914
 -24956304.35947 -19423571.29545  22874869.0474                   22874870.9064
 -17425507.69147 -13555420.02545  22132411.7114                   22132411.8794
   -229511.09846   -156673.37443  23792602.6954                   23792604.2424
 -45435132.46547 -35379279.47045  22604055.0944                   22604058.3204
 -60966619.66848 -47481808.71446  21646642.6174                   21646642.4304
 -28112437.21147 -21887838.81445  21574235.3914                   21574236.1454
  -5490064.09046  -4263575.81644  24099428.2114                   24099429.2624
 11  9 27  0 51  0.0000000  0 10G02G12G29G30G15G18G25G05G26G21
 -81345656.18447 -63361913.32345  22764866.2344                   22764865.7814
 -57850305.30147 -45054130.06044  23743054.8284                   23743057.4774
 -40278284.81248 -31363833.07546  20639601.3984                   20639600.7154
 -25019957.91847 -19473171.40845  22862756.1804                   22862757.4414
 -17612017.42647 -13700752.17145  22096920.0314                   22096920.8444
   -411538.19546   -298512.50043  23757964.1414                   23757965.7344
 -45465964.53947 -35403304.48445  22598188.0164                   22598191.1374
 -60992760.72748 -47502178.34746  21641668.2344                   21641667.7154
 -28266639.10547 -22007996.03545  21544891.5634                   21544892.0944
  -5650862.67647  -4388873.22044  24068829.0314                   24068830.8094
 11  9 27  0 51 30.0000000  0 10G02G12G29G30G15G18G25G05G26G21
 -81392660.49247 -63398540.03345  22755921.7504                   22755920.9384
 -57856095.14547 -45058641.69944  23741952.8594                   23741956.2114
 -40428164.60948 -31480622.46446  20611080.0474                   20611079.7274
 -25083130.29347 -19522396.56545  22850734.1094                   22850736.2234
 -17798223.72747 -13845847.85045  22061486.3364                   22061486.8164
   -593321.47746   -440161.57443  23723371.3984                   23723373.5234
 -45496490.68747 -35427091.10045  22592378.5784                   22592382.3244
 -61018651.87948 -47522353.25346  21636741.3204                   21636740.8404
 -28420264.71547 -22127704.20245  21515657.7894                   21515658.1174
  -5811664.14846  -4514172.92444  24038230.1484                   24038230.6884
 11  9 27  0 52  0.0000000  0 10G02G12G29G30G15G18G25G05G26G21
 -81439510.11347 -63435046.18544  22747006.0474                   22747005.8054
 -57861850.87947 -45063126.74144  23740857.3054                   23740859.4384
 -40577613.73048 -31597076.26747  20582640.6644                   20582640.7034
 -25145819.96947 -19571245.62945  22838805.8284                   22838807.1724
 -17984119.76247 -13990701.77045  22026110.7114                   22026111.5944
   -774856.37146   -581617.08643  23688826.3524                   23688828.1294
 -45526710.07847 -35450638.69445  22586628.6484                   22586631.9304
 -61044291.51648 -47542332.17446  21631862.3284                   21631861.7304
 -28573307.23447 -22246958.02745  21486534.8364                   21486534.8984
  -5972464.85947  -4639472.01644  24007630.2424                   24007630.9144
 11  9 27  0 52 30.0000000  0 10G02G12G29G30G15G18G25G05G26G21
 -81486208.70347 -63471434.66145  22738120.1024                   22738119.0434
 -57867579.82047 -45067590.85644  23739767.2894                   23739770.5234
 -40726634.18448 -31713196.03047  20554283.1564                   20554282.9734
 -25208033.75047 -19619723.84945  22826966.3594                   22826967.9344
 -18169706.40247 -14135314.61645  21990794.8674                   21990795.0944
   -956145.81246   -722881.44043  23654328.5784                   23654328.8634
 -45556630.07447 -35473952.98545  22580934.4924                   22580937.8054
 -61069686.85548 -47562120.71646  21627029.3284                   21627029.1374
 -28725768.07848 -22365758.58145  21457522.6254                   21457522.3284
  -6133269.46147  -4764774.15144  23977030.6024                   23977029.5164
 11  9 27  0 53  0.0000000  0 10G02G12G29G30G15G18G25G05G26G21
 -79957331.98447 -62280102.15744  23029055.9144                   23029054.4534
 -56297862.07447 -43844434.26944  24038475.4144                   24038477.4804
 -39299796.45748 -30601374.36147  20825801.1884                   20825800.9184
 -23694349.30947 -18440229.48244  23115010.1724                   23115012.7344
 -16779551.90647 -13052077.21445  22255332.6094                   22255332.7034
    438239.53146    363652.82043  23919671.0634                   23919671.8914
 -44010830.16047 -34269433.56645  22875090.6884                   22875094.4264
 -59519416.41448 -46354117.74246  21922035.9694                   21922035.6294
 -27302216.92647 -21256497.83845  21728414.5944                   21728414.9494
  -4718650.10547  -3662473.23644  24246223.4384                   24246224.1804
 11  9 27  0 53 30.0000000  0 10G02G12G29G30G15G18G25G05G26G21
 -80003723.80947 -62316251.60845  23020227.6884                   23020226.3094
 -56303541.98046 -43848860.20844  24037394.0944                   24037397.5394
 -39447949.31648 -30716818.07347  20797608.9844                   20797608.3054
 -23755614.47347 -18487968.52744  23103352.7114                   23103353.8554
 -16964506.68747 -13196197.67945  22220136.7034                   22220137.0704
    257447.32046    222775.95443  23885267.6334                   23885267.7664
 -44040156.57447 -34292285.34245  22869510.0084                   22869513.2424
 -59544325.38748 -46373527.30346  21917296.4064                   21917296.2504
 -27453502.46547 -21374382.56845  21699625.8594                   21699626.1214
  -4879459.03547  -3787778.74144  24215622.6724                   24215622.5394
 11  9 27  0 54  0.0000000  0 10G02G12G29G30G15G18G25G05G26G21
 -80049961.62547 -62352281.06444  23011428.6254                   23011427.6334
 -56309201.69546 -43853270.39344  24036317.0164                   24036320.4964
 -39595665.33248 -30831921.39047  20769499.0554                   20769498.6484
 -23816409.25847 -18535341.04044  23091782.9304                   23091785.6174
 -17149141.24647 -13340068.64645  22185001.7194                   22185002.0274
     76904.52746     82093.50143  23850910.1414                   23850911.5744
 -44069191.08247 -34314909.65145  22863984.9064                   22863988.2854
 -59568995.37148 -46392750.66646  21912601.5084                   21912601.5434
 -27604196.23047 -21491806.17945  21670950.0784                   21670950.4414
  -5040270.63347  -3913086.33844  24185020.7344                   24185019.8484
 11  9 27  0 54 30.0000000  0 10G02G12G29G30G15G18G25G05G26G21
 -80096044.67647 -62388189.89344  23002659.3674                   23002658.0864
 -56314843.55947 -43857666.70344  24035243.1174                   24035245.9884
 -39742941.91048 -30946682.27647  20741473.3054                   20741472.9384
 -23876735.85547 -18582348.76344  23080303.7814                   23080305.7464
 -17333452.09447 -13483687.35345  22149928.4064                   22149928.3874
   -103387.45746    -58393.66943  23816602.1024                   23816603.8754
 -44097936.34847 -34337308.57245  22858515.1024                   22858518.1764
 -59593427.58648 -46411788.73646  21907951.9064                   21907951.9694
 -27754295.37947 -21608766.46845  21642386.7424                   21642387.4184
  -5201084.87947  -4038395.98044  24154419.0704                   24154417.8014
 11  9 27  0 55  0.0000000  0 10G02G12G29G30G15G18G25G05G26G21
 -80141972.66447 -62423977.90545  22993919.1334                   22993918.4694
 -56320470.62547 -43862051.44044  24034172.2664                   24034175.5984
 -39889776.82848 -31061099.01746  20713531.0084                   20713531.1334
 -23936596.49647 -18628993.38644  23068913.1414                   23068915.0354
 -17517436.03547 -13627051.32245  22114917.1174                   22114917.8914
   -283427.32446   -198684.19643  23782341.8754                   23782342.2894
 -44126395.34047 -34359484.40745  22853099.7584                   22853102.7544
 -59617624.58248 -46430643.51646  21903347.7894                   21903347.6684
 -27903796.82047 -21725260.97845  21613937.6174                   21613937.8204
  -5361901.71147  -4163707.65844  24123816.1804                   24123815.6764
 11  9 27  0 55 30.0000000  0 10G02G12G29G30G15G18G25G05G26G21
 -80187745.41847 -62459644.93245  22985209.4064                   22985208.3404
 -56326085.91447 -43866427.05544  24033104.2274                   24033107.4414
 -40036168.25448 -31175170.16746  20685674.1724                   20685673.7194
 -23995993.98447 -18675277.14944  23057609.4534                   23057611.3204
 -17701090.43448 -13770158.52045  22079968.7814                   22079968.8874
   -463214.97346   -338778.23944  23748128.6334                   23748130.3484
 -44154571.35247 -34381439.75945  22847737.4534                   22847741.5124
 -59641589.04348 -46449317.08646  21898787.3284                   21898787.2074
 -28052697.90647 -21841287.66545  21585602.7424                   21585603.2464
  -5522721.67647  -4289021.80644  24093213.6094                   24093212.1914
 11  9 27  0 56  0.0000000  0 10G02G12G29G30G15G18G25G05G26G21
 -80233363.43747 -62495191.39345  22976528.2344                   22976527.1484
 -56331693.13347 -43870796.34444  24032037.2734                   24032040.4144
 -40182114.58648 -31288894.50646  20657900.9924                   20657900.8444
 -24054931.64847 -18721202.56544  23046393.9304                   23046395.7194
 -17884413.08248 -13913007.21245  22045083.7114                   22045083.5274
   -642750.40246   -478675.78643  23713964.9384                   23713965.0274
 -44182468.42647 -34403177.75345  22842429.1094                   22842432.6884
 -59665324.06248 -46467811.87646  21894270.5474                   21894270.8094
 -28200997.23847 -21956845.49945  21557382.3444                   21557382.1884
  -5683545.79347  -4414339.19344  24062609.2894                   24062608.5904
 11  9 27  0 56 30.0000000  0 10G02G12G29G30G15G18G25G05G26G21
 -80278826.02047 -62530616.74244  22967876.7664                   22967876.2544
 -56337295.03947 -43875161.54544  24030970.6884                   24030973.8954
 -40327614.01648 -31402270.60846  20630213.8754                   20630213.0554
 -24113412.11347 -18766771.73444  23035265.1484                   23035267.7034
 -18067401.07448 -14055595.13245  22010261.9844                   22010262.3524
   -822032.45346   -618375.90743  23679847.6334                   23679848.7814
 -44210089.57447 -34424700.74045  22837172.6884                   22837176.5984
 -59688831.97347 -46486129.69546  21889797.0704                   21889796.8164
 -28348692.16048 -22071932.33345  21529276.8364                   21529276.8984
  -5844374.40647  -4539660.05744  24032004.4304                   24032004.0984
 11  9 27  0 57  0.0000000  0 10G02G12G29G30G15G18G25G05G26G21
 -80324132.50047 -62565920.42444  22959254.8754                   22959254.3444
 -56342893.70347 -43879524.16944  24029905.5004                   24029908.9184
 -40472663.86348 -31515296.38347  20602611.5784                   20602610.8594
 -24171437.18047 -18811986.05044  23024223.4384                   23024225.8054
 -18250050.53548 -14197919.25545  21975504.7584                   21975505.3754
  -1001059.83246   -757877.51944  23645779.8204                   23645781.0314
 -44237437.39147 -34446010.71945  22831968.3754                   22831972.8054
 -59712114.34447 -46504271.77346  21885366.3284                   21885365.9064
 -28495779.29347 -22186545.57145  21501286.6174                   21501286.9144
  -6005207.03947  -4664984.09444  24001399.0784                   24001399.5044
 11  9 27  0 57 30.0000000  0 10G02G12G29G30G15G18G25G05G26G21
 -80369284.59047 -62601103.83544  22950662.9614                   22950662.5864
 -56348494.36747 -43883888.30244  24028839.9064                   24028842.8014
 -40617263.84048 -31627971.60746  20575094.5234                   20575094.1954
 -24229011.73847 -18856849.33844  23013268.0164                   23013269.5984
 -18432360.82848 -14339979.12045  21940812.5474                   21940812.6524
  -1179833.85946   -897181.73143  23611759.9694                   23611761.3984
 -44264517.09047 -34467111.80245  22826815.8284                   22826819.2854
 -59735175.34447 -46522241.36046  21880978.3204                   21880978.1414
 -28642258.20347 -22300684.87445  21473412.5474                   21473412.9614
  -6166045.83647  -4790312.96644  23970792.2664                   23970793.2664
 11  9 27  0 58  0.0000000  0 10G02G12G29G30G15G18G25G05G26G21
 -80414280.14847 -62636165.26544  22942100.3754                   22942099.9614
 -56354098.31247 -43888255.02144  24027773.5864                   24027776.2894
 -40761410.79348 -31740293.82647  20547664.5314                   20547664.0164
 -24286136.97747 -18901362.47544  23002396.3524                   23002399.2194
 -18614327.36348 -14481771.09746  21906185.1884                   21906185.3984
  -1358352.32047  -1036286.81443  23577788.9304                   23577790.7664
 -44291330.35247 -34488005.25245  22821713.4924                   22821717.3954
 -59758016.50847 -46540039.64746  21876632.0314                   21876632.0864
 -28788124.87547 -22414347.10746  21445655.3284                   21445655.3794
  -6326889.41847  -4915645.52244  23940184.5394                   23940184.6484
 11  9 27  0 58 30.0000000  0 10G02G12G29G30G15G18G25G05G26G21
 -80459119.80147 -62671105.22544  22933567.6334                   22933567.1644
 -56359709.02347 -43892627.07744  24026706.3914                   24026709.7034
 -40905103.21948 -31852261.87047  20520321.0634                   20520320.0634
 -24342816.00847 -18945527.96544  22991611.3594                   22991613.3634
 -18795947.85248 -14623293.42145  21871623.9144                   21871623.8954
  -1536615.30946  -1175192.81043  23543866.1174                   23543868.2504
 -44317880.97747 -34508694.05245  22816660.9454                   22816664.6374
 -59780640.78547 -46557668.94246  21872327.0784                   21872326.5824
 -28933377.64547 -22527530.98745  21418014.4064                   21418014.4844
  -6487738.99647  -5040982.75944  23909576.0004                   23909575.9774
 11  9 27  0 59  0.0000000  0 10G02G12G29G30G15G18G25G05G26G21
 -80503803.82847 -62705923.90444  22925065.1954                   22925064.4344
 -56365330.31647 -43897007.28344  24025636.9774                   24025638.9344
 -41048339.93048 -31963874.81546  20493063.6724                   20493062.8714
 -24399052.54347 -18989348.61044  22980909.7424                   22980912.0664
 -18977220.19948 -14764544.49345  21837129.1414                   21837129.3754
  -1714622.61347  -1313899.53643  23509992.6414                   23509994.2424
 -44344173.03947 -34529181.36145  22811657.4844                   22811661.0474
 -59803051.02747 -46575131.43446  21868062.0234                   21868061.6254
 -29078014.77347 -22640235.14845  21390490.3834                   21390490.6094
  -6648595.60547  -5166325.47244  23878965.6564                   23878966.3054
 11  9 27  0 59 30.0000000  0 10G02G12G29G30G15G18G25G05G26G21
 -80548330.75047 -62740620.20244  22916591.3204                   22916590.7304
 -56370963.71547 -43901396.92144  24024564.5634                   24024566.9694
 -41191117.31248 -32075129.83047  20465894.2114                   20465893.1054
 -24454847.78147 -19032825.42744  22970292.2504                   22970294.1414
 -19158139.93748 -14905520.77046  21802701.1024                   21802700.7074
  -1892372.57847  -1452405.75644  23476167.5554                   23476168.9064
 -44370208.23847 -34549468.52445  22806703.8594                   22806707.2274
 -59825248.29747 -46592427.96246  21863837.9454                   21863838.0704
 -29222032.53547 -22752456.68045  21363085.0164                   21363085.1374
  -6809457.94147  -5291672.65744  23848354.7194                   23848354.4104
 11  9 27  1  0  0.0000000  0 10G02G12G29G30G15G18G25G05G26G21
 -80592701.28547 -62775194.62044  22908148.4844                   22908147.9304
 -56376613.06647 -43905799.04444  24023489.2584                   24023492.4614
 -41333434.66448 -32186026.36947  20438812.0234                   20438811.1214
 -24510205.46947 -19075961.27944  22959758.2274                   22959760.0664
 -19338705.35248 -15046220.98846  21768340.3284                   21768340.0664
  -2069865.51647  -1590711.65144  23442391.8594                   23442393.3524
 -44395990.90647 -34569558.90645  22801797.1804                   22801800.6954
 -59847235.85247 -46609561.10146  21859653.4694                   21859654.2704
 -29365429.18447 -22864194.24345  21335797.0864                   21335797.7704
  -6970327.40247  -5417025.37044  23817741.9694                   23817741.7664
 11  9 27  1  0 30.0000000  0 10G02G12G29G30G15G18G25G05G26G21
 -80636914.03947 -62809646.07544  22899735.1094                   22899733.9924
 -56382279.92646 -43910214.80843  24022411.1254                   24022414.2304
 -41475289.10247 -32296562.22047  20411817.7894                   20411816.5984
 -24565127.48047 -19118757.62344  22949307.2814                   22949308.0314
 -19518912.66448 -15186642.13046  21734048.0394                   21734048.2504
  -2247099.80547  -1728816.02344  23408665.6564                   23408666.6134
 -44421523.31647 -34589454.30745  22796938.3914                   22796942.0824
 -59869015.20347 -46626532.00346  21855509.6484                   21855509.6374
 -29508201.72747 -22975445.48945  21308628.7274                   21308628.9104
  -7131203.12547  -5542382.97844  23787127.8444                   23787127.7894
 11  9 27  1  1  0.0000000  0 10G02G12G29G30G15G18G25G05G26G21
 -79105550.21947 -61616375.52944  23191143.9774                   23191142.6644
 -54812550.31646 -42687048.88743  24321120.7584                   24321123.5234
 -40041256.94947 -31179134.48747  20684704.8284                   20684703.9304
 -23044197.52747 -17933617.36744  23238730.4614                   23238732.0904
 -18123335.90248 -14099179.59546  21999617.4224                   21999617.0274
   -848651.62147   -639115.87644  23674780.9774                   23674781.4414
 -42871390.65647 -33381558.69445  23091918.7424                   23091922.5314
 -58315170.69547 -45415744.05346  22151196.1174                   22151196.3874
 -28074925.88747 -21858607.06945  21581372.3444                   21581372.0514
  -5716662.83647  -4440143.70444  24056306.7114                   24056306.0044
 11  9 27  1  1 30.0000000  0 10G02G12G29G30G15G18G25G05G26G21
 -79149450.81647 -61650583.72844  23182789.5634                   23182789.6564
 -54818265.72347 -42691502.43444  24320033.1954                   24320035.8054
 -40182183.90648 -31288947.62047  20657887.4694                   20657886.3324
 -23098260.64847 -17975744.43344  23228442.2194                   23228444.0514
 -18302822.83648 -14239039.42046  21965461.8054                   21965462.2894
  -1025370.74247   -776818.82544  23641151.5234                   23641152.4694
 -42896436.37547 -33401074.84445  23087152.9534                   23087156.0354
 -58336544.70747 -45432399.10646  22147129.0314                   22147128.9734
 -28216447.50847 -21968883.57145  21554441.1174                   21554441.1334
  -5877556.13347  -4565514.97744  24025689.1094                   24025689.3874
 11  9 27  1  2  0.0000000  0 10G02G12G29G30G15G18G25G05G26G21
 -79193193.74247 -61684669.09444  23174465.3594                   23174465.4654
 -54824008.35946 -42695977.26444  24318939.7504                   24318942.4694
 -40322643.30948 -31398396.44747  20631158.9844                   20631158.4104
 -23151897.48047 -18017539.35044  23218235.6564                   23218237.4304
 -18481944.03148 -14378614.26146  21931376.5394                   21931376.4774
  -1201830.25847   -914319.47944  23607572.6024                   23607573.7584
 -42921242.68047 -33420404.38545  23082431.8754                   23082436.2234
 -58357718.91447 -45448898.47246  22143099.6334                   22143100.0234
 -28357339.11347 -22078669.14045  21527629.9774                   21527630.2464
  -6038457.45347  -4690892.53144  23995070.7584                   23995070.3094
 11  9 27  1  2 30.0000000  0 10G02G12G29G30G15G18G25G05G26G21
 -79236778.84047 -61718631.44144  23166172.1414                   23166170.5434
 -54829781.46546 -42700475.83344  24317841.7974                   24317844.8014
 -40462633.12548 -31507479.34647  20604519.7194                   20604518.6914
 -23205110.69146 -18059004.15544  23208109.4384                   23208110.9964
 -18660696.65648 -14517901.90246  21897360.8674                   21897360.5824
  -1378029.61347  -1051617.40844  23574042.1414                   23574043.7854
 -42945812.52347 -33439549.70145  23077756.8594                   23077759.6764
 -58378695.41447 -45465243.75846  22139108.0704                   22139107.8594
 -28497598.32047 -22187961.93045  21500940.2274                   21500940.1174
  -6199366.90647  -4816276.40844  23964450.7584                   23964450.4454
 11  9 27  1  3  0.0000000  0 10G02G12G29G30G15G18G25G05G26G21
 -79280205.09047 -61752470.03444  23157907.6174                   23157907.3364
 -54835586.98847 -42704999.59344  24316737.6804                   24316739.7624
 -40602150.66448 -31616194.24547  20577970.4694                   20577969.3954
 -23257902.41447 -18100140.48844  23198063.4534                   23198064.8984
 -18839077.14548 -14656899.55246  21863415.9064                   21863415.9224
  -1553967.46547  -1188711.58243  23540562.8284                   23540564.0004
 -42970148.44547 -33458512.74845  23073125.5474                   23073129.3364
 -58399475.70747 -45481436.16346  22135153.6334                   22135153.3674
 -28637222.46948 -22296759.86445  21474370.1724                   21474369.8094
  -6360284.16047  -4941666.38044  23933829.0394                   23933828.7854
 11  9 27  1  3 30.0000000  0 10G02G12G29G30G15G18G25G05G26G21
 -79323474.79347 -61786186.62944  23149673.6174                   23149672.8244
 -54841430.37146 -42709552.89944  24315624.9694                   24315628.1724
 -40741196.77748 -31724541.80747  20551510.5394                   20551510.0554
 -23310278.33247 -18140952.85344  23188097.2664                   23188098.4574
 -19017085.46148 -14795607.21846  21829541.7504                   21829542.0664
  -1729645.93047  -1325603.63643  23507131.7274                   23507132.9024
 -42994256.57447 -33477298.28845  23068537.8834                   23068542.0044
 -58420065.01647 -45497479.74446  22131235.1334                   22131234.9454
 -28776211.65248 -22405063.04346  21447921.1724                   21447921.0744
  -6521211.94947  -5067064.52944  23903205.1024                   23903204.7734
 11  9 27  1  4  0.0000000  0 10G02G12G29G30G15G18G25G05G26G21
 -79366585.16047 -61819779.06744  23141470.1954                   23141469.1914
 -54847311.84447 -42714135.91844  24314506.1334                   24314509.1564
 -40879767.09848 -31832518.60947  20525141.6254                   20525140.9144
 -23362238.63747 -18181441.35644  23178209.3984                   23178210.1174
 -19194716.18448 -14934020.63946  21795740.0004                   21795739.6524
  -1905061.95747  -1462291.21644  23473751.4304                   23473751.9654
 -43018137.51247 -33495906.80445  23063993.7114                   23063997.8874
 -58440462.93447 -45513374.20246  22127353.7114                   22127353.5784
 -28914561.61348 -22512868.10846  21421593.9694                   21421594.0124
  -6682148.30147  -5192469.37444  23872579.8834                   23872579.9534
 11  9 27  1  4 30.0000000  0 10G02G12G29G30G15G18G25G05G26G21
 -79409536.45347 -61853247.57244  23133296.8834                   23133295.6804
 -54853234.97747 -42718751.37044  24313379.1024                   24313381.8834
 -41017860.46548 -31940123.77947  20498863.0634                   20498862.9024
 -23413786.72347 -18221608.65444  23168400.1414                   23168401.0394
 -19371967.19948 -15072138.19146  21762010.2424                   21762009.7074
  -2080215.42647  -1598774.17044  23440420.2194                   23440421.3014
 -43041795.05947 -33514341.26645  23059491.6414                   23059495.5944
 -58460672.31647 -45529121.74446  22123508.1884                   22123508.0984
 -29052270.62948 -22620173.73946  21395388.7424                   21395388.9924
  -6843093.55946  -5317881.18944  23841953.1094                   23841953.2114
 11  9 27  1  5  0.0000000  0 10G02G12G29G30G15G18G25G05G26G21
 -79452331.73047 -61886594.48644  23125153.7344                   23125152.2234
 -54859205.74247 -42723403.93144  24312242.7194                   24312245.9024
 -41155478.22748 -32047358.35047  20472675.5314                   20472674.8164
 -23464928.94147 -18261459.65144  23158667.9304                   23158667.9574
 -19548838.95748 -15209960.20646  21728352.4534                   21728352.1884
  -2255109.15647  -1735054.82044  23407139.0314                   23407139.8134
 -43065235.74647 -33532606.71945  23055030.9614                   23055034.9224
 -58480698.40247 -45544726.46546  22119697.2344                   22119697.0514
 -29189339.85247 -22726980.81445  21369305.8364                   21369305.0984
  -7004051.27346  -5443302.68344  23811323.6564                   23811324.4494
 11  9 27  1  5 30.0000000  0 10G02G12G29G30G15G18G25G05G26G21
 -79494969.38747 -61919818.61544  23117039.6414                   23117038.1884
 -54865225.92647 -42728094.99744  24311096.6804                   24311099.6914
 -41292617.00047 -32154219.67647  20446578.8594                   20446577.8634
 -23515666.60547 -18300995.46044  23149012.7584                   23149013.9534
 -19725327.07448 -15347483.30746  21694767.5944                   21694767.8324
  -2429741.52747  -1871131.79444  23373907.3364                   23373908.1604
 -43088461.40647 -33550704.63144  23050611.5394                   23050615.9184
 -58500542.96147 -45560189.74146  22115921.0864                   22115920.8284
 -29325765.66447 -22833286.55146  21343344.2114                   21343344.0904
  -7165020.54347  -5568733.18644  23780692.7424                   23780692.4494
 11  9 27  1  6  0.0000000  0 10G02G12G29G30G15G18G25G05G26G21
 -79537447.28547 -61952918.23844  23108956.2814                   23108954.6954
 -54871296.37146 -42732825.26344  24309941.1484                   24309945.4694
 -41429273.64548 -32260705.32147  20420573.6254                   20420573.0664
 -23566001.09447 -18340217.08444  23139434.8914                   23139434.9024
 -19901426.94147 -15484703.84446  21661256.8754                   21661256.4184
  -2604110.16446  -2007003.25144  23340726.0394                   23340726.6214
 -43111473.74247 -33568636.31545  23046232.5084                   23046236.8284
 -58520206.27747 -45575511.77345  22112178.9144                   22112178.9694
 -29461544.56647 -22939088.18945  21317506.7194                   21317506.3134
  -7325999.68747  -5694171.36944  23750059.1804                   23750059.2544
 11  9 27  1  6 30.0000000  0 10G02G12G29G30G15G18G25G05G26G21
 -79579765.69147 -61985893.57544  23100902.8444                   23100902.0594
 -54877420.43446 -42737597.25143  24308775.7584                   24308779.1684
 -41565446.37548 -32366813.89447  20394660.8444                   20394660.2774
 -23615935.69947 -18379127.10644  23129932.2974                   23129932.5514
 -20077136.66448 -15621620.39846  21627820.3674                   21627819.5704
  -2778214.75447  -2142668.98143  23307594.9924                   23307595.0944
 -43134276.32847 -33586404.58245  23041893.6094                   23041897.6564
 -58539690.98447 -45590694.62745  22108471.6564                   22108470.9454
 -29596674.84448 -23044384.42246  21291791.9614                   21291791.7624
  -7486989.25447  -5819617.64544  23719423.7274                   23719423.1644
 11  9 27  1  7  0.0000000  0 10G02G12G29G30G15G18G25G05G26G21
 -79621925.36746 -62018745.21544  23092880.2734                   23092879.3794
 -54883601.49646 -42742413.71243  24307599.7194                   24307603.7894
 -41701134.68048 -32472544.98047  20368840.3204                   20368839.5664
 -23665474.33647 -18417728.63844  23120505.6094                   23120505.6724
 -20252454.40248 -15758231.48846  21594458.1024                   21594457.9414
  -2952056.02047  -2278129.51944  23274514.3204                   23274514.9694
 -43156873.44147 -33604012.71145  23037593.0784                   23037596.8874
 -58559000.37547 -45605740.87545  22104796.7034                   22104796.8094
 -29731155.70748 -23149174.61946  21266201.5944                   21266200.9774
  -7647990.25047  -5945072.84244  23688786.5394                   23688785.4844
 11  9 27  1  7 30.0000000  0 10G02G12G29G30G15G18G25G05G26G21
 -79663927.79346 -62051474.33444  23084887.5864                   23084886.8634
 -54889844.11746 -42747278.12543  24306412.0704                   24306415.5514
 -41836338.45748 -32577898.52147  20343111.3594                   20343111.0474
 -23714621.66447 -18456025.20644  23111152.8364                   23111153.1024
 -20427379.13748 -15894536.35346  21561171.1174                   21561170.4304
  -3125635.33247  -2413385.94144  23241482.2114                   23241483.5394
 -43179270.04747 -33621464.61945  23033331.0784                   23033335.1884
 -58578138.50047 -45620653.68245  22101154.8204                   22101154.6294
 -29864986.58248 -23253458.32846  21240733.9064                   21240733.4304
  -7809005.04747  -6070538.78644  23658145.8134                   23658145.1724
 11  9 27  1  8  0.0000000  0 10G02G12G29G30G15G18G25G05G26G21
 -79705772.83246 -62084080.82644  23076924.8204                   23076923.4414
 -54896151.85246 -42752193.26843  24305210.3284                   24305215.2194
 -41971056.20747 -32682873.33647  20317475.7894                   20317474.8984
 -23763380.92647 -18494019.47244  23101874.7664                   23101874.6644
 -20601908.37947 -16030533.03146  21527959.3674                   21527959.0394
  -3298951.91447  -2548437.69244  23208502.3984                   23208502.0984
 -43201469.61347 -33638763.01045  23029106.7664                   23029110.3054
 -58597108.05547 -45635435.10645  22097545.0314                   22097544.4884
 -29998165.98047 -23357234.40246  21215390.9224                   21215390.3014
  -7970033.80147  -6196015.59744  23627502.7034                   23627500.9654
 11  9 27  1  8 30.0000000  0 10G02G12G29G30G15G18G25G05G26G21
 -78172036.08246 -60888961.23344  23368785.0474                   23368783.4224
 -53327104.08646 -41529558.67743  24603791.3674                   24603795.6374
 -40529859.19948 -31559862.62447  20591726.0084                   20591725.5204
 -22236330.85247 -17304110.23844  23392461.7424                   23392462.8444
 -19200610.83647 -14938612.75046  21794617.1334                   21794616.6764
  -1896577.36746  -1455678.14344  23475364.8984                   23475365.4884
 -41648052.05947 -32428307.77145  23324712.7894                   23324716.1054
 -57040488.02347 -44422484.41346  22393760.4534                   22393759.1134
 -28555264.97347 -22232895.85446  21489965.8204                   21489964.8794
  -6555648.46147  -5093896.99644  23896651.3594                   23896650.5354
 11  9 27  1  9  0.0000000  0 10G02G12G29G30G15G18G25G05G26G21
 -78213560.88346 -60921318.19044  23360883.1884                   23360881.6644
 -53333544.68046 -41534577.39843  24602566.3834                   24602570.2934
 -40663594.80947 -31664072.13047  20566277.5944                   20566276.2274
 -22284318.02047 -17341502.83944  23383330.2894                   23383331.4264
 -19374336.01248 -15073982.90046  21761558.5314                   21761558.1564
  -2069362.95747  -1590316.10044  23442484.7894                   23442484.5864
 -41669862.54747 -32445302.92645  23320562.1644                   23320565.6414
 -57059122.32847 -44437004.61945  22390214.1414                   22390213.8554
 -28687130.72747 -22335648.29746  21464872.2814                   21464871.7074
  -6716700.38746  -5219391.87944  23866004.1174                   23866004.0904
 11  9 27  1  9 30.0000000  0 10G02G12G29G30G15G18G25G05G26G21
 -78254928.02746 -60953552.27244  23353010.7974                   23353009.4414
 -53340058.72746 -41539653.24643  24601325.6884                   24601329.4344
 -40796839.82448 -31767899.35147  20540921.7274                   20540920.5124
 -22331926.45347 -17378600.28644  23374270.5394                   23374271.8794
 -19547657.73848 -15209038.67846  21728576.5234                   21728576.1764
  -2241885.37147  -1724749.03344  23409654.3834                   23409655.1054
 -41691486.22747 -32462152.56745  23316447.6094                   23316451.2934
 -57077594.83247 -44451398.75045  22386699.1094                   22386697.8444
 -28818339.77747 -22437889.03246  21439904.0164                   21439903.4964
  -6877767.19947  -5344898.34144  23835354.1484                   23835353.3134
 11  9 27  1 10  0.0000000  0 10G02G12G29G30G15G18G25G05G26G21
 -78296134.19146 -60985660.96644  23345170.0554                   23345168.3244
 -53346645.79546 -41544786.06243  24600073.0004                   24600076.4264
 -40929589.08248 -31871340.27047  20515660.2584                   20515659.0434
 -22379156.22747 -17415402.73744  23365284.1884                   23365284.1054
 -19720570.83247 -15343776.03746  21695671.8834                   21695671.5274
  -2414140.96146  -1858974.01144  23376875.3984                   23376875.4924
 -41712923.46147 -32478856.91845  23312368.1884                   23312371.8914
 -57095904.94547 -44465666.34345  22383214.4924                   22383214.4614
 -28948887.42648 -22539614.39746  21415061.5394                   21415060.9774
  -7038846.05546  -5470414.19344  23804701.6174                   23804700.7734
 11  9 27  1 10 30.0000000  0 10G02G12G29G30G15G18G25G05G26G21
 -78337182.50446 -61017646.66244  23337358.2584                   23337357.3874
 -53353312.52346 -41549980.96343  24598804.5704                   24598807.4574
 -41061844.56248 -31974396.42547  20490493.2274                   20490491.5124
 -22426013.46547 -17451914.87644  23356366.8834                   23356367.8594
 -19893075.43747 -15478195.11146  21662845.6024                   21662844.5864
  -2586132.36746  -1992993.13044  23344146.2664                   23344146.6914
 -41734180.56647 -32495420.89545  23308323.0314                   23308326.5704
 -57114058.07047 -44479811.63045  22379760.1564                   22379759.8204
 -29078774.87947 -22640825.31246  21390344.8834                   21390344.2734
  -7199939.85246  -5595941.72244  23774046.4144                   23774046.2344
 11  9 27  1 11  0.0000000  0 10G02G12G29G30G15G18G25G05G26G21
 -78378068.54746 -61049505.90344  23329578.7424                   23329577.0354
 -53360057.22346 -41555236.67443  24597520.9144                   24597523.8164
 -41193600.25448 -32077063.14147  20465420.3984                   20465419.1254
 -22472497.08247 -17488135.87544  23347521.7194                   23347522.8204
 -20065164.89548 -15612290.68246  21630097.8984                   21630096.9344
  -2757855.39147  -2126803.16444  23311468.4774                   23311468.8094
 -41755256.74247 -32511843.88545  23304311.7664                   23304315.3134
 -57132052.63347 -44493833.35945  22376335.5944                   22376334.9774
 -29207996.50047 -22741517.40146  21365754.4844                   21365754.0664
  -7361045.03146  -5721478.07044  23743388.8754                   23743388.8754
 11  9 27  1 11 30.0000000  0 10G02G12G29G30G15G18G25G05G26G21
 -78418794.11346 -61081240.06544  23321828.6884                   23321826.7854
 -53366884.63746 -41560556.83543  24596222.4064                   24596224.5434
 -41324856.69548 -32179340.83347  20440443.3054                   20440442.1294
 -22518612.29747 -17524069.81044  23338745.8674                   23338747.2274
 -20236838.54348 -15746062.25246  21597429.3054                   21597428.9574
  -2929311.65647  -2260405.29044  23278840.7664                   23278841.2934
 -41776157.35947 -32528130.09045  23300334.7894                   23300338.3594
 -57149893.10247 -44507734.98845  22372940.6884                   22372940.1724
 -29336552.58648 -22841690.89346  21341291.0944                   21341290.2464
  -7522163.71546  -5847024.99244  23712728.6484                   23712727.7624
 11  9 27  1 12  0.0000000  0 10G02G12G29G30G15G18G25G05G26G21
 -78459356.03946 -61112846.73144  23314110.3134                   23314108.6214
 -53373794.55546 -41565941.20744  24594907.8984                   24594910.9064
 -41455609.71548 -32281226.23947  20415561.5704                   20415560.3834
 -22564359.27047 -17559716.77544  23330039.9694                   23330041.8014
 -20408091.00448 -15879505.63146  21564841.1024                   21564840.0354
  -3100497.77747  -2393796.95144  23246265.7034                   23246265.9494
 -41796882.85247 -32544279.85744  23296390.7734                   23296394.3324
 -57167578.62547 -44521515.88645  22369575.0164                   22369574.6884
 -29464438.32848 -22941342.04345  21316955.3834                   21316954.4574
  -7683293.35246  -5972580.43644  23682067.1484                   23682066.0434
 11  9 27  1 12 30.0000000  0 10G02G12G29G30G15G18G25G05G26G21
 -78499756.99646 -61144327.99344  23306421.7584                   23306420.6294
 -53380792.60246 -41571394.36343  24593576.3134                   24593578.7814
 -41585859.98448 -32382719.89347  20390775.6724                   20390774.6174
 -22609743.96947 -17595081.45544  23321403.5944                   23321405.6174
 -20578922.62948 -16012621.08046  21532332.4454                   21532331.9414
  -3271416.61347  -2526980.27844  23213740.4144                   23213741.1954
 -41817439.39547 -32560297.96545  23292479.8134                   23292482.2194
 -57185114.30547 -44535180.03945  22366238.0474                   22366238.1134
 -29591655.30948 -23040472.05445  21292746.5084                   21292745.9964
  -7844436.79746  -6098146.60744  23651401.9454                   23651401.3554
 11  9 27  1 13  0.0000000  0 10G02G12G29G30G15G18G25G05G26G21
 -78539996.84846 -61175683.71944  23298764.5634                   23298762.9494
 -53387881.41846 -41576918.12844  24592226.7734                   24592229.7384
 -41715606.16048 -32483820.74647  20366086.0084                   20366084.9534
 -22654769.26647 -17630166.09344  23312836.2664                   23312836.9344
 -20749330.39548 -16145406.25746  21499905.1884                   21499904.4024
  -3442067.05947  -2659954.48844  23181266.9384                   23181267.0514
 -41837830.10547 -32576186.81744  23288598.2034                   23288602.0784
 -57202501.94947 -44548728.80545  22362929.5164                   22362928.3404
 -29718201.63348 -23139079.48846  21268665.2504                   21268664.8244
  -8005593.96947  -6223723.51444  23620735.2894                   23620734.2114
 11  9 27  1 13 30.0000000  0 10G02G12G29G30G15G18G25G05G26G21
 -78580072.53146 -61206911.49144  23291138.0084                   23291136.7194
 -53395060.87946 -41582512.57844  24590860.9454                   24590864.1054
 -41844843.84048 -32584525.37047  20341492.7344                   20341491.9574
 -22699435.68447 -17664971.11344  23304336.0944                   23304337.8324
 -20919309.55547 -16277857.45246  21467559.5394                   21467558.1094
  -3612446.69547  -2792717.71244  23148844.6254                   23148845.0354
 -41858055.50847 -32591946.91444  23284750.0944                   23284753.2384
 -57219741.39847 -44562162.11645  22359648.6804                   22359648.1094
 -29844073.03948 -23237161.01546  21244712.7664                   21244712.3794
  -8166762.21547  -6349309.01844  23590065.6644                   23590064.8444
 11  9 27  1 14  0.0000000  0 10G02G12G29G30G15G18G25G05G26G21
 -78619987.30546 -61238013.87444  23283542.9144                   23283541.6724
 -53402337.28546 -41588182.52243  24589476.0004                   24589478.4924
 -41973574.81648 -32684835.16347  20316996.1094                   20316994.5904
 -22743749.68447 -17699501.50144  23295903.0164                   23295904.5354
 -21088860.40648 -16409974.89846  21435294.2664                   21435293.5394
  -3782558.29746  -2925272.06544  23116473.6174                   23116473.5204
 -41878122.37947 -32607583.43644  23280931.5704                   23280934.2154
 -57236838.52747 -44575484.52945  22356395.6024                   22356394.7114
 -29969271.66048 -23334718.30845  21220888.3444                   21220887.7034
  -8327945.36747  -6474906.20344  23559393.0944                   23559392.5204
 11  9 27  1 14 30.0000000  0 10G02G12G29G30G15G18G25G05G26G21
 -78659739.62146 -61268989.67644  23275977.4454                   23275976.8524
 -53409712.27746 -41593929.35443  24588072.1484                   24588075.8014
 -42101796.73448 -32784748.28547  20292596.1804                   20292594.8554
 -22787713.10947 -17733758.67544  23287537.2894                   23287538.5514
 -21257979.25047 -16541755.73446  21403112.3364                   21403111.4884
  -3952400.49247  -3057616.46744  23084153.2344                   23084153.3834
 -41898032.70747 -32623098.01744  23277142.6724                   23277145.9184
 -57253794.08647 -44588696.62445  22353169.0864                   22353168.6334
 -30093794.37548 -23431748.89645  21197192.1334                   21197191.6564
  -8489142.08247  -6600513.85444  23528718.6724                   23528718.4064
 11  9 27  1 15  0.0000000  0 10G02G12G29G30G15G18G25G05G26G21
 -78699330.00447 -61299839.28444  23268444.2194                   23268443.4614
 -53417188.87546 -41599755.34843  24586649.6644                   24586652.9924
 -42229508.38348 -32884263.81947  20268293.5084                   20268292.1134
 -22831329.72747 -17767745.67144  23279237.9534                   23279238.7704
 -21426664.37147 -16673198.58246  21371012.6094                   21371012.0234
  -4121973.40647  -3189751.04544  23051884.5944                   23051884.7384
 -41917790.42247 -32638493.65944  23273382.7734                   23273386.2734
 -57270610.82447 -44601800.54745  22349968.9224                   22349968.8204
 -30217640.48447 -23528252.28945  21173625.3834                   21173624.2154
  -8650353.21546  -6726132.84944  23498040.6174                   23498039.9844
 11  9 27  1 15 30.0000000  0 10G02G12G29G30G15G18G25G05G26G21
 -78738754.72347 -61330559.81144  23260942.2734                   23260940.6804
 -53424766.12146 -41605659.79943  24585209.4534                   24585210.9264
 -42356705.23048 -32983378.19347  20244088.3204                   20244087.3754
 -22874599.25047 -17801462.18044  23271003.6414                   23271004.7544
 -21594909.51247 -16804298.58946  21338996.4534                   21338996.1484
  -4291273.61346  -3321673.14844  23019666.7894                   23019666.8284
 -41937395.37947 -32653770.27844  23269652.7034                   23269655.4344
 -57287287.41047 -44614795.28145  22346795.3054                   22346794.8444
 -30340804.95748 -23624224.52945  21150187.8364                   21150186.9694
  -8811575.08647  -6851760.20444  23467362.0864                   23467361.0824
 11  9 27  1 16  0.0000000  0 10G02G12G29G30G15G18G25G05G26G21
 -78778020.21547 -61361156.25144  23253470.4064                   23253467.9024
 -53432453.89846 -41611650.31043  24583745.7424                   24583748.6054
 -42483391.82448 -33082094.97347  20219980.9304                   20219979.6914
 -22917531.35947 -17834915.76944  23262833.1254                   23262835.3714
 -21762718.92647 -16935059.07346  21307063.0784                   21307062.4804
  -4460307.20747  -3453387.47044  22987501.3594                   22987501.5594
 -41956857.35947 -32668935.50444  23265949.3674                   23265952.5664
 -57303832.66047 -44627687.66245  22343647.0944                   22343646.2664
 -30463293.10548 -23719669.75946  21126879.0394                   21126878.0984
  -8972814.41447  -6977401.11544  23436678.8834                   23436677.7274
 11  9 27  1 16 30.0000000  0 10G02G12G29G30G15G18G25G05G26G21
 -77241702.49247 -60164025.52344  23545821.8984                   23545819.4964
 -51864831.53145 -40390126.43042  24882051.4924                   24882056.0514
 -41034139.75448 -31952807.59147  20495764.3204                   20495762.9064
 -21384705.05946 -16640505.67344  23554521.1094                   23554522.5394
 -20354661.91848 -15837871.69446  21575007.1484                   21575006.3204
  -3053645.09047  -2357286.95844  23255179.8204                   23255179.3204
 -40400756.29747 -31456389.24345  23562065.2584                   23562067.9654
 -55744825.70347 -43412877.01345  22640316.4064                   22640314.8404
 -29009676.65648 -22586981.53445  21403493.0394                   21403491.9224
  -7558643.48047  -5875449.65944  23705786.7424                   23705784.9344
 11  9 27  1 17  0.0000000  0  9G02G29G30G15G18G25G05G26G21
 -77280642.50446 -60194368.36344  23538411.1484                   23538409.7814
 -41159795.31248 -32050720.96947  20471852.6484                   20471851.5704
 -21426965.33647 -16673435.78344  23546479.1884                   23546480.3874
 -20521586.11748 -15967942.40446  21543242.6644                   21543241.5164
  -3222137.76247  -2488579.81344  23223116.6484                   23223116.7814
 -40419935.77747 -31471334.31044  23558415.6484                   23558419.1844
 -55761108.82047 -43425565.11745  22637217.6644                   22637216.7194
 -29130801.31648 -22681364.31746  21380443.7664                   21380442.8874
  -7719912.14847  -6001113.44244  23675098.0704                   23675096.6174
 11  9 27  1 17 30.0000000  0  9G02G29G30G15G18G25G05G26G21
 -77319418.72747 -60224583.59343  23531032.7504                   23531030.7074
 -41284932.19148 -32148230.16947  20448039.7974                   20448038.8134
 -21468893.70346 -16706107.27944  23538501.1024                   23538501.5434
 -20688062.93047 -16097664.49346  21511562.6804                   21511561.8634
  -3390359.24646  -2619661.31244  23191104.7974                   23191105.3404
 -40438978.05147 -31486172.51244  23554791.8594                   23554795.4534
 -55777262.91847 -43438152.70345  22634143.5234                   22634142.1724
 -29251241.69548 -22775213.88245  21357524.4304                   21357523.3954
  -7881194.15647  -6126787.63144  23644406.6024                   23644405.6844
 11  9 27  1 18  0.0000000  0  9G02G29G30G15G18G25G05G26G21
 -77358021.41446 -60254663.59444  23523686.3984                   23523685.0274
 -41409539.84048 -32245326.99147  20424327.7584                   20424326.3834
 -21510483.95747 -16738515.25544  23530586.1024                   23530587.3134
 -20854080.62148 -16227028.81746  21479970.8364                   21479969.8524
  -3558299.77747  -2750523.93644  23159147.0164                   23159146.1374
 -40457877.05947 -31500899.03345  23551194.9224                   23551199.7664
 -55793280.95747 -43450634.25645  22631095.0474                   22631094.4614
 -29370986.92248 -22868521.78945  21334737.6884                   21334736.6604
  -8042480.52047  -6252465.25044  23613714.7894                   23613714.5434
 11  9 27  1 18 30.0000000  0  9G02G29G30G15G18G25G05G26G21
 -77396447.56247 -60284606.01643  23516374.5164                   23516372.6914
 -41533613.66448 -32342007.84847  20400717.4304                   20400716.0824
 -21551735.89847 -16770659.66344  23522736.3984                   23522736.8954
 -21019633.54747 -16356031.00246  21448467.1024                   21448466.2194
  -3725955.73847  -2881164.80844  23127242.9694                   23127242.6414
 -40476632.83647 -31515513.94345  23547626.8134                   23547630.7814
 -55809161.91847 -43463009.00945  22628072.9694                   22628072.8054
 -29490032.51248 -22961284.51845  21312083.6414                   21312083.1414
  -8203768.11747  -6378143.85244  23583023.0784                   23583023.0704
 11  9 27  1 19  0.0000000  0  9G02G29G30G15G18G25G05G26G21
 -77434697.94547 -60314411.49744  23509095.1024                   23509093.6054
 -41657153.26648 -32438272.43047  20377208.5784                   20377207.1294
 -21592654.22746 -16802544.12544  23514950.5634                   23514950.4024
 -21184720.60247 -16484670.15446  21417052.0394                   21417051.6294
  -3893328.05147  -3011584.64644  23095392.6094                   23095392.8204
 -40495249.91447 -31530020.79944  23544083.8754                   23544088.0164
 -55824909.32847 -43475279.71245  22625076.5474                   22625075.7734
 -29608378.32848 -23053501.96545  21289563.6644                   21289562.6454
  -8365058.31647  -6503824.45944  23552330.8054                   23552329.1484
 11  9 27  1 19 30.0000000  0  9G02G29G30G15G18G25G05G26G21
 -77472775.18047 -60344082.07644  23501850.0394                   23501848.2274
 -41780160.55548 -32534122.21847  20353801.1414                   20353799.6684
 -21633244.63346 -16834173.00344  23507225.8524                   23507226.6644
 -21349342.04747 -16612946.49646  21385725.6644                   21385724.8204
  -4060419.52747  -3141785.66644  23063596.6724                   23063595.4104
 -40513734.30147 -31544424.24244  23540566.2194                   23540570.1214
 -55840528.17647 -43487450.23545  22622104.7344                   22622104.7074
 -29726026.26248 -23145175.60245  21267175.4774                   21267174.6484
  -8526354.34847  -6629509.65044  23521636.7194                   23521635.8484
 11  9 27  1 20  0.0000000  0  9G02G29G30G15G18G25G05G26G21
 -77510678.86747 -60373617.39044  23494636.3674                   23494635.7234
 -41902633.82848 -32629555.88847  20330495.1024                   20330493.7154
 -21673510.41046 -16865548.94844  23499563.3984                   23499564.2114
 -21513495.45748 -16740858.15646  21354487.8444                   21354487.0314
  -4227229.91847  -3271767.65644  23031853.1724                   23031853.3674
 -40532089.15247 -31558726.76845  23537073.7504                   23537077.6604
 -55856020.21147 -43499521.93245  22619156.7974                   22619155.9534
 -29842975.01248 -23236304.44045  21244920.9774                   21244919.9844
  -8687655.38347  -6755198.70744  23490942.6414                   23490941.8554
 11  9 27  1 20 30.0000000  0  9G02G29G30G15G18G25G05G26G21
 -77548412.23846 -60403020.00144  23487456.4924                   23487454.7584
 -42024575.05548 -32724574.98747  20307290.3134                   20307289.1254
 -21713457.83246 -16896676.86344  23491961.8204                   23491962.2074
 -21677181.57447 -16868405.68546  21323339.8524                   21323338.6414
  -4393762.10947  -3401532.85444  23000163.3914                   23000162.9964
 -40550320.94947 -31572933.39845  23533604.1414                   23533608.2464
 -55871390.85947 -43511499.05745  22616231.5784                   22616231.1954
 -29959226.55948 -23326889.99945  21222798.9384                   21222798.0594
  -8848964.94147  -6880894.42044  23460246.4774                   23460245.0044
 11  9 27  1 21  0.0000000  0  9G02G29G30G15G18G25G05G26G21
 -77585976.38747 -60432290.72844  23480307.7424                   23480306.2664
 -42145983.73448 -32819179.10647  20284187.3284                   20284185.8324
 -21753091.58247 -16927560.31544  23484419.6094                   23484420.1954
 -21840399.22748 -16995588.17146  21292279.9924                   21292278.8834
  -4560017.14547  -3531082.10844  22968526.3524                   22968525.1884
 -40568434.19147 -31587047.64044  23530156.6644                   23530161.9024
 -55886643.36347 -43523384.09545  22613328.9064                   22613328.0784
 -30074780.97348 -23416932.34045  21200809.4224                   21200808.7034
  -9010284.09847  -7006597.57644  23429547.7274                   23429546.3794
 11  9 27  1 21 30.0000000  0  9G02G29G30G15G18G25G05G26G21
 -77623372.65646 -60461430.69444  23473191.7034                   23473190.4064
 -42266860.57448 -32913368.81447  20261184.8524                   20261183.7464
 -21792416.13347 -16958202.83944  23476936.5864                   23476937.0704
 -22003147.66447 -17122405.04246  21261310.0784                   21261309.0234
  -4725996.38747  -3660416.43644  22936941.3054                   22936940.7504
 -40586433.60947 -31601073.17844  23526732.2194                   23526736.3404
 -55901781.28547 -43535179.86245  22610447.9064                   22610447.2974
 -30189638.64148 -23506431.75545  21178952.8984                   21178951.9064
  -9171614.50846  -7132309.55744  23398847.6724                   23398846.0004
 11  9 27  1 22  0.0000000  0  9G02G29G30G15G18G25G05G26G21
 -77660598.39847 -60490437.75744  23466108.2274                   23466106.7384
 -42387201.89548 -33007141.23847  20238284.8204                   20238283.5044
 -21831432.46947 -16988605.20144  23469511.5164                   23469512.7464
 -22165422.27747 -17248852.70546  21230430.2114                   21230428.9384
  -4891697.26247  -3789533.90944  22905409.1174                   22905408.6954
 -40604320.05147 -31615010.70344  23523328.1804                   23523332.2234
 -55916804.26647 -43546886.08045  22607589.2894                   22607588.4804
 -30303796.32848 -23595385.75546  21157229.5164                   21157228.4144
  -9332953.85947  -7258028.46844  23368145.5474                   23368143.9844
 11  9 27  1 22 30.0000000  0  9G02G29G30G15G18G25G05G26G21
 -77697656.42246 -60519314.11844  23459056.3054                   23459054.3524
 -42507009.11348 -33100497.47047  20215486.3054                   20215484.8554
 -21870146.59846 -17018772.05843  23462144.5474                   23462145.9884
 -22327223.49648 -17374931.49646  21199640.4534                   21199639.4104
  -5057122.39847  -3918436.49944  22873929.2114                   22873929.3834
 -40622099.55547 -31628864.84144  23519945.2424                   23519947.3054
 -55931717.40247 -43558506.68745  22604751.5234                   22604750.6954
 -30417255.84848 -23683795.69545  21135638.7814                   21135637.7154
  -9494304.64547  -7383756.29644  23337441.0944                   23337440.1684
 11  9 27  1 23  0.0000000  0  9G02G29G30G15G18G25G05G26G21
 -77734545.63746 -60548058.97344  23452035.4454                   23452034.5044
 -42626280.12548 -33193435.87547  20192790.0164                   20192788.3164
 -21908560.98846 -17048705.36144  23454834.5004                   23454836.0084
 -22488548.26647 -17500639.01646  21168941.6804                   21168939.9574
  -5222271.08647  -4047123.66844  22842502.8984                   22842503.0434
 -40639774.72347 -31642637.78544  23516581.5164                   23516586.3834
 -55946522.15647 -43570042.85145  22601934.7114                   22601933.8204
 -30530015.60948 -23771660.37246  21114181.3674                   21114180.3324
  -9655666.30547  -7509492.57244  23306734.7974                   23306734.0984
 11  9 27  1 23 30.0000000  0  9G02G29G30G15G18G25G05G26G21
 -77771266.87146 -60576672.90744  23445048.5704                   23445047.4384
 -42745014.61348 -33285956.21647  20170195.3444                   20170194.2344
 -21946679.73846 -17078408.31244  23447580.8984                   23447582.6644
 -22649394.75447 -17625973.86146  21138333.3054                   21138332.0044
  -5387143.94147  -4175595.93144  22811128.4694                   22811128.4494
 -40657349.47747 -31656332.43744  23513237.7664                   23513241.3014
 -55961221.19147 -43581496.61745  22599137.5634                   22599137.0084
 -30642075.19148 -23858979.46246  21092857.0314                   21092855.8794
  -9817039.64547  -7635237.95644  23276026.9924                   23276026.4384
 11  9 27  1 24  0.0000000  0  9G02G29G30G15G18G25G05G26G21
 -77807819.62547 -60605155.54244  23438092.4384                   23438091.8324
 -42863210.87548 -33378057.15947  20147703.2114                   20147701.6254
 -21984505.59046 -17107883.00944  23440382.4844                   23440384.1134
 -22809760.30947 -17750933.94946  21107816.5944                   21107815.4774
  -5551740.53947  -4303852.93044  22779806.4534                   22779806.4024
 -40674826.65647 -31669950.96244  23509911.9224                   23509914.4964
 -55975816.25447 -43592869.37345  22596360.4064                   22596359.8874
 -30753433.49248 -23945752.09945  21071665.8284                   21071664.8954
  -9978423.85546  -7760991.80444  23245316.8914                   23245315.4774
 11  9 27  1 24 30.0000000  0  9G02G29G30G15G18G25G05G26G21
 -76268785.30146 -59405908.02944  23730961.0784                   23730959.3444
 -41405447.09048 -32242137.28047  20425106.2424                   20425105.1484
 -20446623.73046 -15909533.50744  23733031.8364                   23733033.3484
 -21394220.70347 -16647915.97946  21377184.7664                   21377183.5124
  -4140638.07447  -3204292.44844  23048330.6644                   23048330.5704
 -39116792.03547 -30455898.08844  23806395.2424                   23806398.8484
 -54414892.08647 -42376564.79845  22893393.6954                   22893392.8444
 -29288668.92648 -22804377.06645  21350401.3834                   21350400.4844
  -8564396.75847  -6659152.41744  23514397.1954                   23514396.5634
 11  9 27  1 25  0.0000000  0  9G02G29G30G15G18G25G05G26G21
 -76305005.54747 -59434131.59244  23724068.7274                   23724067.2544
 -41522569.01248 -32333401.07147  20402818.7584                   20402817.5124
 -20483878.99647 -15938563.59944  23725942.4304                   23725943.5394
 -21553623.43748 -16772125.82746  21346851.2974                   21346849.8794
  -4304686.69547  -3332122.45144  23017113.3984                   23017113.4024
 -39134089.02747 -30469376.28244  23803104.5234                   23803107.9454
 -54429290.14847 -42387784.05345  22890653.8134                   22890653.0234
 -29398627.10948 -22890058.72245  21329477.1024                   21329476.3674
  -8725808.62547  -6784927.76044  23483681.1724                   23483680.6564
 11  9 27  1 25 30.0000000  0  9G02G29G30G15G18G25G05G26G21
 -76341056.62147 -59462223.30044  23717207.6884                   23717207.0354
 -41639149.34048 -32424242.84847  20380633.6564                   20380633.0824
 -20520851.16447 -15967373.13744  23718907.6254                   23718908.3134
 -21712538.67248 -16895955.79446  21316610.5084                   21316609.7934
  -4468458.46947  -3459736.72444  22985948.1414                   22985948.1604
 -39151298.14147 -30482786.01744  23799830.1024                   23799833.7504
 -54443590.45747 -42398927.10945  22887932.7424                   22887931.7304
 -29507881.69548 -22975192.10746  21308686.8984                   21308685.5984
  -8887231.53547  -6910711.74244  23452963.6884                   23452962.1954
 11  9 27  1 26  0.0000000  0  9G02G29G30G15G18G25G05G26G21
 -76376939.13346 -59490183.72544  23710380.3984                   23710378.6724
 -41755187.27748 -32514661.98147  20358552.7974                   20358551.2934
 -20557544.17647 -15995965.11244  23711924.1884                   23711925.3984
 -21870964.71948 -17019404.58346  21286463.3754                   21286461.7384
  -4631954.21547  -3587135.89644  22954835.8054                   22954835.4774
 -39168423.09047 -30496130.16444  23796570.7894                   23796575.0164
 -54457795.47347 -42409995.92145  22885229.2034                   22885229.3594
 -29616432.12948 -23059776.80045  21288029.9534                   21288029.2114
  -9048665.81247  -7036504.56744  23422243.7424                   23422242.4304
 11  9 27  1 26 30.0000000  0  9G02G29G30G15G18G25G05G26G21
 -76412651.58646 -59518011.61044  23703584.2814                   23703582.7624
 -41870680.58648 -32604656.72047  20336575.1884                   20336573.7974
 -20593959.79346 -16024340.98144  23704995.0944                   23704996.9964
 -22028898.07447 -17142469.46546  21256409.2734                   21256408.1294
  -4795172.39547  -3714318.80344  22923776.7584                   22923777.0274
 -39185465.94147 -30509410.31044  23793327.8914                   23793331.1644
 -54471905.75847 -42420990.90845  22882544.5234                   22882543.8014
 -29724276.50048 -23143811.32346  21267507.8914                   21267507.3204
  -9210110.18447  -7162305.25444  23391521.5474                   23391520.4574
 11  9 27  1 27  0.0000000  0  9G02G29G30G15G18G25G05G26G21
 -76448191.79746 -59545705.26944  23696820.5164                   23696820.3364
 -41985626.11748 -32694224.61747  20314701.7504                   20314700.6374
 -20630099.44947 -16052501.80544  23698118.1804                   23698119.8834
 -22186334.48848 -17265147.11346  21226450.2034                   21226448.9304
  -4958110.80147  -3841283.68144  22892770.3524                   22892769.8674
 -39202427.71147 -30522627.32344  23790100.0314                   23790103.8874
 -54485921.29747 -42431912.08445  22879877.1414                   22879876.7344
 -29831411.96947 -23227293.45245  21247120.7584                   21247119.6764
  -9371562.49247  -7288112.16144  23360797.5864                   23360797.0904
 11  9 27  1 27 30.0000000  0  9G02G29G30G15G18G25G05G26G21
 -76483563.38746 -59573267.58044  23690089.5704                   23690088.7584
 -42100026.50048 -32783367.72647  20292931.7894                   20292930.6884
 -20665969.87546 -16080452.80344  23691292.3364                   23691293.2704
 -22343275.62548 -17387438.83246  21196585.3834                   21196584.0124
  -5120772.97347  -3968033.32144  22861816.5864                   22861815.9964
 -39219315.19547 -30535786.42844  23786886.8204                   23786890.0744
 -54499847.66447 -42442763.76545  22877227.5944                   22877226.6724
 -29937841.64848 -23310225.61645  21226867.7344                   21226866.5664
  -9533026.28147  -7413928.01744  23330072.1334                   23330071.5864
 11  9 27  1 28  0.0000000  0  9G02G29G30G15G18G25G05G26G21
 -76518765.39846 -59600697.65844  23683391.4614                   23683389.9964
 -42213880.03548 -32872084.72347  20271266.1804                   20271265.0084
 -20701573.64146 -16108196.06244  23684517.4144                   23684518.8164
 -22499718.34048 -17509342.17846  21166815.1024                   21166813.8444
  -5283158.32447  -4094567.25844  22830916.1024                   22830914.4534
 -39236130.91847 -30548889.60144  23783686.3284                   23783690.2194
 -54513686.12547 -42453546.95845  22874593.8594                   22874593.1214
 -30043564.05948 -23392606.66646  21206749.4614                   21206748.2274
  -9694500.60947  -7539752.03444  23299344.8364                   23299343.7504
 11  9 27  1 28 30.0000000  0  9G02G29G30G15G18G25G05G26G21
 -76553798.49646 -59627996.19844  23676725.0474                   23676723.7704
 -42327186.19948 -32960375.20147  20249704.9454                   20249703.4104
 -20736914.98846 -16135734.74444  23677791.8834                   23677793.5004
 -22655661.39148 -17630856.17746  21137140.2814                   21137138.6214
  -5445267.54347  -4220886.01244  22800066.8364                   22800067.0164
 -39252878.84447 -30561939.95944  23780499.1724                   23780503.6174
 -54527439.32047 -42464263.70145  22871976.3594                   22871976.0864
 -30148579.50848 -23474436.82746  21186765.3204                   21186764.4964
  -9855986.18747  -7665584.85444  23268615.7814                   23268614.1954
 11  9 27  1 29  0.0000000  0  9G02G29G30G15G18G25G05G26G21
 -76588661.94146 -59655162.52544  23670090.2114                   23670088.9264
 -42439943.28148 -33048237.83047  20228247.9534                   20228246.6134
 -20771996.28946 -16163070.86543  23671116.3054                   23671117.1764
 -22811101.93448 -17751978.59346  21107561.0004                   21107559.5044
  -5607099.77047  -4346988.92844  22769271.5314                   22769270.6134
 -39269561.31647 -30574939.36044  23777324.5634                   23777329.1094
 -54541108.60947 -42474915.08045  22869374.9454                   22869374.8094
 -30252886.55148 -23555714.98446  21166916.4454                   21166915.6994
 -10017482.20747  -7791425.81744  23237883.5864                   23237881.3674
 11  9 27  1 29 30.0000000  0  9G02G29G30G15G18G25G05G26G21
 -76623353.71146 -59682195.06844  23663489.0784                   23663487.8984
 -42552148.80548 -33135670.66447  20206895.8444                   20206894.8204
 -20806819.09846 -16190205.55844  23664489.4774                   23664491.5704
 -22966036.11748 -17872706.46446  21078077.6564                   21078076.3524
  -5768653.47747  -4472874.83744  22738528.7274                   22738527.7774
 -39286179.87547 -30587888.90144  23774162.3364                   23774166.8054
 -54554694.33647 -42485501.35645  22866789.8674                   22866789.4304
 -30356482.82847 -23636439.30545  21147202.8204                   21147201.7464
 -10178986.65647  -7917273.36744  23207150.4304                   23207148.2194
 11  9 27  1 30  0.0000000  0  9G02G29G30G15G18G25G05G26G21
 -76657876.26246 -59709095.71644  23656919.2974                   23656918.8674
 -42663803.80948 -33222674.52047  20185648.4064                   20185647.1254
 -20841388.95346 -16217143.17243  23657910.8364                   23657912.3484
 -23120464.01248 -17993039.81946  21048690.9534                   21048689.6334
  -5929930.57847  -4598545.16044  22707838.5084                   22707837.7344
 -39302739.83246 -30600792.79644  23771010.8674                   23771015.3054
 -54568200.35947 -42496025.50245  22864220.4224                   22864220.2704
 -30459370.42247 -23716611.39846  21127623.8914                   21127623.0004
 -10340502.21547  -8043129.57344  23176414.6644                   23176412.5744
 11  9 27  1 30 30.0000000  0  9G02G29G30G15G18G25G05G26G21
 -76692227.84846 -59735863.15944  23650381.8524                   23650381.5784
 -42774906.29348 -33309247.84147  20164506.4534                   20164505.4384
 -20875707.98446 -16243885.28044  23651380.3134                   23651381.6294
 -23274382.22348 -18112976.02246  21019401.2504                   21019399.8754
  -6090930.17247  -4723999.24444  22677201.0704                   22677201.0234
 -39319243.33247 -30613652.67844  23767870.7424                   23767875.0594
 -54581627.61347 -42506488.24245  22861665.3674                   22861663.9494
 -30561547.41447 -23796229.78046  21108180.3364                   21108179.2894
 -10502026.91847  -8168992.89544  23145677.4694                   23145675.5864
 11  9 27  1 31  0.0000000  0  9G02G29G30G15G18G25G05G26G21
 -76726408.45346 -59762497.38744  23643878.5314                   23643876.5664
 -42885455.10248 -33395389.72547  20143469.7974                   20143468.1484
 -20909779.25046 -16270434.37344  23644896.8524                   23644898.8484
 -23427788.78148 -18232513.53746  20990208.9454                   20990207.5704
  -6251651.82847  -4849236.75144  22646616.4774                   22646616.0004
 -39335693.14547 -30626470.74744  23764740.6094                   23764744.7274
 -54594977.77747 -42516890.90745  22859124.7344                   22859123.6604
 -30663013.32447 -23875294.06646  21088871.6724                   21088870.9384
 -10663560.41047  -8294863.07744  23114938.6334                   23114936.5354
 11  9 27  1 31 30.0000000  0  9G02G29G30G15G18G25G05G26G21
 -76760419.76646 -59788999.70743  23637405.8914                   23637404.9774
 -42995450.82048 -33481100.63247  20122538.0554                   20122536.7274
 -20943607.90647 -16296794.36244  23638459.2584                   23638461.9224
 -23580683.58648 -18351652.27046  20961113.9844                   20961112.7074
  -6412097.38347  -4974259.11744  22616084.3674                   22616083.9534
 -39352094.30947 -30639250.92044  23761619.3984                   23761623.4534
 -54608254.41847 -42527236.30645  22856598.1024                   22856597.2854
 -30763769.66447 -23953805.44845  21069698.5084                   21069697.4694
 -10825104.40247  -8420741.44445  23084197.5394                   23084196.3014
 11  9 27  1 32  0.0000000  0  9G02G29G30G15G18G25G05G26G21
 -76794260.12946 -59815368.84243  23630966.5234                   23630964.9264
 -43104891.64848 -33566379.15747  20101712.3364                   20101710.8754
 -20977195.98046 -16322966.91844  23632068.0084                   23632069.5594
 -23733062.93048 -18470389.36046  20932116.8444                   20932115.6484
  -6572265.77047  -5099065.51644  22585605.7114                   22585605.0204
 -39368448.79347 -30651994.70944  23758507.7344                   23758511.1484
 -54621458.46947 -42537525.12745  22854085.1254                   22854084.5314
 -30863814.51248 -24031762.40345  21050660.8754                   21050659.9144
 -10986657.44947  -8546626.86644  23053455.1254                   23053454.1804
 11  9 27  1 32 30.0000000  0  9G02G29G30G15G18G25G05G26G21
 -75252508.94146 -58614004.23644  23924351.8364                   23924350.4804
 -41638353.34448 -32423621.99347  20380785.3364                   20380783.8524
 -19435125.97746 -15121353.94044  23925514.1334                   23925515.5704
 -22309500.43048 -17361119.81246  21203011.9774                   21203010.5904
  -5156731.96547  -3996052.04945  22854973.0394                   22854971.8984
 -37809339.39147 -29437104.33044  24055195.9064                   24055199.9964
 -53059171.34447 -41320158.47345  23151378.0084                   23151377.2234
 -29387724.83648 -22881562.60746  21331551.3444                   21331550.5164
  -9572794.36747  -7444915.31745  23322504.3524                   23322502.9264
 11  9 27  1 33  0.0000000  0  9G02G29G30G15G18G25G05G26G21
 -75286009.50846 -58640108.59643  23917977.0634                   23917974.8524
 -41746683.24648 -32508034.86847  20360170.6024                   20360168.9734
 -19468244.46547 -15147160.61843  23919211.7584                   23919213.8094
 -22460845.23048 -17479050.76546  21174211.9224                   21174210.7274
  -5316347.79347  -4120427.86044  22824599.0084                   22824598.4804
 -37825611.39547 -29449783.89444  24052099.4144                   24052103.8874
 -53072236.89547 -41330339.41245  23148892.3134                   23148891.1524
 -29486347.90248 -22958411.69846  21312783.4064                   21312782.6454
  -9734366.89147  -7570815.92045  23291758.3054                   23291757.0004
 11  9 27  1 33 30.0000000  0  9G02G29G30G15G18G25G05G26G21
 -75319340.97747 -58666081.16444  23911634.2504                   23911632.3094
 -41854457.34448 -32592014.64547  20339661.8524                   20339660.5904
 -19501134.14147 -15172788.98243  23912953.0474                   23912955.5314
 -22611670.37148 -17596576.77846  21145510.8984                   21145509.8094
  -5475688.46147  -4244589.29644  22794278.0634                   22794276.3164
 -37841847.98446 -29462435.77544  24049010.9144                   24049013.2464
 -53085237.28547 -41340469.55545  23146417.7344                   23146417.7504
 -29584260.61347 -23034707.26946  21294151.5784                   21294150.5084
  -9895950.13347  -7696724.85945  23261009.7034                   23261007.7344
 11  9 27  1 34  0.0000000  0  9G02G29G30G15G18G25G05G26G21
 -75352501.78546 -58691920.69843  23905323.7734                   23905322.4264
 -41961673.75848 -32675559.86347  20319259.2974                   20319257.8674
 -19533796.91846 -15198240.53644  23906737.3914                   23906739.7194
 -22761973.24248 -17713695.82246  21116909.3444                   21116907.9414
  -5634752.71147  -4368535.30644  22764008.5234                   22764007.2734
 -37858050.83647 -29475061.43444  24045926.8674                   24045930.0904
 -53098172.85247 -41350549.19845  23143956.5234                   23143955.5704
 -29681461.36348 -23110448.04346  21275654.5394                   21275654.3054
 -10057541.88747  -7822640.46245  23230259.9144                   23230257.9344
 11  9 27  1 34 30.0000000  0  9G02G29G30G15G18G25G05G26G21
 -75385490.77747 -58717626.42943  23899047.0084                   23899044.8444
 -42068330.25448 -32758668.78847  20298963.2664                   20298961.6724
 -19566234.82046 -15223516.79943  23900563.9144                   23900566.4454
 -22911750.30148 -17830405.16846  21088407.5314                   21088405.9494
  -5793539.06647  -4492264.80344  22733791.7344                   22733790.3444
 -37874221.85246 -29487662.27344  24042849.4454                   24042853.0474
 -53111044.25447 -41360578.81545  23141507.8524                   23141506.2234
 -29777948.84448 -23185633.03646  21257293.8364                   21257292.7304
 -10219140.85947  -7948561.63345  23199508.0394                   23199506.6214
 11  9 27  1 35  0.0000000  0  9G02G29G30G15G18G25G05G26G21
 -75418308.58647 -58743198.67943  23892801.7034                   23892798.8674
 -42174426.43448 -32841341.09447  20278773.5004                   20278772.2894
 -19598451.87546 -15248621.07143  23894434.2344                   23894435.7584
 -23061000.24248 -17946703.75446  21060006.1414                   21060004.5394
  -5952048.55547  -4615778.55444  22703628.8054                   22703626.4454
 -37890364.77747 -29500241.23944  24039778.0474                   24039781.6254
 -53123853.89547 -41370560.31345  23139069.6954                   23139068.0824
 -29873723.38348 -23260262.49846  21239068.2734                   21239067.5824
 -10380747.46947  -8074488.78544  23168755.6094                   23168753.3484
 11  9 27  1 35 30.0000000  0  9G02G29G30G15G18G25G05G26G21
 -75450956.53146 -58768638.63143  23886588.4694                   23886586.8404
 -42279963.16048 -32923577.46847  20258690.5394                   20258689.1134
 -19630452.76246 -15273556.84743  23888345.0004                   23888346.2854
 -23209722.64548 -18062591.27446  21031705.1954                   21031703.6374
  -6110282.82847  -4739077.87544  22673517.9454                   22673515.5274
 -37906484.05947 -29512801.76144  24036710.0164                   24036713.8054
 -53136605.46947 -41380496.57245  23136643.2114                   23136641.8164
 -29968786.43448 -23334337.55446  21220978.6414                   21220977.7154
 -10542363.00447  -8200422.89845  23138001.3594                   23137999.5314
 11  9 27  1 36  0.0000000  0  9G02G29G30G15G18G25G05G26G21
 -75483433.94546 -58793945.71543  23880407.5864                   23880407.0474
 -42384939.44548 -33005377.15347  20238714.8674                   20238713.0044
 -19662240.39846 -15298326.49544  23882295.9534                   23882298.1054
 -23357915.18448 -18178065.92246  21003505.3754                   21003503.7774
  -6268241.32847  -4862162.29744  22643459.2194                   22643457.9494
 -37922582.40647 -29525345.97544  24033647.2344                   24033650.2734
 -53149299.48447 -41390387.96945  23134227.4454                   23134226.3284
 -30063137.30948 -23407857.67146  21203024.0394                   21203022.9884
 -10703986.77347  -8326363.38644  23107245.4694                   23107243.8444
 11  9 27  1 36 30.0000000  0  9G02G29G30G15G18G25G05G26G21
 -75515737.51246 -58819117.39043  23874261.3754                   23874259.5784
 -42489351.13348 -33086736.86347  20218845.4694                   20218843.8284
 -19693814.34046 -15322929.61243  23876287.2734                   23876288.8324
 -23505572.75848 -18293123.70346  20975406.5394                   20975405.0084
  -6425920.55547  -4985029.13345  22613453.7344                   22613452.7734
 -37938659.20746 -29537873.38644  24030587.5164                   24030591.9024
 -53161934.24646 -41400233.21244  23131823.0394                   23131821.6094
 -30156772.37148 -23480820.01446  21185206.0864                   21185204.3984
 -10865614.63747  -8452307.08945  23076487.8524                   23076486.7274
 11  9 27  1 37  0.0000000  0  9G02G29G30G15G18G25G05G26G21
 -75547871.88346 -58844157.14743  23868146.3284                   23868144.8794
 -42593202.26648 -33167659.80347  20199083.3754                   20199081.7114
 -19725182.87946 -15347372.62443  23870318.4694                   23870319.7584
 -23652698.25848 -18407766.89046  20947409.3914                   20947408.0084
  -6583325.64547  -5107682.33745  22583500.1724                   22583498.6484
 -37954722.63347 -29550390.38744  24027531.0314                   24027535.1564
 -53174516.84846 -41410037.83244  23129428.7974                   23129427.4224
 -30249696.73048 -23553228.55546  21167523.0314                   21167521.8984
 -11027251.62947  -8578257.85445  23045729.6804                   23045728.5944
 11  9 27  1 37 30.0000000  0  9G02G29G30G15G18G25G05G26G21
 -75579835.01246 -58869063.49143  23862064.0004                   23862062.2384
 -42696489.78548 -33248143.53647  20179428.2974                   20179426.6724
 -19756347.38746 -15371656.65743  23864387.8754                   23864389.2774
 -23799287.59848 -18521992.28546  20919514.2424                   20919512.5394
  -6740454.55547  -5230120.34944  22553599.3054                   22553597.5234
 -37970773.58647 -29562897.69044  24024476.7114                   24024481.5554
 -53187046.98446 -41419801.52144  23127044.0944                   23127042.7664
 -30341908.29348 -23625081.65446  21149975.8754                   21149974.7344
 -11188895.22747  -8704213.78645  23014969.9614                   23014968.5554
 11  9 27  1 38  0.0000000  0  9G02G29G30G15G18G25G05G26G21
 -75611625.79746 -58893835.51143  23856014.8134                   23856012.5744
 -42799212.25048 -33328186.98447  20159880.7584                   20159879.3834
 -19787310.04346 -15395783.45843  23858496.0704                   23858498.1994
 -23945337.99648 -18635797.72646  20891721.6884                   20891720.1914
  -6897306.52747  -5352342.57645  22523751.7664                   22523749.6604
 -37986814.16047 -29575396.89444  24021424.6954                   24021428.7974
 -53199525.43046 -41429524.98945  23124670.5314                   23124668.8524
 -30433406.02048 -23696378.53546  21132564.1334                   21132562.6094
 -11350544.10247  -8830173.83245  22984208.5704                   22984207.4414
 11  9 27  1 38 30.0000000  0  9G02G29G30G15G18G25G05G26G21
 -75643244.34046 -58918473.31443  23849997.1254                   23849995.5354
 -42901369.37148 -33407789.90447  20140440.7424                   20140439.5744
 -19818074.46546 -15419755.75743  23852641.8914                   23852643.5664
 -24090848.14148 -18749182.19746  20864032.0474                   20864030.5124
  -7053881.97347  -5474349.32745  22493956.3524                   22493954.4884
 -38002847.68047 -29587890.56944  24018373.3444                   24018377.2304
 -53211954.19947 -41439209.71745  23122305.2734                   23122303.5554
 -30524190.23448 -23767119.41346  21115288.8204                   21115287.0274
 -11512198.01647  -8956137.80545  22953447.1884                   22953446.0204
 11  9 27  1 39  0.0000000  0  9G02G29G30G15G18G25G05G26G21
 -75674691.20746 -58942977.43043  23844013.0554                   23844011.6484
 -43002961.32448 -33486952.43447  20121108.7344                   20121107.1374
 -19848644.56246 -15443576.65243  23846825.0234                   23846825.8404
 -24235817.01248 -18862144.88346  20836445.6334                   20836444.1254
  -7210181.48447  -5596141.07544  22464213.7274                   22464211.0514
 -38018877.78546 -29600381.62844  24015322.6414                   24015327.1484
 -53224335.57847 -41448857.49545  23119948.5784                   23119947.9774
 -30614261.79748 -23837304.99346  21098148.3984                   21098147.3014
 -11673857.23447  -9082105.90345  22922684.2114                   22922682.4304
 11  9 27  1 39 30.0000000  0  9G02G29G30G15G18G25G05G26G21
 -75705964.54746 -58967346.26243  23838062.0474                   23838060.8404
 -43103985.33648 -33565672.40847  20101884.3444                   20101882.9654
 -19879021.78946 -15467247.24043  23841044.2194                   23841045.0124
 -24380240.78148 -18974682.82646  20808962.4224                   20808960.8834
  -7366203.16047  -5717716.30545  22434523.5394                   22434522.0744
 -38034905.68447 -29612870.94144  24012273.0314                   24012277.9734
 -53236669.45347 -41458468.30245  23117601.0234                   23117601.6214
 -30703618.77748 -23906933.76245  21081144.2344                   21081143.0044
 -11835519.95747  -9208076.73245  22891921.0704                   22891918.7114
 11  9 27  1 40  0.0000000  0  9G02G29G30G15G18G25G05G26G21
 -75737067.44146 -58991582.31643  23832143.4614                   23832142.2114
 -43204443.98448 -33643951.83947  20082767.7034                   20082766.3594
 -19909212.35947 -15490772.43443  23835298.0004                   23835300.8674
 -24524120.81248 -19086797.07446  20781583.2664                   20781581.4924
  -7521950.73447  -5839077.96945  22404885.5234                   22404883.7304
 -38050937.32846 -29625363.22444  24009222.4144                   24009226.8244
 -53248960.61347 -41468045.81045  23115262.3364                   23115261.9414
 -30792264.54348 -23976008.32945  21064275.8364                   21064274.1374
 -11997188.81647  -9334052.33545  22861156.4614                   22861153.9144
 11  9 27  1 40 30.0000000  0  9G02G29G30G15G18G25G05G26G21
 -74192576.23846 -57788082.66143  24126050.4924                   24126049.0664
 -41728910.93448 -32494185.80047  20363552.1564                   20363550.4574
 -18363796.07047 -14286551.97043  24129381.4844                   24129383.0744
 -23092028.30948 -17970880.77346  21054101.0394                   21054099.3014
  -6101996.53947  -4732620.10444  22675093.8284                   22675091.2464
 -36491552.62547 -28410258.31244  24305963.9064                   24305968.0984
 -51685787.38747 -40249988.74545  23412724.4774                   23412724.0004
 -29304773.83648 -22816924.61745  21347335.3754                   21347333.9844
 -10583435.52347  -8232426.31244  23130184.5394                   23130182.2664
 11  9 27  1 41  0.0000000  0  9G02G29G30G15G18G25G05G26G21
 -74223334.51646 -57812050.20043  24120197.2894                   24120195.9064
 -41828233.67248 -32571580.10247  20344651.6254                   20344650.1024
 -18393619.75047 -14309791.24543  24123706.7344                   24123708.3204
 -23234812.48048 -18082141.10046  21026930.1954                   21026928.3594
  -6257192.48047  -4853551.94745  22645560.7424                   22645559.3914
 -36507597.29746 -28422760.75544  24302910.1094                   24302914.8014
 -51697994.17247 -40259500.50144  23410401.6484                   23410401.2234
 -29391994.20748 -22884888.49146  21330737.9534                   21330736.7584
 -10745111.57447  -8358407.49545  23099418.4844                   23099415.8634
 11  9 27  1 41 30.0000000  0  9G02G29G30G15G18G25G05G26G21
 -74253920.12547 -57835883.13043  24114377.6724                   24114375.5904
 -41926987.25848 -32648530.92147  20325859.9454                   20325857.9614
 -18423264.81647 -14332891.35243  24118065.3204                   24118065.6414
 -23377045.60548 -18192972.04346  20999864.1644                   20999862.3674
  -6412112.44547  -4974268.73745  22616080.6954                   22616079.8714
 -36523652.75046 -28435271.56844  24299855.0084                   24299859.6294
 -51710161.23447 -40268981.31744  23408086.1414                   23408085.6254
 -29478502.09048 -22952297.19245  21314275.9144                   21314274.7034
 -10906790.33647  -8484390.87645  23068651.6334                   23068649.7274
 11  9 27  1 42  0.0000000  0  9G02G29G30G15G18G25G05G26G21
 -74284333.67246 -57859582.01243  24108588.9384                   24108587.8674
 -42025171.77748 -32725038.30547  20307175.5784                   20307173.8794
 -18452734.73446 -14355854.90243  24112457.7664                   24112457.9224
 -23518726.92648 -18303373.01046  20972903.0004                   20972901.2234
  -6566757.38347  -5094771.21645  22586652.3054                   22586650.7234
 -36539722.49647 -28447793.51544  24296797.4534                   24296802.2234
 -51722290.57847 -40278432.74344  23405777.8754                   23405777.4454
 -29564298.04748 -23019151.13845  21297949.4454                   21297947.9654
 -11068471.84447  -8610376.35645  23037884.6174                   23037883.1954
 11  9 27  1 42 30.0000000  0  9G02G29G30G15G18G25G05G26G21
 -74314576.16846 -57883147.62943  24102834.1334                   24102833.6684
 -42122788.39148 -32801103.15647  20288599.7584                   20288597.9924
 -18482034.32047 -14378685.78943  24106881.6884                   24106883.1684
 -23659855.93748 -18413343.60346  20946046.6564                   20946045.3834
  -6721128.51647  -5215060.35145  22557276.5864                   22557275.5514
 -36555810.77047 -28460329.91944  24293736.1564                   24293740.6174
 -51734385.07447 -40287856.98044  23403476.5084                   23403475.9224
 -29649383.81648 -23085451.68445  21281758.1484                   21281757.2194
 -11230157.14847  -8736364.79345  23007117.0944                   23007115.8014
 11  9 27  1 43  0.0000000  0  9G02G29G30G15G18G25G05G26G21
 -74344646.51246 -57906579.03143  24097111.8914                   24097110.8244
 -42219834.96548 -32876723.83547  20270132.4144                   20270130.4964
 -18511165.31246 -14401385.34144  24101338.3444                   24101340.5394
 -23800429.91048 -18522881.70046  20919296.3594                   20919294.9534
  -6875224.69147  -5335135.24445  22527952.7814                   22527951.6484
 -36571919.09447 -28472881.89144  24290670.6414                   24290674.8634
 -51746445.35247 -40297254.56444  23401181.3204                   23401179.9104
 -29733758.36748 -23151198.04945  21265702.4694                   21265701.4224
 -11391844.89547  -8862355.15345  22976349.1804                   22976347.4534
 11  9 27  1 43 30.0000000  0  9G02G29G30G15G18G25G05G26G21
 -74374544.82446 -57929876.51243  24091423.2344                   24091421.8364
 -42316311.28548 -32951900.16047  20251773.5474                   20251771.7734
 -18540131.54346 -14423956.42843  24095826.1024                   24095828.2194
 -23940447.43448 -18631986.20146  20892651.9224                   20892650.0634
  -7029046.74647  -5454996.49545  22498681.7194                   22498680.0164
 -36588051.06247 -28485452.36944  24287600.6414                   24287605.0554
 -51758473.27747 -40306626.95944  23398891.9384                   23398891.3484
 -29817422.65248 -23216390.94345  21249781.7814                   21249780.0664
 -11553534.80547  -8988347.18645  22945580.1414                   22945579.3594
 11  9 27  1 44  0.0000000  0  9G02G29G30G15G18G25G05G26G21
 -74404268.52346 -57953037.80143  24085767.2034                   24085765.5474
 -42412214.16448 -33026629.65147  20233523.5784                   20233522.1454
 -18568933.39546 -14446399.46843  24090345.2344                   24090346.6094
 -24079903.98848 -18740653.59146  20866113.8524                   20866112.7234
  -7182591.97747  -5574642.04845  22469462.8834                   22469461.6054
 -36604206.62547 -28498041.19144  24284526.2894                   24284530.6454
 -51770467.64147 -40315973.17644  23396609.8054                   23396609.5434
 -29900374.11748 -23281028.39946  21233996.1254                   21233994.5314
 -11715223.20747  -9114338.05045  22914812.3134                   22914810.1414
 11  9 27  1 44 30.0000000  0  9G02G29G30G15G18G25G05G26G21
 -74433818.48046 -57976063.77943  24080143.4614                   24080142.1094
 -42507544.77048 -33100913.20547  20215383.0864                   20215381.5904
 -18597575.33246 -14468717.86543  24084894.7734                   24084896.1604
 -24218799.55948 -18848883.83546  20839683.2034                   20839681.3594
  -7335861.77047  -5694072.99145  22440296.3524                   22440295.2194
 -36620389.93047 -28510651.61843  24281446.2424                   24281450.4694
 -51782431.10947 -40325295.35644  23394332.8134                   23394333.1644
 -29982614.65248 -23345111.88145  21218346.0634                   21218345.2304
 -11876911.23047  -9240328.61845  22884043.8364                   22884041.3634
 11  9 27  1 45  0.0000000  0  9G02G29G30G15G18G25G05G26G21
 -74463192.46146 -57998952.58543  24074553.3914                   24074552.1804
 -42602300.41848 -33174748.75247  20197351.5474                   20197349.9654
 -18626058.06646 -14490912.24343  24079474.9144                   24079476.2704
 -24357130.11748 -18956673.82046  20813359.8674                   20813358.0234
  -7488853.79747  -5813287.47345  22411182.9694                   22411181.7194
 -36636601.46947 -28523283.93943  24278362.0864                   24278365.5944
 -51794362.67647 -40334592.67944  23392062.6334                   23392062.3524
 -30064142.07048 -23408639.70646  21202832.1334                   21202831.2814
 -12038595.96147  -9366316.61145  22853275.9064                   22853273.6684
 11  9 27  1 45 30.0000000  0  9G02G29G30G15G18G25G05G26G21
 -74492390.86346 -58021704.58543  24068997.2504                   24068996.4414
 -42696480.87548 -33248136.08647  20179429.8754                   20179428.1524
 -18654385.38746 -14512985.45243  24074084.8984                   24074085.4774
 -24494894.63348 -19064022.73246  20787144.2814                   20787142.1024
  -7641568.95747  -5932286.23045  22382122.1724                   22382120.9454
 -36652844.45346 -28535941.00643  24275272.6024                   24275274.2974
 -51806264.44947 -40343866.75344  23389798.5234                   23389797.6174
 -30144957.51248 -23471612.71545  21187453.6174                   21187451.9844
 -12200277.30547  -9492301.99945  22822508.8284                   22822506.1174
 11  9 27  1 46  0.0000000  0  9G02G29G30G15G18G25G05G26G21
 -74521415.09846 -58044320.91343  24063474.6804                   24063472.9064
 -42790086.72348 -33321075.68547  20161617.0234                   20161615.1414
 -18682561.96546 -14534941.27843  24068723.3054                   24068723.9454
 -24632092.85548 -19170930.37046  20761036.2114                   20761034.0434
  -7794008.83247  -6051070.46445  22353114.1254                   22353112.5084
 -36669123.50046 -28548625.92243  24272172.8984                   24272176.0004
 -51818139.62146 -40353120.09944  23387538.4614                   23387537.8984
 -30225062.74648 -23534032.33946  21172209.8984                   21172208.4734
 -12361955.85947  -9618285.19145  22791742.2344                   22791739.5474
 11  9 27  1 46 30.0000000  0  9G02G29G30G15G18G25G05G26G21
 -74550267.10246 -58066803.02344  24057985.7424                   24057982.7304
 -42883120.24248 -33393569.30447  20143913.0784                   20143911.7624
 -18710592.81246 -14556783.55243  24063388.9614                   24063389.6254
 -24768725.38748 -19277397.21546  20735035.8284                   20735033.7544
  -7946175.44947  -6169641.76445  22324157.1724                   22324156.4304
 -36685443.18046 -28561342.63043  24269066.8284                   24269071.4924
 -51829991.56647 -40362355.36244  23385282.7734                   23385281.3364
 -30304460.46148 -23595900.66646  21157101.3134                   21157099.8324
 -12523633.29347  -9744267.50845  22760976.5864                   22760973.3524
 11  9 27  1 47  0.0000000  0  9G02G29G30G15G18G25G05G26G21
 -74578943.74246 -58089148.45844  24052527.6094                   24052525.9884
 -42975577.76248 -33465614.10447  20126319.2664                   20126317.6374
 -18738478.21946 -14578512.54343  24058081.8594                   24058083.5274
 -24904787.74248 -19383419.77146  20709143.5784                   20709141.9184
  -8098065.97347  -6287997.93245  22295253.4454                   22295251.6484
 -36701803.35946 -28574090.84343  24265953.2114                   24265957.3244
 -51841818.75847 -40371571.31744  23383032.3444                   23383031.6374
 -30383148.28548 -23657215.79745  21142127.6174                   21142126.0354
 -12685306.19947  -9870246.31445  22730210.6804                   22730208.6954
 11  9 27  1 47 30.0000000  0  9G02G29G30G15G18G25G05G26G21
 -74607446.96546 -58111358.76543  24047103.1094                   24047101.9734
 -43067461.46948 -33537211.76747  20108834.1174                   20108832.7704
 -18766223.48346 -14600132.28843  24052801.6954                   24052803.4654
 -25040280.42248 -19488998.42046  20683360.5164                   20683358.3834
  -8249682.95347  -6406140.95445  22266401.3754                   22266400.0904
 -36718208.97746 -28586874.58043  24262833.2814                   24262836.9104
 -51853624.71547 -40380770.71944  23380785.9454                   23380784.4264
 -30461128.65648 -23717979.67745  21127288.0784                   21127286.8204
 -12846976.09447  -9996222.77945  22699446.0164                   22699443.6414
 11  9 27  1 48  0.0000000  0  9G02G29G30G15G18G25G05G26G21
 -74635776.65646 -58133433.89543  24041711.9774                   24041710.3244
 -43158770.68748 -33608361.77947  20091458.8674                   20091457.2234
 -18793831.64846 -14621645.19543  24047549.3134                   24047550.3054
 -25175201.89148 -19594131.97146  20657685.2034                   20657683.7194
  -8401026.27347  -6524070.70745  22237601.8754                   22237600.6094
 -36734662.69146 -28599695.71443  24259702.1884                   24259705.5824
 -51865410.79347 -40389954.63345  23378543.3284                   23378541.5314
 -30538402.04348 -23778192.66645  21112583.7114                   21112581.9104
 -13008641.75847 -10122195.93745  22668681.7344                   22668679.9734
 11  9 27  1 48 30.0000000  0  9G02G29G30G15G18G25G05G26G21
 -73088509.85546 -56927771.44943  24336147.7424                   24336145.7344
 -41674079.97348 -32451459.89447  20373985.8834                   20373984.2384
 -17245882.63746 -13415451.17743  24342114.2974                   24342115.6684
 -23734124.11348 -18471214.15546  20931913.5554                   20931911.7154
  -6976668.84447  -5414181.72345  22508648.1334                   22508646.4494
 -35175744.44946 -27384954.34143  24556354.2504                   24556358.7664
 -50301755.57447 -39171521.95645  23676096.9064                   23676096.5004
 -29039544.57448 -22610251.73446  21397806.3054                   21397805.6024
 -11594875.08247  -9020559.50945  22937713.2504                   22937710.8364
 11  9 27  1 49  0.0000000  0  9G02G29G30G15G18G25G05G26G21
 -73116489.60246 -56949573.90943  24330822.6414                   24330822.0514
 -41764236.33248 -32521711.57347  20356829.6724                   20356827.8914
 -17273223.12546 -13436755.46343  24336911.4774                   24336912.9344
 -23867896.05548 -18575451.96946  20906457.4384                   20906455.6454
  -7127462.70747  -5531683.34845  22479952.7664                   22479951.2274
 -35192299.81246 -27397854.63043  24553203.1954                   24553208.1994
 -50313503.02747 -39180675.76445  23673861.3524                   23673860.4344
 -29115403.46148 -22669362.53746  21383371.4924                   21383369.6604
 -11756527.87547  -9146522.63345  22906951.1174                   22906948.9414
 11  9 27  1 49 30.0000000  0  9G02G29G30G15G18G25G05G26G21
 -73144294.80146 -56971240.35543  24325533.1094                   24325530.4804
 -41853816.66848 -32591514.40647  20339782.8524                   20339780.9574
 -17300435.29346 -13457959.74343  24331732.7274                   24331733.6844
 -24001091.81247 -18679240.81246  20881111.4924                   20881109.2934
  -7277982.86747  -5648971.67445  22451309.8524                   22451308.4144
 -35208910.87546 -27410798.46343  24550042.5554                   24550047.7734
 -50325234.09847 -39189816.85345  23671628.9304                   23671628.1644
 -29190556.80147 -22727923.54045  21369069.8754                   21369068.3914
 -11918174.02347  -9272480.60145  22876191.3364                   22876188.3714
 11  9 27  1 50  0.0000000  0  9G02G29G30G15G18G25G05G26G21
 -73171924.33245 -56992769.87443  24320274.2584                   24320272.5704
 -41942819.67248 -32660867.37347  20322846.1174                   20322844.5554
 -17327520.99646 -13479065.54644  24326578.4534                   24326580.2974
 -24133708.71147 -18782578.59046  20855874.8524                   20855873.0004
  -7428228.15647  -5766045.84245  22422718.7894                   22422717.8364
 -35225579.11346 -27423786.82943  24546870.5634                   24546875.9264
 -50336948.74246 -39198945.16044  23669400.0634                   23669398.5434
 -29265004.21947 -22785934.46145  21354902.8204                   21354901.1374
 -12079811.86747  -9398432.09445  22845432.4694                   22845429.6684
 11  9 27  1 50 30.0000000  0  9G02G29G30G15G18G25G05G26G21
 -73199381.39846 -57014164.91543  24315048.9774                   24315047.6914
 -42031248.44548 -32729772.88347  20306018.8284                   20306017.1174
 -17354486.53946 -13500077.75843  24321447.7894                   24321449.7234
 -24265748.84448 -18885466.94546  20830748.7034                   20830746.8324
  -7578202.23447  -5882908.65045  22394179.5164                   22394179.0314
 -35242310.69547 -27436824.51344  24543687.2344                   24543692.3014
 -50348651.52346 -39208064.17844  23667172.8674                   23667171.3094
 -29338749.48447 -22843398.26745  21340869.3914                   21340868.2424
 -12241444.07847  -9524379.19545  22814673.8674                   22814671.8714
 11  9 27  1 51  0.0000000  0  9G02G29G30G15G18G25G05G26G21
 -73226664.77345 -57035424.82243  24309856.9384                   24309855.7074
 -42119101.25048 -32798229.58547  20289301.3444                   20289299.1604
 -17381334.02746 -13520997.91243  24316339.4304                   24316340.1954
 -24397209.42647 -18987903.70246  20805732.2894                   20805730.5474
  -7727904.21147  -5999559.45945  22365692.7344                   22365690.9494
 -35259107.09047 -27449912.69344  24540491.7664                   24540495.1954
 -50360343.16046 -39217174.53044  23664947.6954                   23664945.7894
 -29411792.46147 -22900314.83345  21326970.4144                   21326968.3054
 -12403068.60547  -9650320.31045  22783918.7194                   22783915.4414
 11  9 27  1 51 30.0000000  0  9G02G29G30G15G18G25G05G26G21
 -73253770.35246 -57056546.01642  24304699.4844                   24304698.0124
 -42206373.86348 -32866234.18847  20272693.7194                   20272691.7664
 -17408062.24246 -13541825.15343  24311252.1724                   24311254.0984
 -24528085.41447 -19089884.93646  20780827.1564                   20780825.5634
  -7877329.89547  -6115994.94145  22337257.5784                   22337256.3134
 -35275966.68746 -27463050.10444  24537282.9774                   24537287.2304
 -50372020.54346 -39226273.78444  23662725.6414                   23662723.9534
 -29484129.81247 -22956681.54345  21313204.5314                   21313203.2464
 -12564680.42247  -9776251.49745  22753164.4454                   22753161.8794
 11  9 27  1 52  0.0000000  0  9G02G29G30G15G18G25G05G26G21
 -73280701.25446 -57077531.14243  24299575.0004                   24299573.3204
 -42293069.68048 -32933789.34447  20256195.8834                   20256193.9964
 -17434677.87146 -13562564.64943  24306187.4614                   24306188.6174
 -24658378.75447 -19191412.15346  20756033.3674                   20756031.5354
  -8026483.21147  -6232218.20145  22308874.7584                   22308872.8984
 -35292895.75046 -27476241.67744  24534061.4614                   24534066.0904
 -50383688.20746 -39235365.44344  23660505.4144                   23660503.3164
 -29555765.82847 -23012501.79945  21299572.6094                   21299571.1804
 -12726282.28147  -9902174.92545  22722412.6414                   22722410.7304
 11  9 27  1 52 30.0000000  0  9G02G29G30G15G18G25G05G26G21
 -73307457.50045 -57098380.22143  24294483.0084                   24294481.3834
 -42379188.18048 -33000894.64047  20239808.2814                   20239806.2974
 -17461183.87946 -13583218.71443  24301144.1334                   24301144.9144
 -24788087.72747 -19292484.03046  20731350.5784                   20731348.5864
  -8175364.21947  -6348229.28245  22280543.1094                   22280541.5234
 -35309896.91447 -27489489.38644  24530825.8594                   24530830.7034
 -50395347.68746 -39244450.73244  23658286.5864                   23658285.2074
 -29626701.11347 -23067775.99945  21286073.5474                   21286072.5824
 -12887873.48047 -10028090.03745  22691663.1094                   22691661.3874
 11  9 27  1 53  0.0000000  0  8G29G30G15G18G25G05G26G21
 -42464730.32448 -33067550.83247  20223530.1334                   20223528.0234
 -17487584.25046 -13603790.45243  24296120.4144                   24296122.1804
 -24917212.40247 -19393100.60146  20706778.7424                   20706776.7734
  -8323974.10247  -6464029.06145  22252264.1024                   22252261.9964
 -35326973.61347 -27502795.99744  24527576.8134                   24527581.7624
 -50407000.93747 -39253531.13844  23656069.4924                   23656067.2304
 -29696937.47347 -23122505.61245  21272708.8444                   21272706.4654
 -13049454.16447 -10153996.96245  22660914.6724                   22660913.2974
 11  9 27  1 53 30.0000000  0  8G29G30G15G18G25G05G26G21
 -42549693.84048 -33133756.13747  20207361.9924                   20207360.0704
 -17513879.52346 -13624280.33043  24291116.3914                   24291116.8404
 -25045749.02347 -19493258.95346  20682319.1804                   20682317.4964
  -8472310.53547  -6579615.77845  22224035.7664                   22224034.4844
 -35344126.13747 -27516161.70444  24524312.6804                   24524317.9574
 -50418646.77047 -39262605.74644  23653852.7194                   23653851.0434
 -29766473.51247 -23176689.48945  21259476.0004                   21259474.3164
 -13211021.20747 -10279893.26145  22630169.4844                   22630168.6294
 11  9 27  1 54  0.0000000  0  8G29G30G15G18G25G05G26G21
 -42634069.96548 -33199503.74547  20191305.7344                   20191304.0234
 -17540064.51246 -13644684.26343  24286133.5634                   24286133.6724
 -25173687.60948 -19592951.30646  20657972.8674                   20657971.1914
  -8620365.15247  -6694982.91245  22195862.3134                   22195860.5864
 -35361348.70747 -27529581.99844  24521035.4774                   24521041.0824
 -50430278.16447 -39271669.15344  23651639.8754                   23651638.6914
 -29835301.85547 -23230321.94245  21246378.2034                   21246376.6994
 -13372565.28547 -10405771.65945  22599428.5864                   22599426.5554
 11  9 27  1 54 30.0000000  0  8G29G30G15G18G25G05G26G21
 -42717854.31248 -33264790.22447  20175362.1174                   20175360.2034
 -17566137.94546 -13665001.29143  24281171.8444                   24281172.7504
 -25301022.91848 -19692173.56846  20633742.4224                   20633740.1884
  -8768134.18047  -6810127.47245  22167742.8284                   22167740.9414
 -35378639.62147 -27543055.53944  24517744.7424                   24517750.4224
 -50441892.10547 -39280718.91544  23649429.6024                   23649428.0434
 -29903419.02747 -23283400.22245  21233415.9534                   21233414.7274
 -13534081.54747 -10531628.39245  22568693.3134                   22568690.9494
 11  9 27  1 55  0.0000000  0  8G29G30G15G18G25G05G26G21
 -42801050.67648 -33329618.52647  20159530.2114                   20159528.3284
 -17592106.44546 -13685236.55143  24276230.2584                   24276231.4024
 -25427757.63348 -19790927.84746  20609625.6024                   20609623.3794
  -8915621.80947  -6925052.78645  22139676.4224                   22139674.6684
 -35396005.18746 -27556587.30144  24514440.7584                   24514446.2974
 -50453493.52747 -39289758.94744  23647221.4304                   23647220.6254
 -29970829.67647 -23335927.97345  21220588.1724                   21220586.9144
 -13695572.61747 -10657465.46545  22537962.3914                   22537958.8404
 11  9 27  1 55 30.0000000  0  8G29G30G15G18G25G05G26G21
 -42883660.23048 -33393989.57947  20143810.0704                   20143808.4534
 -17617974.34846 -13705393.34143  24271308.3834                   24271309.5474
 -25553891.62948 -19889214.02246  20585622.6094                   20585620.4924
  -9062829.08647  -7039759.62845  22111663.9844                   22111662.4454
 -35413449.18046 -27570180.11043  24511121.7114                   24511125.4844
 -50465084.57047 -39298790.89644  23645016.3364                   23645014.2584
 -30037536.30147 -23387907.10445  21207894.3914                   21207892.7774
 -13857038.51247 -10783282.92045  22507236.0084                   22507233.3874
 11  9 27  1 56  0.0000000  0  8G29G30G15G18G25G05G26G21
 -42965684.49648 -33457904.56247  20128201.6564                   20128199.5704
 -17643746.30146 -13725475.42443  24266403.2274                   24266405.6524
 -25679425.43448 -19987032.53046  20561734.6334                   20561731.7034
  -9209757.91447  -7154249.50945  22083704.4844                   22083702.6644
 -35430975.85546 -27583837.34543  24507785.4384                   24507791.3634
 -50476668.16447 -39307817.04744  23642810.9224                   23642810.0784
 -30103541.59047 -23439339.76945  21195334.0314                   21195332.5944
 -14018480.12947 -10909081.45545  22476514.4144                   22476511.7814
 11  9 27  1 56 30.0000000  0  8G29G30G15G18G25G05G26G21
 -41471704.55148 -32293764.31847  20412496.6884                   20412494.5864
 -16094008.65646 -12517887.66643  24561308.7504                   24561310.8404
 -24228937.31648 -18856781.98546  20837753.1884                   20837751.2154
  -7780987.90248  -6040922.11445  22355590.1954                   22355587.8754
 -33873171.20745 -26369963.74242  24804225.5554                   24804231.9414
 -48912829.44947 -38089241.39744  23940400.3054                   23940398.6294
 -28593428.29347 -22262628.09745  21482699.2344                   21482697.4924
 -12604475.96147  -9807259.88645  22745590.5234                   22745588.2384
 11  9 27  1 57  0.0000000  0  8G29G30G15G18G25G05G26G21
 -41552567.42248 -32356774.32347  20397108.9774                   20397106.4614
 -16119606.93746 -12537834.46542  24556437.6334                   24556439.7344
 -24353275.91848 -18953669.16946  20814092.2734                   20814090.1994
  -7927370.02747  -6154985.98145  22327734.3984                   22327732.3204
 -33890880.01246 -26383762.89443  24800856.7034                   24800861.0274
 -48924410.80146 -38098265.82444  23938195.9924                   23938195.5234
 -28658042.95348 -22312977.14845  21470403.3674                   21470401.1954
 -12765876.37147  -9933026.31645  22714877.2274                   22714874.8674
 11  9 27  1 57 30.0000000  0  8G29G30G15G18G25G05G26G21
 -41632849.91048 -32419332.08947  20381831.3204                   20381829.4654
 -16145123.12946 -12557717.28943  24551582.8984                   24551584.8014
 -24477015.98848 -19050089.94546  20790545.2344                   20790543.0664
  -8073479.27348  -6268837.21445  22299930.4144                   22299928.6294
 -33908683.94946 -26397636.22043  24797468.5164                   24797473.5634
 -48935993.15647 -38107290.96844  23935992.0634                   23935990.8874
 -28721964.23448 -22362785.92345  21458239.2894                   21458237.8914
 -12927254.43747 -10058775.36945  22684168.0164                   22684166.3244
 11  9 27  1 58  0.0000000  0  7G29G30G15G18G05G26G21
 -41712552.73448 -32481438.15947  20366664.4064                   20366662.5124
 -16170560.70746 -12577538.77743  24546741.3594                   24546744.1414
 -24600156.50448 -19146043.55246  20767112.1724                   20767110.2544
  -8219316.48847  -6382476.48445  22272178.2584                   22272176.3094
 -48947578.23046 -38116318.25144  23933787.1484                   23933786.4344
 -28785193.82448 -22412055.69945  21446207.7034                   21446205.0904
 -13088610.64847 -10184507.37645  22653462.7114                   22653460.7274
 11  9 27  1 58 30.0000000  0  7G29G30G15G18G05G26G21
 -41791676.50048 -32543093.02547  20351607.6644                   20351605.7304
 -16195923.44546 -12597301.99443  24541915.3524                   24541917.6054
 -24722697.42248 -19241529.93946  20743793.4454                   20743791.5084
  -8364882.72348  -6495904.59345  22244478.4064                   22244475.9884
 -48959167.59046 -38125348.94444  23931581.9064                   23931580.5704
 -28847733.82048 -22460788.13345  21434306.2344                   21434304.8984
 -13249944.64547 -10310222.08145  22622761.8674                   22622759.7704
 11  9 27  1 59  0.0000000  0  7G29G30G15G18G05G26G21
 -41870214.08648 -32604291.12447  20336662.5084                   20336660.6334
 -16221206.94946 -12617003.52443  24537104.2814                   24537106.5314
 -24844630.62548 -19336542.77746  20720590.3284                   20720588.1484
  -8510170.98048  -6609116.09845  22216830.5084                   22216828.0554
 -48970755.02346 -38134378.08344  23929376.5474                   23929375.9614
 -28909577.91448 -22508978.31145  21422537.8524                   21422535.8634
 -13411247.88348 -10435912.81245  22592066.9454                   22592064.1174
 11  9 27  1 59 30.0000000  0  7G29G30G15G18G05G26G21
 -41948160.34848 -32665028.45847  20321829.8984                   20321828.0044
 -16246409.14846 -12636641.64643  24532308.1414                   24532310.6334
 -24965949.69148 -19431077.07046  20697504.3444                   20697501.8524
  -8655176.41448  -6722107.22845  22189236.9924                   22189234.5904
 -48982336.53946 -38143402.64444  23927172.6804                   23927172.5084
 -28970722.48848 -22556623.39045  21410902.3674                   21410899.8164
 -13572514.62547 -10561575.12845  22561378.6884                   22561375.8914
 11  9 27  2  0  0.0000000  0  7G29G30G15G18G05G26G21
 -42025517.67648 -32725306.87847  20307108.9614                   20307107.2234
 -16271535.04746 -12656220.35343  24527527.1094                   24527528.9454
 -25086655.74648 -19525133.69546  20674534.6174                   20674531.8834
  -8799901.34448  -6834879.79245  22161696.5864                   22161694.2544
 -48993915.46946 -38152425.06144  23924969.2424                   23924969.0164
 -29031170.77348 -22603725.91345  21399399.7504                   21399397.1134
 -13733745.78148 -10687209.68545  22530697.5704                   22530694.7774
 11  9 27  2  0 30.0000000  0  7G29G30G15G18G05G26G21
 -42102290.60948 -32785129.94047  20292499.7664                   20292497.9224
 -16296592.04746 -12675745.31943  24522758.8834                   24522761.8984
 -25206752.34848 -19618715.42046  20651680.7274                   20651678.6174
  -8944350.38748  -6947437.38545  22134208.6954                   22134206.7424
 -49005497.35946 -38161449.86244  23922765.4534                   23922765.2194
 -29090928.52048 -22650290.36245  21388028.0944                   21388026.0944
 -13894944.77347 -10812819.21445  22500022.0164                   22500019.2504
 11  9 27  2  1  0.0000000  0  7G29G30G15G18G05G26G21
 -42178480.93748 -32844498.99547  20278001.0784                   20277999.4414
 -16321584.57446 -12695220.08243  24518002.9774                   24518005.8244
 -25326239.99648 -19711822.63446  20628943.3754                   20628940.9184
  -9088525.43048  -7059781.46545  22106773.4304                   22106771.0084
 -49017084.23046 -38170478.56643  23920560.5084                   23920558.7154
 -29149998.48047 -22696318.88345  21376786.6564                   21376785.2034
 -14056112.39847 -10938404.27545  22469352.8984                   22469349.8754
 11  9 27  2  1 30.0000000  0  7G29G30G15G18G05G26G21
 -42254089.85248 -32903415.03047  20263613.3754                   20263611.7194
 -16346516.42246 -12714647.61343  24513259.3444                   24513261.6374
 -25445118.53548 -19804455.21946  20606321.3984                   20606319.1564
  -9232427.41848  -7171912.79145  22079389.5314                   22079387.6804
 -49028678.42646 -38179512.93743  23918354.5704                   23918352.9804
 -29208382.78948 -22741813.11745  21365677.3914                   21365675.4414
 -14217248.14847 -11063964.52545  22438690.0864                   22438687.4144
 11  9 27  2  2  0.0000000  0  7G29G30G15G18G05G26G21
 -42329118.28148 -32961878.72547  20249335.6174                   20249334.2274
 -16371391.08246 -12734030.52443  24508525.0234                   24508527.4534
 -25563388.01248 -19896613.21046  20583815.1884                   20583813.0864
  -9376057.76648  -7283832.44745  22052057.5084                   22052055.0514
 -49040282.08246 -38188554.67643  23916145.7114                   23916144.0634
 -29266083.87147 -22786774.98145  21354696.6484                   21354695.3914
 -14378352.09048 -11189499.99345  22408032.8134                   22408030.5434
 11  9 27  2  2 30.0000000  0  7G29G30G15G18G05G26G21
 -42403565.27748 -33019889.37147  20235168.8134                   20235167.1994
 -16396210.85546 -12753370.66543  24503801.9304                   24503804.6334
 -25681046.64548 -19988295.23246  20561425.2504                   20561423.3054
  -9519415.72748  -7395539.86945  22024777.1174                   22024775.2114
 -49051894.46547 -38197603.24043  23913937.1724                   23913934.0824
 -29323102.14547 -22831204.78345  21343846.7114                   21343844.9064
 -14539421.86347 -11315008.83545  22377382.2664                   22377379.8674
 11  9 27  2  3  0.0000000  0  7G29G30G15G18G05G26G21
 -42477434.25848 -33077449.60647  20221112.1334                   20221110.4264
 -16420981.17246 -12772672.22343  24499088.8364                   24499090.8444
 -25798096.27048 -20079502.69546  20539151.8284                   20539149.5664
  -9662504.07847  -7507037.18545  21997548.1334                   21997546.4844
 -49063519.56246 -38206661.69144  23911724.4844                   23911721.8444
 -29379441.62147 -22875105.66545  21333125.3524                   21333123.3834
 -14700459.23848 -11440492.45245  22346737.5474                   22346735.5474
 11  9 27  2  3 30.0000000  0  7G29G30G15G18G05G26G21
 -42550722.01648 -33134556.94147  20207166.1804                   20207164.4344
 -16445701.84846 -12791935.17943  24494385.1414                   24494386.6954
 -25914533.10948 -20170232.66146  20516994.7114                   20516991.7074
  -9805320.26648  -7618322.44445  21970371.2114                   21970368.5514
 -49075155.47746 -38215728.57344  23909510.2114                   23909507.8284
 -29435100.64147 -22918476.29845  21322534.0634                   21322531.9064
 -14861460.48447 -11565947.89845  22316100.5164                   22316097.8954
 11  9 27  2  4  0.0000000  0  7G29G30G15G18G05G26G21
 -42623432.55548 -33191214.50547  20193329.5474                   20193327.6844
 -16470379.27046 -12811164.42543  24489688.6644                   24489690.6954
 -26030359.60248 -20260487.02846  20494953.5084                   20494951.3094
  -9947867.99647  -7729398.52345  21943245.2344                   21943243.0944
 -49086806.19546 -38224807.00044  23907293.1024                   23907291.3324
 -29490084.38347 -22961320.74345  21312070.7114                   21312069.2304
 -15022427.68447 -11691376.82045  22285469.1484                   22285466.3284
 11  9 27  2  4 30.0000000  0  7G29G30G15G18G05G26G21
 -41120144.68748 -32019821.35747  20479395.9844                   20479393.9804
 -14919596.26246 -11602762.10343  24784793.1174                   24784794.9264
 -24570151.89548 -19122662.80546  20772821.5004                   20772819.3674
  -8514723.53147  -6612662.50845  22215963.7344                   22215961.3364
 -47523053.50146 -37006298.31144  24204865.3594                   24204863.5314
 -27968973.01647 -21776039.13845  21601529.1724                   21601527.1094
 -13607935.15247 -10589174.77845  22554637.7584                   22554635.4694
 11  9 27  2  5  0.0000000  0  7G29G30G15G18G05G26G21
 -41191703.43048 -32075581.40047  20465778.7274                   20465776.9024
 -14944197.61746 -11621932.02943  24780111.4774                   24780113.7664
 -24684757.37148 -19211965.73947  20751013.1564                   20751010.7504
  -8656736.96147  -6723322.26545  22188939.1414                   22188936.6294
 -47534739.13346 -37015404.00044  24202642.1414                   24202640.4534
 -28022612.12547 -21817835.84345  21591321.8594                   21591319.8324
 -13768833.02047 -10714549.65345  22524020.1094                   22524016.9144
 11  9 27  2  5 30.0000000  0  7G29G30G15G18G05G26G21
 -41262688.89848 -32130894.74147  20452270.5554                   20452269.0984
 -14968767.32846 -11641077.39343  24775437.1414                   24775438.3094
 -24798753.25847 -19300793.67246  20729320.0864                   20729318.0984
  -8798485.75847  -6833775.79745  22161965.6254                   22161962.6884
 -47546445.78146 -37024525.99044  24200413.5784                   24200412.3324
 -28075583.46547 -21859112.17845  21581241.3054                   21581239.3634
 -13929696.46547 -10839897.73445  22493408.6254                   22493405.8204
 11  9 27  2  6  0.0000000  0  7G29G30G15G18G05G26G21
 -41333099.10548 -32185759.84347  20438871.6564                   20438870.0474
 -14993305.68046 -11660198.24043  24770766.6484                   24770769.1484
 -24912136.16048 -19389143.95446  20707744.1484                   20707741.7544
  -8939967.73847  -6944021.43545  22135042.1564                   22135039.6884
 -47558171.56246 -37033662.92244  24198182.9614                   24198180.8244
 -28127885.85247 -21899867.27745  21571288.6884                   21571286.6484
 -14090521.92247 -10965216.19645  22462804.4304                   22462801.9774
 11  9 27  2  6 30.0000000  0  7G29G30G15G18G05G26G21
 -41402935.14848 -32240177.54647  20425582.5554                   20425580.8204
 -15017816.33246 -11679297.46943  24766102.5314                   24766104.9924
 -25024906.68048 -19477017.05946  20686284.5704                   20686282.6414
  -9081184.12147  -7054060.12045  22108169.3674                   22108167.0234
 -47569918.41046 -37042816.31244  24195946.8834                   24195945.6804
 -28179522.03547 -21940103.26145  21561462.4774                   21561460.4884
 -14251309.07447 -11090504.83845  22432207.7344                   22432205.1134
 11  9 27  2  7  0.0000000  0  7G29G30G15G18G05G26G21
 -41472197.04748 -32294147.84847  20412402.7114                   20412400.9304
 -15042301.59446 -11698377.05143  24761442.3444                   24761445.3794
 -25137063.57847 -19564412.00546  20664941.9384                   20664939.3834
  -9222134.71147  -7163891.70145  22081347.7504                   22081345.1414
 -47581686.37946 -37051986.13243  24193707.2584                   24193706.7814
 -28230492.87947 -21979820.77645  21551763.6024                   21551761.4144
 -14412056.27047 -11215762.31245  22401618.2194                   22401615.9304
 11  9 27  2  7 30.0000000  0  7G29G30G15G18G05G26G21
 -41540885.62548 -32347671.41847  20399331.5864                   20399329.8094
 -15066764.92645 -11717439.38742  24756788.1804                   24756791.0274
 -25248606.72748 -19651328.71446  20643715.8284                   20643713.4964
  -9362820.77747  -7273517.14045  22054576.2664                   22054573.2774
 -47593477.32046 -37061173.86144  24191463.5164                   24191462.9614
 -28280801.08647 -22019021.95145  21542189.5704                   21542187.8524
 -14572762.96147 -11340988.23845  22371036.5314                   22371034.4454
 11  9 27  2  8  0.0000000  0  7G29G30G15G18G05G26G21
 -41609005.14148 -32400751.55447  20386369.0864                   20386367.0044
 -15091212.62546 -11736489.63342  24752135.4534                   24752138.5434
 -25359538.71948 -19737769.18646  20622606.0704                   20622603.3484
  -9503245.37147  -7382938.85545  22027853.8054                   22027850.9184
 -47605295.34846 -37070382.63044  24189214.3674                   24189213.7464
 -28330451.26247 -22057710.36945  21532741.7194                   21532739.7774
 -14733431.53147 -11466184.43545  22340462.2344                   22340460.1334
 11  9 27  2  8 30.0000000  0  7G29G30G15G18G05G26G21
 -41676551.87148 -32453385.37047  20373514.9454                   20373513.6804
 -15115643.18445 -11755526.58242  24747486.8984                   24747490.0594
 -25469854.93048 -19823729.84046  20601613.4064                   20601611.4144
  -9643405.12947  -7492154.20045  22001182.2504                   22001179.8094
 -47617137.16446 -37079610.03344  24186961.2344                   24186959.3404
 -28379441.16847 -22095884.30445  21523419.0864                   21523417.6724
 -14894056.61347 -11591346.77345  22309896.3284                   22309893.7154
 11  9 27  2  9  0.0000000  0  7G29G30G15G18G05G26G21
 -41743528.82448 -32505575.20847  20360769.5554                   20360767.9734
 -15140062.18445 -11774554.44942  24742840.5164                   24742842.0664
 -25579557.60948 -19909212.41746  20580738.2114                   20580736.0004
  -9783303.02347  -7601165.48945  21974560.6414                   21974558.2034
 -47629006.21946 -37088858.56644  24184702.8984                   24184701.0594
 -28427775.17247 -22133547.12845  21514221.1804                   21514219.6804
 -15054639.74248 -11716476.39545  22279339.2194                   22279335.5434
 11  9 27  2  9 30.0000000  0  7G29G30G15G18G05G26G21
 -41809936.47748 -32557321.43547  20348132.7194                   20348131.1024
 -15164472.34046 -11793575.27342  24738195.1024                   24738196.3794
 -25688646.21948 -19994216.49746  20559979.1094                   20559976.8324
  -9922939.17647  -7709972.82445  21947988.7194                   21947985.7584
 -47640903.03146 -37098128.77943  24182438.8204                   24182436.8524
 -28475455.11747 -22170700.34245  21505148.2194                   21505146.5124
 -15215179.16848 -11841571.95945  22248789.1334                   22248785.6454
 11  9 27  2 10  0.0000000  0  6G29G15G18G05G26G21
 -41875772.80548 -32608622.46347  20335604.5084                   20335602.8794
 -25797117.37547 -20078739.44547  20539337.4924                   20539335.3444
 -10062311.44147  -7818574.52445  21921467.1094                   21921464.4924
 -47652826.02746 -37107419.37743  24180170.3754                   24180168.6994
 -28522479.96147 -22207343.05045  21496199.6414                   21496197.8134
 -15375671.56648 -11966630.88645  22218247.8364                   22218244.3874
 11  9 27  2 10 30.0000000  0  6G29G15G18G05G26G21
 -41941041.96548 -32659481.54647  20323184.1414                   20323182.4224
 -25904973.93748 -20162783.50746  20518813.0864                   20518810.6094
 -10201423.47347  -7926973.46645  21894994.4694                   21894992.0354
 -47664779.45346 -37116733.73344  24177895.5084                   24177892.9654
 -28568854.93047 -22243479.37245  21487374.9924                   21487373.3164
 -15536118.82448 -12091654.64145  22187715.9384                   22187712.8484
 11  9 27  2 11  0.0000000  0  6G29G15G18G05G26G21
 -42005735.60248 -32709892.17747  20310873.4454                   20310871.6604
 -26012207.34448 -20246341.96946  20498407.5004                   20498404.6604
 -10340266.55147  -8035162.81345  21868573.5314                   21868570.6804
 -47676755.29346 -37126065.53044  24175616.2194                   24175614.5004
 -28614572.99647 -22279103.81245  21478675.1484                   21478673.4574
 -15696511.09847 -12216635.57145  22157194.2734                   22157191.3954
 11  9 27  2 11 30.0000000  0  6G29G15G18G05G26G21
 -42069850.28548 -32759851.67247  20298672.8984                   20298671.0784
 -26118812.50448 -20329410.89847  20478121.0474                   20478118.3444
 -10478837.91047  -8143140.43345  21842204.1334                   21842201.6994
 -47688750.76246 -37135412.55943  24173333.1644                   24173331.1764
 -28659632.65647 -22314215.22145  21470100.1414                   21470098.2074
 -15856842.79347 -12341569.29945  22126684.7114                   22126681.5394
 11  9 27  2 12  0.0000000  0  6G29G15G18G05G26G21
 -42133389.37948 -32809362.65247  20286582.0864                   20286579.8364
 -26224791.27748 -20411991.72946  20457953.8914                   20457951.3554
 -10617139.90647  -8250908.15645  21815886.2424                   21815883.6454
 -47700768.41046 -37144776.91344  24171047.1484                   24171045.3984
 -28704037.68447 -22348816.51945  21461650.0004                   21461648.4454
 -16017115.87548 -12466457.32745  22096185.7814                   22096182.4844
 11  9 27  2 12 30.0000000  0  6G29G15G18G05G26G21
 -40620934.45348 -31630826.35447  20574392.4774                   20574390.4844
 -24754723.23448 -19266484.14346  20737698.4694                   20737696.2344
  -9179751.16448  -7130864.90845  22089412.2974                   22089409.1134
 -46137391.64546 -35926561.20544  24468547.1954                   24468545.3364
 -27172371.43447 -21155310.33445  21753116.4304                   21753115.0594
 -14601905.85248 -11363696.18845  22365490.6334                   22365487.8754
 11  9 27  2 13  0.0000000  0  6G29G15G18G05G26G21
 -40683330.18448 -31679446.39947  20562518.8594                   20562516.7934
 -24859454.85548 -19348093.16746  20717768.6564                   20717766.3244
  -9317521.29348  -7238218.19745  22063195.3134                   22063192.4224
 -46149462.09446 -35935966.68944  24466250.8984                   24466249.0274
 -27215478.77747 -21188900.44245  21744913.8834                   21744911.9104
 -14762062.56648 -11488493.54445  22335013.6024                   22335010.3914
 11  9 27  2 13 30.0000000  0  6G29G15G18G05G26G21
 -40745158.44548 -31727624.26547  20550753.1484                   20550751.0864
 -24963565.57048 -19429218.37646  20697957.0004                   20697954.6024
  -9455029.36348  -7345367.28445  22037028.5944                   22037025.5784
 -46161563.25846 -35945396.15343  24463947.9144                   24463946.2034
 -27257943.72347 -21221990.00345  21736832.6804                   21736831.2894
 -14922162.11347 -11613246.35245  22304547.4534                   22304544.3984
 11  9 27  2 14  0.0000000  0  6G29G15G18G05G26G21
 -40806419.48448 -31775360.13847  20539096.0164                   20539093.7584
 -25067054.60548 -19509859.14446  20678263.7424                   20678261.4344
  -9592275.48048  -7452312.25145  22010911.3364                   22010908.6094
 -46173695.23445 -35954849.61943  24461638.4304                   24461636.8284
 -27299767.66447 -21254580.08145  21728874.4534                   21728872.8634
 -15082203.42247 -11737953.79245  22274092.9534                   22274089.6724
 11  9 27  2 14 30.0000000  0  6G29G15G18G05G26G21
 -40867115.80948 -31822655.96947  20527545.7814                   20527543.7384
 -25169923.44548 -19590016.66146  20658688.4614                   20658685.9144
  -9729261.42248  -7559054.48145  21984843.8284                   21984840.8874
 -46185860.61745 -35964329.09443  24459323.2114                   24459321.8834
 -27340954.16447 -21286673.44345  21721036.2664                   21721034.7344
 -15242186.35947 -11862615.75345  22243649.1954                   22243645.4574
 11  9 27  2 15  0.0000000  0  6G29G15G18G05G26G21
 -40927249.02048 -31869513.02447  20516102.7584                   20516100.8054
 -25272172.59848 -19669691.29746  20639230.9534                   20639228.3714
  -9865988.35548  -7665594.89745  21958825.3444                   21958822.6134
 -46198060.98856 -35973835.80653  24457001.8524                   24457000.5004
 -27381506.00847 -21318272.27345  21713319.7424                   21713317.9104
 -15402110.46947 -11987231.88045  22213216.9694                   22213213.0784
 11  9 27  2 15 30.0000000  0  6G29G15G18G05G26G21
 -40986822.07848 -31915933.59147  20504766.2584                   20504763.9344
 -25373803.77048 -19748884.38647  20619891.5164                   20619888.4574
 -10002458.96548  -7771935.57945  21932855.8134                   21932853.1764
 -46210298.96145 -35983371.92843  24454673.1564                   24454670.9844
 -27421427.50447 -21349379.91145  21705723.0164                   21705721.0084
 -15561976.69147 -12111802.89445  22182795.2344                   22182791.5634
 11  9 27  2 16  0.0000000  0  6G29G15G18G05G26G21
 -41045835.02348 -31961917.70247  20493536.6334                   20493534.6724
 -25474816.09848 -19827595.26547  20600669.1804                   20600666.6484
 -10138672.91448  -7878076.25145  21906935.3914                   21906932.3014
 -46222574.65246 -35992937.39443  24452337.3204                   24452336.3404
 -27460720.00447 -21379997.43045  21698245.3594                   21698243.6524
 -15721782.79747 -12236327.07045  22152384.8364                   22152382.0274
 11  9 27  2 16 30.0000000  0  6G29G15G18G05G26G21
 -41104289.49248 -32007466.64747  20482412.9384                   20482411.1334
 -25575210.41848 -19905824.57447  20581564.5004                   20581562.0554
 -10274631.36748  -7984017.84845  21881063.2274                   21881060.4104
 -46234889.25446 -36002533.15544  24449994.8674                   24449991.4304
 -27499386.34447 -21410127.04945  21690887.8134                   21690886.1024
 -15881528.37547 -12360804.08445  22121986.2344                   22121982.9774
 11  9 27  2 17  0.0000000  0  6G29G15G18G05G26G21
 -41162186.47348 -32052581.18247  20471395.6484                   20471393.3914
 -25674986.77048 -19983572.34747  20562578.2034                   20562575.5784
 -10410335.03948  -8089760.91645  21855240.0394                   21855236.9454
 -46247243.73046 -36012159.95643  24447642.7344                   24447640.7624
 -27537428.82847 -21439770.52145  21683648.7974                   21683646.9064
 -16041211.91047 -12485232.73345  22091598.9384                   22091596.3524
 11  9 27  2 17 30.0000000  0  6G29G15G18G05G26G21
 -41219526.74648 -32097261.91447  20460483.8674                   20460481.8834
 -25774144.81648 -20060838.32547  20543708.8984                   20543706.7234
 -10545784.24648  -8195305.70446  21829464.5314                   21829461.4534
 -46259638.62546 -36021818.31143  24445284.1174                   24445282.3554
 -27574849.44147 -21468929.44045  21676527.2504                   21676525.8204
 -16200832.28947 -12609612.19245  22061224.2274                   22061220.8874
 11  9 27  2 18  0.0000000  0  6G29G15G18G05G26G21
 -41276312.97348 -32141510.92847  20449678.0554                   20449675.8134
 -25872685.79747 -20137623.47546  20524957.1644                   20524954.7424
 -10680980.34048  -8300653.25946  21803737.6414                   21803735.0204
 -46272076.03546 -36031509.79343  24442917.3364                   24442915.5784
 -27611651.89147 -21497606.65845  21669524.1804                   21669522.3984
 -16360389.20347 -12733942.21445  22030861.5234                   22030858.1884
 11  9 27  2 18 30.0000000  0  7G22G29G15G18G05G26G21
  26529908.82056  20692085.30853  24590043.3984                   24590041.5664
 -41332547.75448 -32185330.23946  20438977.1024                   20438974.8484
 -25970611.21547 -20213928.97247  20506322.6254                   20506319.9454
 -10815926.16848  -8405805.79546  21778057.9534                   21778055.3554
 -46284558.39846 -36041236.25343  24440541.9454                   24440539.5314
 -27647840.10947 -21525805.26645  21662637.9064                   21662636.2504
 -16519883.14847 -12858223.16645  22000511.3284                   22000507.3674
 11  9 27  2 19  0.0000000  0  7G22G29G15G18G05G26G21
  26359042.57046  20558942.86743  24557528.1254                   24557527.1174
 -41388237.46148 -32228724.82847  20428379.5784                   20428377.3484
 -26067927.03548 -20289759.46547  20487804.1024                   20487801.4534
 -10950627.62148  -8510767.91346  21752425.3134                   21752422.5554
 -46297091.75446 -36051002.46543  24438157.4304                   24438154.8674
 -27683421.84047 -21553531.28545  21655866.3134                   21655865.4884
 -16679318.60948 -12982458.52545  21970171.3984                   21970168.0124
 11  9 27  2 19 30.0000000  0  7G22G29G15G18G05G26G21
  26188336.65646  20425925.45943  24525044.1884                   24525043.2424
 -41443390.43048 -32271701.16446  20417884.0234                   20417882.1294
 -26164640.59447 -20365120.65247  20469399.7274                   20469397.3954
 -11085092.24248  -8615545.49345  21726837.4224                   21726834.7894
 -46309684.12546 -36060814.65743  24435761.3674                   24435759.5164
 -27718406.57047 -21580792.10445  21649209.0314                   21649207.5354
 -16838700.98448 -13106652.53945  21939842.0314                   21939838.7034
 11  9 27  2 20  0.0000000  0  7G22G29G15G18G05G26G21
  26017793.70746  20293035.01643  24492590.7894                   24492590.2774
 -41498005.33248 -32314258.24146  20407491.3054                   20407489.3524
 -26260749.50448 -20440010.69047  20451110.7344                   20451108.4264
 -11219318.33248  -8720137.19945  21701294.6414                   21701292.5824
 -46322333.95746 -36070671.65843  24433353.2664                   24433352.0944
 -27752794.59847 -21607587.96345  21642665.4384                   21642664.2344
 -16998026.81248 -13230802.47545  21909523.2424                   21909520.0274
 11  9 27  2 20 30.0000000  0  7G22G29G15G18G05G26G21
  27422844.59047  21387880.01144  24759962.7504                   24759962.2624
 -39976656.92248 -31128791.94847  20696994.4534                   20696992.1054
 -24780825.74248 -19286823.31347  20732731.0474                   20732728.7704
  -9777877.34848  -7596936.37245  21975591.7344                   21975589.6134
 -44759616.44546 -34852969.67543  24730729.1804                   24730726.6804
 -26211161.95747 -20406315.77645  21936028.3284                   21936027.3364
 -15581864.62548 -12127299.41246  22179009.5634                   22179006.5824
 11  9 27  2 21  0.0000000  0  7G22G29G15G18G05G26G21
  27252636.88746  21255250.76943  24727573.2814                   24727572.0434
 -40030190.96948 -31170506.78946  20686807.1724                   20686805.1454
 -24875717.02348 -19360764.55547  20714674.2424                   20714671.4964
  -9911619.77348  -7701151.20945  21950141.2894                   21950138.9414
 -44772374.05146 -34862910.65343  24728301.5234                   24728298.3834
 -26244354.41847 -20432180.02945  21929711.8524                   21929710.6884
 -15741064.72748 -12251351.39545  22148714.8524                   22148712.0474
 11  9 27  2 21 30.0000000  0  7G22G29G15G18G05G26G21
  27082598.66047  21122753.60144  24695216.1644                   24695214.9064
 -40083184.93448 -31211800.79447  20676723.0234                   20676720.6804
 -24969998.64147 -19434230.72247  20696732.8444                   20696730.5664
 -10045119.69948  -7805177.07045  21924737.1884                   21924734.3484
 -44785185.57946 -34872893.61643  24725863.3444                   24725861.3834
 -26276951.57847 -20457580.42045  21923509.2734                   21923507.5864
 -15900198.68748 -12375351.84645  22118432.8594                   22118429.0664
 11  9 27  2 22  0.0000000  0  7G22G29G15G18G05G26G21
  26912731.63347  20990389.86344  24662891.5474                   24662889.9224
 -40135638.58648 -31252673.76846  20666741.2734                   20666739.1214
 -25063669.28548 -19507220.80146  20678907.3524                   20678905.3634
 -10178375.82048  -7909012.95845  21899379.5554                   21899376.8324
 -44798049.96146 -34882917.85244  24723415.6884                   24723413.2034
 -26308954.34447 -20482517.65345  21917419.4614                   21917417.4884
 -16059263.36348 -12499298.31245  22088164.0704                   22088159.5234
 11  9 27  2 22 30.0000000  0  7G22G29G15G18G05G26G21
  26743034.00046  20858158.04944  24630599.0004                   24630597.6644
 -40187554.61748 -31293127.84246  20656861.7344                   20656859.9884
 -25156730.38348 -19579735.92547  20661198.9384                   20661196.3444
 -10311390.81648  -8012660.96745  21874067.6884                   21874064.6604
 -44810969.32846 -34892984.82943  24720956.5864                   24720954.8754
 -26340366.59447 -20506994.72945  21911441.8054                   21911439.8754
 -16218259.17648 -12623191.10145  22057908.2584                   22057903.3284
 11  9 27  2 23  0.0000000  0  7G22G29G15G18G05G26G21
  26573504.82046  20726057.53244  24598338.4534                   24598336.4384
 -40238935.44548 -31333164.85646  20647084.6254                   20647082.6604
 -25249183.90648 -19651777.61046  20643605.5234                   20643603.4384
 -10444166.31248  -8116122.33245  21848801.0784                   21848798.4384
 -44823945.52746 -34903096.19043  24718487.4064                   24718485.4414
 -26371192.18747 -20531014.68345  21905575.8204                   21905573.8244
 -16377185.80148 -12747029.98445  22027665.3524                   22027661.2544
 11  9 27  2 23 30.0000000  0  7G22G29G15G18G05G26G21
  26404147.80146  20594091.12343  24566111.4064                   24566108.9184
 -40289778.76648 -31372783.04047  20637409.2504                   20637407.2584
 -25341026.41048 -19723343.17147  20626128.1884                   20626126.1334
 -10576699.57448  -8219394.96545  21823580.8984                   21823578.2384
 -44836975.99646 -34913249.77443  24716007.8754                   24716006.1134
 -26401430.07047 -20554576.64945  21899821.9384                   21899819.8874
 -16536038.21548 -12870811.03445  21997436.5084                   21997433.0704
 11  9 27  2 24  0.0000000  0  7G22G29G15G18G05G26G21
  26234963.39846  20462259.28243  24533916.5704                   24533914.4384
 -40340086.03948 -31411983.52046  20627835.9844                   20627834.1374
 -25432258.41448 -19794433.02747  20608767.1484                   20608765.0744
 -10708991.12548  -8322479.23145  21798406.5944                   21798403.6884
 -44850061.10546 -34923445.96743  24713517.2504                   24713515.4804
 -26431082.73447 -20577682.65745  21894178.6334                   21894176.7854
 -16694815.30548 -12994533.39346  21967222.2664                   21967218.9884
 11  9 27  2 24 30.0000000  0  7G22G29G15G18G05G26G21
  26065951.44946  20330561.71343  24501754.3914                   24501752.2304
 -40389858.94548 -31450767.61046  20618364.4304                   20618362.8874
 -25522880.30548 -19865047.45846  20591522.7974                   20591520.2734
 -10841041.79748  -8425375.81745  21773278.2034                   21773275.3094
 -44863201.56646 -34933685.34243  24711017.0394                   24711015.1294
 -26460152.93747 -20600334.75145  21888647.9774                   21888645.0984
 -16853515.89848 -13118196.16846  21937022.7974                   21937019.1994
 11  9 27  2 25  0.0000000  0  7G22G29G15G18G05G26G21
  25897110.61346  20198997.56044  24469625.4064                   24469622.8014
 -40439100.00848 -31489137.27646  20608994.2584                   20608992.6454
 -25612894.05148 -19935188.02746  20574393.5234                   20574391.0004
 -10972853.15248  -8528085.92445  21748195.5164                   21748192.5514
 -44876399.49246 -34943969.39943  24708505.6954                   24708503.3874
 -26488644.61747 -20622536.07945  21883225.1414                   21883223.4024
 -17012139.86348 -13241799.23046  21906837.3674                   21906834.3284
 11  9 27  2 25 30.0000000  0  7G22G29G15G18G05G26G21
  25728440.63746  20067566.55543  24437527.7194                   24437526.1844
 -40487811.19548 -31527094.04246  20599724.6094                   20599722.9804
 -25702300.45348 -20004855.32547  20557379.9304                   20557377.2304
 -11104426.74248  -8630610.76645  21723158.0004                   21723155.2154
 -44889655.96946 -34954299.08543  24705982.9614                   24705981.3094
 -26516561.00847 -20644289.10445  21877913.3984                   21877910.7894
 -17170685.98848 -13365341.63445  21876666.8984                   21876663.2504
 11  9 27  2 26  0.0000000  0  7G22G29G15G18G05G26G21
  25559943.55146  19936270.26743  24405464.6024                   24405461.6214
 -40535991.63748 -31564637.25746  20590556.4614                   20590554.7074
 -25791097.84448 -20074048.08046  20540482.2424                   20540479.7384
 -11235761.29748  -8732949.33146  21698165.7344                   21698162.9734
 -44902969.70746 -34964673.35543  24703448.7814                   24703447.6174
 -26543902.39147 -20665594.07445  21872710.3594                   21872708.3874
 -17329151.23047 -13488821.01645  21846511.6804                   21846508.2734
 11  9 27  2 26 30.0000000  0  7G22G29G15G18G05G26G21
  25391618.40246  19805107.94343  24373431.7114                   24373430.7384
 -40583643.87548 -31601768.87846  20581488.5314                   20581486.8164
 -25879287.93448 -20142767.61246  20523700.3754                   20523698.0864
 -11366858.31648  -8835102.81046  21673218.6094                   21673215.5004
 -44916342.18446 -34975093.46143  24700904.9534                   24700903.6954
 -26570672.86747 -20686454.20645  21867616.0784                   21867614.0434
 -17487535.16448 -13612237.02646  21816372.7344                   21816369.2734
 11  9 27  2 27  0.0000000  0  7G22G29G15G18G05G26G21
  25223466.60246  19674080.66143  24341434.2584                   24341431.9654
 -40630768.13348 -31638489.08146  20572521.2114                   20572519.6604
 -25966869.95348 -20211013.30246  20507034.0554                   20507031.8094
 -11497717.26248  -8937070.78645  21648316.7584                   21648313.5594
 -44929773.03946 -34985559.07243  24698349.1724                   24698347.4614
 -26596873.73847 -20706870.45845  21862630.1094                   21862628.1524
 -17645835.03548 -13735587.54446  21786249.3914                   21786245.6414
 11  9 27  2 27 30.0000000  0  7G22G29G15G18G05G26G21
  25055485.66846  19543186.63843  24309468.3364                   24309466.1884
 -40677368.84048 -31674801.32846  20563653.1954                   20563651.6884
 -26053847.14148 -20278787.72047  20490482.9224                   20490480.2384
 -11628341.34448  -9038855.74745  21623460.1804                   21623456.9104
 -44943265.16446 -34996072.33843  24695782.0864                   24695779.0124
 -26622510.17247 -20726846.92645  21857751.8594                   21857749.0234
 -17804051.82448 -13858873.31146  21756141.3444                   21756137.9734
 11  9 27  2 28  0.0000000  0  6G22G29G15G18G26G21
  24887678.38746  19412427.97443  24277535.1094                   24277534.0044
 -40723444.40248 -31710704.36846  20554885.3364                   20554883.7734
 -26140217.07848 -20346088.94947  20474047.1564                   20474045.0744
 -11758728.08248  -9140455.76646  21598648.5704                   21598644.6174
 -26647582.38347 -20746383.70345  21852980.6414                   21852978.8134
 -17962181.45347 -13982091.14846  21726050.3524                   21726046.8524
 11  9 27  2 28 30.0000000  0  6G22G29G15G18G26G21
  26295467.07446  20509406.45043  24545428.3754                   24545426.9964
 -39193577.94948 -30518600.65546  20846009.2344                   20846007.5984
 -24650560.83648 -19185317.82846  20757519.2424                   20757517.2704
 -10313457.48448  -8014270.84946  21873674.2814                   21873670.7734
 -25096675.10947 -19537884.55145  22148108.7974                   22148107.2934
 -16544800.55947 -12877638.45746  21995768.3914                   21995765.1844
 11  9 27  2 29  0.0000000  0  6G22G29G15G18G26G21
  26128012.38346  20378922.47043  24513562.4144                   24513561.3554
 -39238602.60548 -30553684.80846  20837441.5164                   20837439.5554
 -24735713.46948 -19251670.51547  20741315.2504                   20741312.7624
 -10443367.24648  -8115499.17246  21848953.4534                   21848949.7894
 -25120621.30147 -19556543.91345  22143551.3674                   22143549.8794
 -16702746.55147 -13000713.21546  21965712.6724                   21965709.5864
 11  9 27  2 29 30.0000000  0  6G22G29G15G18G26G21
  25960742.53946  20248582.58843  24481731.2424                   24481730.2624
 -39283096.44148 -30588355.34246  20828974.7814                   20828972.7544
 -24820250.32048 -19317543.36846  20725228.5554                   20725226.1134
 -10573031.59047  -8216536.28146  21824278.9534                   21824275.2074
 -25144000.57447 -19574761.55645  22139102.9694                   22139101.0984
 -16860590.31247 -13123708.33146  21935676.2504                   21935672.9804
 11  9 27  2 30  0.0000000  0  6G22G29G15G18G26G21
  25793654.62146  20118384.47343  24449935.4844                   24449933.7074
 -39327062.86348 -30622614.90346  20820608.2034                   20820606.9264
 -24904174.03948 -19382938.45446  20709258.4144                   20709255.8244
 -10702453.03147  -8317384.12046  21799650.7974                   21799647.5204
 -25166818.04747 -19592541.40944  22134760.6174                   22134759.2734
 -17018332.66448 -13246624.42846  21905658.9144                   21905655.4414
 11  9 27  2 30 30.0000000  0  6G22G29G15G18G26G21
  25626749.86747  19988329.04244  24418175.2194                   24418173.5274
 -39370502.73848 -30656464.15846  20812341.5944                   20812340.1134
 -24987484.87548 -19447855.97646  20693405.0394                   20693402.0594
 -10831631.85547  -8418042.89245  21775068.4224                   21775066.0434
 -25189075.73847 -19609885.09545  22130525.5164                   22130523.2704
 -17175971.66447 -13369459.97746  21875661.1024                   21875657.8284
 11  9 27  2 31  0.0000000  0  6G22G29G15G18G26G21
  25460026.40647  19858414.95143  24386447.9534                   24386445.6684
 -39413419.51648 -30689905.81146  20804174.9454                   20804173.2154
 -25070185.24248 -19512297.80846  20677667.6564                   20677664.5744
 -10960570.32848  -8518514.38746  21750532.3204                   21750529.3054
 -25210778.18047 -19626796.07345  22126395.3364                   22126393.8594
 -17333507.01647 -13492214.76546  21845682.5944                   21845679.3594
 11  9 27  2 31 30.0000000  0  6G22G29G15G18G26G21
  25293480.46147  19728639.15044  24354755.3754                   24354754.1684
 -39455818.97348 -30722944.35946  20796106.7974                   20796104.6684
 -25152279.68748 -19576267.48747  20662045.3674                   20662042.6994
 -11089272.98847  -8618802.13145  21726041.3134                   21726037.9804
 -25231932.05147 -19643279.61344  22122370.0704                   22122368.4964
 -17490941.27047 -13614890.74046  21815724.2424                   21815720.8594
 11  9 27  2 32  0.0000000  0  6G22G29G15G18G26G21
  25127112.38346  19599001.95143  24323096.8134                   24323094.3404
 -39497702.09048 -30755580.56746  20788136.3134                   20788134.9924
 -25233768.93048 -19639765.59247  20646538.5234                   20646536.0044
 -11217740.26247  -8718906.43446  21701594.2504                   21701591.6684
 -25252540.05947 -19659337.79845  22118448.4224                   22118446.5354
 -17648272.28147 -13737486.30246  21785784.9534                   21785781.5474
 11  9 27  2 32 30.0000000  0  6G22G29G15G18G26G21
  24960924.20347  19469504.88744  24291472.1644                   24291469.5434
 -39539068.74248 -30787814.32846  20780264.8674                   20780262.9494
 -25314651.60548 -19702791.02347  20631146.8594                   20631144.1094
 -11345970.97747  -8818826.42746  21677192.9224                   21677190.2624
 -25272602.94547 -19674971.23044  22114630.5394                   22114628.8204
 -17805496.99647 -13859999.03446  21755866.2344                   21755862.6644
 11  9 27  2 33  0.0000000  0  6G22G29G15G18G26G21
  24794913.73047  19340146.36644  24259880.9064                   24259879.0004
 -39579922.71948 -30819648.61446  20772490.5704                   20772488.4924
 -25394930.73448 -19765346.19546  20615870.3834                   20615867.9884
 -11473967.95747  -8918564.28146  21652835.9694                   21652832.5514
 -25292125.72347 -19690183.77644  22110915.8524                   22110914.3164
 -17962616.30547 -13982429.64346  21725967.2114                   21725963.8054
 11  9 27  2 33 30.0000000  0  6G22G29G15G18G26G21
  24629081.67247  19210926.81744  24228323.6564                   24228322.4774
 -39620264.93048 -30851084.09646  20764813.6334                   20764811.5634
 -25474606.46548 -19827431.16446  20600708.6094                   20600705.6724
 -11601731.33647  -9018120.10646  21628523.0394                   21628519.7154
 -25311110.60247 -19704977.19845  22107302.5634                   22107301.1454
 -18119628.02747 -14104776.40946  21696088.5554                   21696085.4454
 11  9 27  2 34  0.0000000  0  6G22G29G15G18G26G21
  24463425.87547  19081844.59644  24196800.3754                   24196798.4414
 -39660099.34048 -30882123.90646  20757233.5784                   20757231.4184
 -25553681.65648 -19889048.17246  20585661.0164                   20585658.6024
 -11729263.68747  -9117495.90746  21604254.6414                   21604251.3484
 -25329562.31647 -19719355.17344  22103791.8054                   22103789.9414
 -18276531.66047 -14227038.93646  21666230.7584                   21666227.8874
 11  9 27  2 34 30.0000000  0  7G22G09G29G15G18G26G21
  24297944.85547  18952898.57244  24165310.6954                   24165308.1564
  29663999.56656  23130883.85952  24790136.4304                   24790137.0044
 -39699429.17247 -30912770.54146  20749749.1484                   20749747.1524
 -25632158.91448 -19950199.26946  20570727.2734                   20570724.9534
 -11856566.93747  -9216693.20946  21580029.7034                   21580026.6254
 -25347485.61747 -19733321.36645  22100380.7974                   22100379.6644
 -18433327.77747 -14349217.69046  21636393.5704                   21636390.5664
 11  9 27  2 35  0.0000000  0  7G22G09G29G15G18G26G21
  24132631.43046  18824083.09244  24133852.2274                   24133849.5394
  29481361.02046  22988568.24643  24755380.9774                   24755381.9414
 -39738263.29347 -30943030.90446  20742359.2814                   20742357.1374
 -25710046.07848 -20010890.54446  20555906.0084                   20555903.3834
 -11983649.25047  -9315718.34146  21555846.5394                   21555843.7734
 -25364890.23047 -19746883.39745  22097068.8984                   22097067.4774
 -18590021.87148 -14471316.94746  21606575.8674                   21606572.4304
 11  9 27  2 35 30.0000000  0  7G22G09G29G15G18G26G21
  23967482.36747  18695395.64044  24102425.4384                   24102422.7974
  29298631.07446  22846181.40143  24720609.3204                   24720610.7194
 -39776606.84447 -30972909.00446  20735062.7734                   20735060.7384
 -25787347.55948 -20071125.44346  20541195.9144                   20541193.2504
 -12110514.59447  -9414574.40546  21531704.6804                   21531701.5634
 -25381782.70747 -19760046.39245  22093854.3054                   22093852.8444
 -18746615.75047 -14593338.12546  21576777.0164                   21576772.9654
 11  9 27  2 36  0.0000000  0  7G22G09G29G15G18G26G21
  23802499.45746  18566837.75344  24071029.3914                   24071027.8554
  29115814.89846  22703727.29543  24685820.7974                   24685821.1804
 -39814459.58247 -31002404.67146  20727859.6724                   20727857.5744
 -25864062.30548 -20130903.16446  20526597.6644                   20526594.8324
 -12237161.74247  -9513260.45746  21507604.6564                   21507601.7814
 -25398164.07847 -19772811.10044  22090737.1884                   22090735.0744
 -18903105.85248 -14715278.43846  21546997.9614                   21546993.8284
 11  9 27  2 36 30.0000000  0  7G22G09G29G15G18G26G21
  23637684.53147  18438410.70044  24039666.6094                   24039663.6994
  28932916.73446  22561209.40144  24651016.7194                   24651017.5004
 -39851821.69547 -31031518.02846  20720749.9454                   20720747.9534
 -25940189.71948 -20190223.21046  20512111.2034                   20512108.4024
 -12363589.72747  -9611775.70746  21483546.0234                   21483543.1724
 -25414035.46547 -19785178.41144  22087717.3674                   22087715.5634
 -19059488.85548 -14837135.29546  21517239.2034                   21517235.4344
 11  9 27  2 37  0.0000000  0  7G22G09G29G15G18G26G21
  25048464.63746  19537719.92944  24308129.4304                   24308125.9694
  30325367.62946  23646236.14943  24915990.4694                   24915991.3794
 -38313272.33247 -29832648.41246  21013526.0784                   21013524.2274
 -24440306.52048 -19021483.03146  20797529.1884                   20797526.7154
 -10914373.63747  -8482516.37446  21759322.8204                   21759319.6524
 -23853977.64547 -18569548.95544  22384585.8754                   22384584.0084
 -17640336.14848 -13731301.99346  21787294.4614                   21787291.6174
 11  9 27  2 37 30.0000000  0  7G22G09G29G15G18G26G21
  24883990.68447  19409558.55044  24276830.5084   24276827.4964   30142320.28546
  23503601.96844  24881158.7974   24881159.2544
 -38349653.73848 -29860997.56346  21006602.7504                   21006601.4654
 -24515256.97748 -19079885.97046  20783266.6094                   20783263.9534
 -11040360.33648  -8580687.78146  21735348.4224                   21735345.0164
 -23868832.50847 -18581124.21244  22381759.7974                   22381757.7274
 -17796494.33248 -13852983.66546  21757579.0704                   21757575.2704
 11  9 27  2 38  0.0000000  0  7G22G09G29G15G18G26G21
  24719685.41446  19281528.63944  24245563.9064   24245561.4064
  29959200.64847  23360911.46644  24846311.1174                   24846311.7544
 -38385548.95747 -29888967.88846  20999772.2894                   20999770.4454
 -24589622.40248 -19137833.03546  20769115.5004                   20769112.8324
 -11166129.19947  -8678689.44846  21711415.0784                   21711412.5044
 -23883185.64547 -18592308.50245  22379028.1954                   22379026.4534
 -17952539.79348 -13974577.51246  21727884.1724                   21727880.8874
 11  9 27  2 38 30.0000000  0  7G22G09G29G15G18G26G21
  24555551.69946  19153632.30744  24214330.8524   24214326.6174
  29776014.62146  23218169.19044  24811452.2814                   24811453.0514
 -38420957.24647 -29916558.77346  20993034.1644                   20993032.1914
 -24663400.92648 -19195322.78746  20755075.5004                   20755073.3484
 -11291677.91047  -8776519.56846  21687523.9924                   21687520.6604
 -23897037.12147 -18603101.85944  22376392.1484                   22376390.4414
 -18108468.26247 -14096080.17846  21698212.1564                   21698208.3714
 11  9 27  2 39  0.0000000  0  7G22G09G29G15G18G26G21
  24391588.62946  19025869.03644  24183129.0704   24183125.8524
  29592764.35246  23075376.88944  24776580.2424                   24776581.7344
 -38455881.30547 -29943772.34446  20986389.0784                   20986386.8164
 -24736594.53948 -19252356.75746  20741147.0944                   20741144.8524
 -11417008.08247  -8874179.40246  21663674.3754                   21663671.3634
 -23910390.49647 -18613507.08644  22373850.9144                   22373849.3244
 -18264278.18747 -14217490.48046  21668562.4144                   21668558.5004
 11  9 27  2 39 30.0000000  0  7G22G09G29G15G18G26G21
  24227798.77046  18898240.68944  24151961.1564   24151957.9224
  29409455.21546  22932538.73443  24741697.9064                   24741698.9454
 -38490320.75847 -29970608.28546  20979834.8834                   20979833.1644
 -24809201.95748 -19308933.95446  20727330.4534                   20727328.1994
 -11542118.20347  -8971667.75945  21639866.9774                   21639863.7624
 -23923246.41447 -18623524.68245  22371405.0784                   22371402.9774
 -18419965.73447 -14338805.42946  21638936.0634                   21638932.4024
 11  9 27  2 40  0.0000000  0  7G22G09G29G15G18G26G21
  24064179.30947  18770745.06044  24120825.7734   24120821.4694
  29226087.74646  22789655.10343  24706803.9384                   24706804.6524
 -38524279.83647 -29997069.92446  20973372.7194                   20973371.1524
 -24881226.32848 -19365056.82646  20713624.3284                   20713622.4884
 -11667011.14847  -9068986.89146  21616099.8984                   21616097.0554
 -23935610.48847 -18633159.03144  22369051.5944                   22369050.3244
 -18575531.42647 -14460025.43446  21609332.9144                   21609329.1524
 11  9 27  2 40 30.0000000  0  7G22G09G29G15G18G26G21
  23900730.00046  18643382.09144  24089721.7894   24089718.2704
  29042664.63345  22646728.13743  24671899.7194                   24671900.7504
 -38557761.02047 -30023159.17046  20967001.2424                   20966999.8284
 -24952669.64548 -19420726.93246  20700029.8284                   20700027.4454
 -11791687.94947  -9166137.60946  21592374.8444                   21592372.0394
 -23947486.19947 -18642412.86444  22366792.1724                   22366790.1844
 -18730974.06647 -14581149.53746  21579753.1954                   21579749.7544
 11  9 27  2 41  0.0000000  0  7G22G09G29G15G18G26G21
  23737452.90646  18516153.33043  24058650.6884   24058646.9884
  28859190.96946  22503761.77343  24636985.8594                   24636986.1884
 -38590763.96947 -30048875.77646  20960721.8204                   20960719.7664
 -25023530.73048 -19475943.35946  20686545.2664                   20686542.5164
 -11916146.88347  -9263118.54946  21568691.0394                   21568688.2304
 -23958874.22347 -18651286.64144  22364625.1724                   22364623.3984
 -18886290.08247 -14702174.97946  21550197.5474                   21550194.1254
 11  9 27  2 41 30.0000000  0  7G22G09G29G15G18G26G21
  23574347.60247  18389058.38644  24027613.3284   24027610.0594
  28675669.32045  22360758.04443  24602062.1174                   24602062.4614
 -38623291.16448 -30074221.65746  20954531.7194                   20954530.1294
 -25093811.27747 -19530707.40846  20673171.0864                   20673168.7344
 -12040390.00847  -9359931.33445  21545048.5554                   21545045.6214
 -23969778.20747 -18659783.25644  22362550.1954                   22362548.2544
 -19041478.17247 -14823100.72946  21520666.2894                   21520662.4574
 11  9 27  2 42  0.0000000  0  7G22G09G29G15G18G26G21
  23411413.27747  18262096.71944  23996607.3134   23996604.4384
  28492101.86346  22217718.58643  24567131.2194                   24567130.4924
 -38655344.91848 -30099198.63446  20948432.0864                   20948430.5004
 -25163512.98048 -19585020.42546  20659907.5234                   20659905.1174
 -12164418.37947  -9456576.79546  21521446.1954                   21521443.3674
 -23980201.63347 -18667905.40645  22360566.5084                   22360565.1884
 -19196536.80147 -14943925.59446  21491159.6254                   21491155.9844
 11  9 27  2 42 30.0000000  0  7G22G09G29G15G18G26G21
  23248651.38747  18135269.42244  23965634.5704   23965630.9384
  28308493.51646  22074647.26743  24532191.6414                   24532191.9574
 -38686925.77048 -30123807.10046  20942422.3054                   20942420.8444
 -25232635.97348 -19638882.48546  20646754.0234                   20646751.1764
 -12288231.18447  -9553054.26346  21497885.8754                   21497882.9024
 -23990146.45747 -18675654.64744  22358674.0084                   22358672.3244
 -19351463.02347 -15064647.30046  21461678.0554                   21461674.4844
 11  9 27  2 43  0.0000000  0  7G22G09G29G15G18G26G21
  23086061.55947  18008576.12744  23934695.2274   23934691.6844
  28124846.85246  21931546.02043  24497245.1024                   24497244.4614
 -38718036.53148 -30148049.27346  20936502.5784                   20936500.5664
 -25301181.78948 -19692294.79546  20633709.9224                   20633707.2464
 -12411829.10947  -9649364.29946  21474365.9064                   21474363.0354
 -23999615.61747 -18683033.23344  22356872.1334                   22356870.3014
 -19506254.99647 -15185264.40846  21432222.0394                   21432218.4654
 11  9 27  2 43 30.0000000  0  7G22G09G29G15G18G26G21
  22923642.00846  17882015.57744  23903786.8674   23903783.6334
  27941163.03545  21788415.94843  24462290.5004                   24462289.9534
 -38748680.64548 -30171927.82246  20930671.0394                   20930669.1764
 -25369153.09047 -19745259.44246  20620775.1414                   20620772.4884
 -12535214.57447  -9745508.77746  21450886.3284                   21450883.4844
 -24008614.01247 -18690044.95544  22355160.1334                   22355157.3444
 -19660913.46947 -15305777.46846  21402791.4144                   21402787.9884
 11  9 27  2 44  0.0000000  0  8G22G09G29G06G15G18G26G21
  22761393.07047  17755587.98644  23872912.6094   23872909.7344
  27757445.89546  21645259.90443  24427330.3524                   24427330.7274
 -38778859.86748 -30195444.11846  20924928.1414                   20924926.1334
  31239200.28955  24358245.19953  24702626.7424                   24702626.2274
 -25436550.93447 -19797777.23746  20607950.0944                   20607947.2974
 -12658388.09048  -9841488.09646  21427447.2504                   21427444.0664
 -24017144.29747 -18696691.92444  22353536.9384                   22353534.5514
 -19815435.98848 -15426184.59346  21373386.7504                   21373383.4654
 11  9 27  2 44 30.0000000  0  8G22G09G29G06G15G18G26G21
  22599306.68846  17629287.04044  23842068.0004   23842064.1174
  27573690.29745  21502073.83143  24392362.3834                   24392362.5394
 -38808584.24648 -30218605.99446  20919271.1804                   20919269.5514
  31056919.13346  24216208.03343  24667939.4614                   24667937.9494
 -25503384.60548 -19849855.41446  20595231.6484                   20595229.0124
 -12781357.87147  -9937308.67746  21404046.9384                   21404044.0634
 -24025217.65647 -18702982.87744  22352000.3594                   22351998.1604
 -19969828.11747 -15546490.11646  21344006.8364                   21344003.2934
 11  9 27  2 45  0.0000000  0  8G22G09G29G06G15G18G26G21
  24012805.05547  18730714.42643  24111047.9844                   24111043.6914
  28965322.14546  22586462.33443  24657181.9774                   24657182.3444
 -37262437.60248 -29013816.40546  21213493.2504                   21213491.9344
  32450324.56345  25301978.61342  24933095.0554                   24933091.8284
 -23994236.98447 -18673896.20446  20882413.4614                   20882410.4804
 -11328704.85247  -8805371.22246  21680477.7664                   21680474.6334
 -22457420.34847 -17481322.64444  22650342.7894                   22650340.5944
 -18548667.08647 -14439091.88546  21614445.3834                   21614441.3054
 11  9 27  2 45 30.0000000  0  8G22G09G29G06G15G18G26G21
  23851038.23446  18604662.51444  24080264.2584                   24080260.5554
  28781493.57846  22443219.45843  24622200.0634                   24622199.9534
 -37291263.27748 -29036277.99546  21208008.5394                   21208006.3984
  32268568.34846                  25160350.45343  24898509.2814   24898505.7304
 -24059951.99647 -18725102.70846  20869908.0864                   20869905.5124
 -11451275.99247  -8900881.16346  21657153.2344                   21657150.0274
 -22464594.50446 -17486912.87044  22648977.2194                   22648975.1174
 -18702799.30547 -14559194.87646  21585114.6414                   21585110.6134
 11  9 27  2 46  0.0000000  0  8G22G09G29G06G15G18G26G21
  23689430.91047  18478734.87844  24049511.3594                   24049507.8164
  28597633.30146  22299951.75243  24587212.0004                   24587212.5204
 -37319643.07048 -29058392.14446  21202608.0864                   21202606.4694
  32087078.20346                  25018929.70742  24863972.1414   24863969.8594
 -24125109.58647 -18775874.83846  20857509.2034                   20857506.2154
 -11573648.80148  -8996236.57246  21633866.4454                   21633863.5824
 -22471323.72346 -17492156.42544  22647696.8914                   22647694.9414
 -18856799.29748 -14679194.85546  21555809.5234                   21555805.8324
 11  9 27  2 46 30.0000000  0  8G22G09G29G06G15G18G26G21
  23527987.71547  18352935.07144  24018789.9534                   24018786.5514
  28413748.89846  22156665.35544  24552220.0784                   24552219.9574
 -37347574.36348 -29080156.81146  21197292.3914                   21197291.0784
  31905860.91046                  24877721.53143  24829488.5314   24829486.6954
 -24189706.63347 -18826210.19246  20845216.6724                   20845213.8834
 -11695819.13747  -9091434.19946  21610618.2194                   21610614.6294
 -22477606.57446 -17497052.15844  22646500.2114                   22646499.5274
 -19010660.20747 -14799086.43446  21526530.6024                   21526526.9774
 11  9 27  2 47  0.0000000  0  8G22G09G29G06G15G18G26G21
  23366706.80147  18227261.74544  23988098.8914                   23988095.4844
  28229841.96146  22013361.35543  24517223.0084                   24517223.5204
 -37375060.84048 -29101574.84346  21192062.1884                   21192060.3524
  31724917.55546                  24736726.87443  24795056.3524   24795054.9144
 -24253746.27748 -18876111.19146  20833030.6724                   20833027.5864
 -11817789.06648  -9186475.68146  21587408.5314                   21587404.9304
 -22483447.79346 -17501603.74644  22645390.1564                   22645387.7814
 -19164381.64847 -14918869.33946  21497278.2034                   21497274.9614
 11  9 27  2 47 30.0000000  0  8G22G09G29G06G15G18G26G21
  23205589.70347  18101716.11344  23957438.8984                   23957436.3134
  28045917.25446  21870043.45543  24482223.3984                   24482223.4144
 -37402103.10248 -29122646.76346  21186916.4694                   21186914.9494
  31544251.87146                  24595948.46743  24760676.8984   24760677.0394
 -24317227.96147 -18925577.40846  20820949.9774                   20820947.1844
 -11939558.07847  -9281360.58746  21564236.3204                   21564233.0164
 -22488848.75046 -17505812.25544  22644361.3674                   22644360.1684
 -19317960.34048 -15038541.03946  21468053.0084                   21468049.5204
 11  9 27  2 48  0.0000000  0  8G22G09G29G06G15G18G26G21
  23044639.34447  17976300.40444  23926811.3594                   23926808.0234
  27861980.85246  21726716.49444  24447221.7034                   24447222.7154
 -37428700.33648 -29143371.91446  21181855.0084                   21181853.3984
  31363869.16446                  24455390.61943  24726349.8914   24726350.5864
 -24380150.60547 -18974608.04946  20808976.3134                   20808973.7814
 -12061123.73047  -9376087.05146  21541102.7664                   21541099.5944
 -22493809.82446 -17509678.03644  22643417.7734                   22643416.2734
 -19471391.26647 -15158097.57846  21438856.5394                   21438852.5004
 11  9 27  2 48 30.0000000  0  8G22G09G29G06G15G18G26G21
  22883855.57847  17851014.49544  23896215.2344                   23896212.2274
  27678036.00046  21583382.97944  24412218.0394                   24412218.8054
 -37454854.63348 -29163751.88846  21176877.7734                   21176876.4494
  31183771.91846                  24315055.25543  24692079.0004   24692079.1684
 -24442515.68447 -19023204.21046  20797108.5164                   20797106.0664
 -12182487.16047  -9470655.90346  21518008.3284                   21518004.9804
 -22498333.84046 -17513203.23744  22642556.3984                   22642555.7934
 -19624673.10248 -15277537.95746  21409687.8754                   21409683.9304
 11  9 27  2 49  0.0000000  0  8G22G09G29G06G15G18G26G21
  22723235.37547  17725856.01744  23865650.0084                   23865647.7114
  27494082.66846  21440042.77244  24377213.2504                   24377213.7544
 -37480571.56648 -29183791.09046  21171984.7584                   21171982.6414
  31003959.17246                  24174941.51443  24657861.5864   24657861.8754
 -24504327.83248 -19071369.51846  20785346.0474                   20785343.4804
 -12303652.08248  -9565070.11046  21494951.3834                   21494948.2194
 -22502427.46946 -17516393.07044  22641777.8834                   22641776.5164
 -19777806.95347 -15396863.01546  21380547.1414                   21380543.6564
 11  9 27  2 49 30.0000000  0  8G22G09G29G06G15G18G26G21
  22562781.84847  17600827.45244  23835116.7814                   23835113.9454
  27310127.66846  21296701.36944  24342208.1564                   24342207.8404
 -37505849.37148 -29203488.10846  21167174.4144                   21167172.1454
  30824437.17646                  24035054.37543  24623699.8204   24623699.2544
 -24565584.45748 -19119101.93946  20773689.3914                   20773686.9384
 -12424615.16048  -9659327.02446  21471932.8444                   21471929.9884
 -22506090.04046 -17519247.05044  22641080.8834                   22641078.8484
 -19930787.00448 -15516068.22346  21351436.2664                   21351432.4844
 11  9 27  2 50  0.0000000  0  8G22G09G29G06G15G18G26G21
  22402494.26247  17475928.14844  23804614.3524                   23804611.5164
  27126173.15646  21153360.30944  24307202.4224                   24307202.3094
 -37530691.05548 -29222845.28146  21162446.5784                   21162444.7544
  30645207.24246                  23895394.81043  24589593.4534   24589592.5784
 -24626288.43448 -19166403.74646  20762137.5004                   20762134.9804
 -12545378.27348  -9753428.13146  21448952.1254                   21448949.1374
 -22509325.66847 -17521768.25144  22640465.0944                   22640463.4804
 -20083612.32848 -15635152.87146  21322354.3914                   21322351.0784
 11  9 27  2 50 30.0000000  0  8G22G09G29G06G15G18G26G21
  22242371.89847  17351157.58244  23774144.7814                   23774141.3404
  26942221.97346  21010021.86943  24272197.1174                   24272197.7504
 -37555099.41048 -29241864.78946  21157801.9924                   21157800.1024
  30466271.18846                  23755964.17043  24555542.1024   24555541.5634
 -24686441.62548 -19213276.36346  20750691.1804                   20750688.5784
 -12665942.63347  -9847374.34646  21426009.6254                   21426006.1094
 -22512138.04347 -17523959.69544  22639930.1804                   22639927.6214
 -20236281.51648 -15754115.86846  21293302.5864                   21293298.4774
 11  9 27  2 51  0.0000000  0  8G22G09G29G06G15G18G26G21
  22082415.48447  17226516.36344  23743705.8444                   23743702.4804
  26758278.39146  20866689.32744  24237194.0944                   24237193.6844
 -37579076.04348 -29260547.90646  21153239.6644                   21153237.6134
  30287632.43446                  23616765.22643  24521548.2034   24521545.2504
 -24746044.78548 -19259720.38046  20739348.6724                   20739346.5394
 -12786307.61747  -9941165.21246  21403104.9694                   21403101.3484
 -22514528.90246 -17525822.69844  22639475.0474                   22639473.1804
 -20388791.83648 -15872955.06646  21264280.6724                   21264277.0234
 11  9 27  2 51 30.0000000  0  8G22G09G29G06G15G18G26G21
  21922622.65247  17102002.58444  23713297.6334                   23713294.9344
  26574342.84046  20723363.05943  24202191.2034                   24202192.1524
 -37602625.43048 -29278898.09346  21148758.3444                   21148756.2774
  30109290.60546                  23477797.65943  24487611.9694   24487609.5514
 -24805101.81647 -19305738.83846  20728110.7664                   20728107.9844
 -12906476.92247 -10034803.60046  21380237.5784                   21380233.5904
 -22516504.65646 -17527362.22944  22639098.9694                   22639097.2894
 -20541143.82048 -15991670.87946  21235289.1174                   21235285.2154
 11  9 27  2 52  0.0000000  0  8G22G09G29G06G15G18G26G21
  21762996.09847  16977618.35544  23682922.2114                   23682918.9884
  26390421.81646  20580048.07143  24167192.3674                   24167192.1644
 -37625746.98848 -29296914.92846  21144358.3914                   21144356.1994
  29931251.24646                  23339065.80743  24453730.6334   24453729.6914
 -24863611.39547 -19351330.71446  20716976.3834                   20716974.1054
 -13026447.91447 -10128287.46446  21357407.9144                   21357404.1914
 -22518064.90647 -17528577.97244  22638801.6484                   22638799.7154
 -20693332.50848 -16110259.46046  21206328.3754                   21206324.9344
 11  9 27  2 52 30.0000000  0  8G22G09G29G06G15G18G26G21
  21603534.58647  16853362.75344  23652577.3444                   23652574.7304
  26206517.53146  20436746.17443  24132196.3364                   24132196.4924
 -37648443.61348 -29314600.62046  21140039.3054                   21140037.3754
  29753515.63746                  23200570.59043  24419909.3204   24419908.4024
 -24921576.09448 -19396498.00346  20705946.2114                   20705943.8794
 -13146222.28948 -10221618.09946  21334615.1644                   21334611.8954
 -22519213.98046 -17529473.27844  22638582.4384                   22638580.7464
 -20845356.84048 -16228719.95146  21177399.4694                   21177395.5664
 11  9 27  2 53  0.0000000  0  8G22G09G29G06G15G18G26G21
  23019662.68047  17956839.30644  23922058.1094                   23922053.6764
  27598058.60246  21521063.99443  24396998.0314                   24396997.1954
 -36095297.73848 -28104357.08646  21435592.7974                   21435591.1294
  31151511.28545                  24289918.02043  24685938.6094   24685938.5904
 -23403576.27048 -18213641.00046  20994812.0314                   20994809.2194
 -11690377.49648  -9087193.57246  21611653.2814                   21611650.5124
 -20944535.66046 -16302451.20044  22938234.2974                   22938232.1764
 -19421790.68048 -15119447.61346  21448294.5784                   21448291.0234
 11  9 27  2 53 30.0000000  0  8G22G09G29G06G15G18G26G21
  22860531.35547  17832840.95744  23891775.9224                   23891771.8404
  27414197.62546  21377795.81443  24362011.2114                   24362009.7304
 -36117151.40648 -28121385.95146  21431434.6094                   21431432.9064
  30974390.41046                  24151901.82943  24652233.1484   24652234.5744
 -23460456.07048 -18257962.92646  20983988.5234                   20983985.7194
 -11809760.67248  -9180219.38646  21588935.3984                   21588932.0274
 -20944871.77746 -16302713.04244  22938170.2584                   22938168.6024
 -19573480.25448 -15237647.27246  21419429.0704                   21419425.2234
 11  9 27  2 54  0.0000000  0  8G22G09G29G06G15G18G26G21
  22701565.16447  17708971.33944  23861525.2584                   23861522.3164
  27230363.67246  21234548.67944  24327028.3524                   24327027.7894
 -36138587.11348 -28138089.12546  21427355.2274                   21427354.1644
  30797580.75846                  24014128.16943  24618587.8364   24618587.6884
 -23516795.67648 -18301863.91746  20973267.3754                   20973264.5434
 -11928948.85948  -9273093.26546  21566254.6884                   21566251.1094
 -20944805.78546 -16302661.61843  22938183.4224                   22938180.4654
 -19724999.34448 -15355714.07446  21390595.7734                   21390592.3204
 11  9 27  2 54 30.0000000  0  8G22G09G29G06G15G18G26G21
  22542765.62547  17585231.51044  23831307.6884                   23831303.0594
  27046561.64146  21091326.39943  24292051.6024                   24292052.2154
 -36159605.07448 -28154466.76946  21423355.6414                   21423354.1054
  30621086.25046                  23876600.05043  24585002.0704   24585000.8204
 -23572594.96148 -18345343.88046  20962648.9144                   20962646.1484
 -12047940.79748  -9365814.22546  21543610.8594                   21543607.6524
 -20944339.41046 -16302298.13344  22938271.5234                   22938269.8204
 -19876344.06648 -15473645.01946  21361795.8984                   21361792.4184
 11  9 27  2 55  0.0000000  0  8G22G09G29G06G15G18G26G21
  22384129.70747  17461619.22744  23801119.3524                   23801115.5394
  26862791.91846  20948129.38043  24257082.1724                   24257080.2704
 -36180210.54748 -28170523.02146  21419435.0944                   21419433.0984
  30444906.37146                  23739317.09443  24551475.2734   24551474.2424
 -23627858.73048 -18388406.55346  20952132.3284                   20952129.9024
 -12166740.55948  -9458385.43146  21521004.4384                   21521001.0394
 -20943478.39146 -16301627.16544  22938435.8444                   22938432.9734
 -20027515.86348 -15591441.20846  21333029.2034                   21333024.9844
 11  9 27  2 55 30.0000000  0  8G22G09G29G06G15G18G26G21
  22225659.24247  17338135.81344  23770964.1724                   23770959.9964
  26679059.59047  20804961.42143  24222118.5474                   24222116.4804
 -36200403.96548 -28186258.16446  21415591.6414                   21415590.4734
  30269045.19146                  23602282.46143  24518011.1644   24518008.9924
 -23682586.63748 -18431051.67446  20941718.0554                   20941715.7734
 -12285346.87548  -9550805.91346  21498434.2034                   21498431.4734
 -20942224.20747 -16300649.87844  22938674.4454                   22938672.1804
 -20178510.71548 -15709099.50846  21304295.5084                   21304291.7774
 11  9 27  2 56  0.0000000  0  8G22G09G29G06G15G18G26G21
  22067352.44147  17214779.97644  23740838.7504                   23740834.2544
  26495366.66846  20661824.15543  24187162.7974                   24187161.8134
 -36220189.23848 -28201675.29546  21411827.1804                   21411825.6294
  30093503.81346                  23465497.06343  24484606.7504   24484603.4184
 -23736781.65248 -18473281.55646  20931405.3754                   20931403.1564
 -12403761.97748  -9643077.39346  21475900.5394                   21475897.1564
 -20940581.48847 -16299369.80344  22938987.1644                   22938984.1214
 -20329327.87548 -15826619.36946  21275595.9384                   21275592.3164
 11  9 27  2 56 30.0000000  0  8G22G09G29G06G15G18G26G21
  21909211.37147  17091553.23844  23710745.3134                   23710740.9344
  26311718.43046  20518721.75543  24152214.5554                   24152214.9304
 -36239566.46548 -28216774.45646  21408139.8834                   21408138.0514
  29918286.28146                  23328964.09243  24451263.6804   24451259.0904
 -23790443.71548 -18515096.14346  20921193.7274                   20921191.1804
 -12521984.37148  -9735198.71646  21453403.8364                   21453400.5124
 -20938551.61747 -16297788.03944  22939373.7194                   22939370.9574
 -20479963.18448 -15943997.51046  21246931.0084                   21246927.2034
 11  9 27  2 57  0.0000000  0  8G22G09G29G06G15G18G26G21
  21751234.46147  16968454.44444  23680683.1254                   23680679.0984
  26128117.12547  20375655.89643  24117277.8594                   24117276.0124
 -36258539.38348 -28231558.56646  21404529.2424                   21404527.8094
  29743394.05546                  23192684.43343  24417983.9694   24417979.3094
 -23843575.88748 -18556497.83346  20911082.8834                   20911079.9654
 -12640015.79348  -9827171.21146  21430942.6644                   21430939.3594
 -20936138.62947 -16295907.76744  22939832.6024                   22939830.4384
 -20630415.75848 -16061233.26446  21218300.6484                   21218296.9694
 11  9 27  2 57 30.0000000  0  8G22G09G29G06G15G18G26G21
  21593421.85947  16845483.69944  23650652.3984                   23650647.8914
  25944565.69947  20232628.85443  24082348.9064                   24082348.0824
 -36277110.31248 -28246029.44746  21400995.4304                   21400993.3014
  29568829.11746                  23056659.88643  24384764.2504   24384761.5004
 -23896179.91848 -18597487.99246  20901072.8284                   20901070.2894
 -12757857.13748  -9918995.62546  21408518.2814                   21408514.8244
 -20933345.78947 -16293731.50344  22940364.3834                   22940362.0314
 -20780684.05148 -16178325.41746  21189705.7034                   21189701.6094
 11  9 27  2 58  0.0000000  0  8G22G09G29G06G15G18G26G21
  21435772.19946  16722639.89544  23620652.2664                   23620647.2504
  25761067.07047  20089643.00844  24047430.0784                   24047428.3594
 -36295282.18048 -28260189.34846  21397537.5164                   21397535.5434
  29394593.37147                  22920891.89744  24351608.8134   24351607.1804
 -23948258.09048 -18638068.37246  20891162.5234                   20891159.9964
 -12875509.30948 -10010672.60646  21386130.1414                   21386126.4534
 -20930177.03547 -16291262.29344  22940966.5164                   22940964.6374
 -20930766.35248 -16295272.63846  21161146.0084                   21161142.0164
 11  9 27  2 58 30.0000000  0  8G22G09G29G06G15G18G26G21
  21278287.13747  16599924.33244  23590684.5554                   23590679.6604
  25577626.04347  19946702.06944  24012522.1804                   24012521.8204
 -36313055.98848 -28274039.10846  21394155.4924                   21394153.1954
  29220690.35247                  22785383.18144  24318516.2814   24318513.9694
 -23999810.92248 -18678239.40346  20881352.5944                   20881349.3874
 -12992971.96548 -10102201.92946  21363777.7814                   21363774.1484
 -20926634.05947 -16288501.51844  22941640.9694                   22941638.8834
 -21080659.35548 -16412072.35946  21132622.4454                   21132618.4884
 11  9 27  2 59  0.0000000  0  8G22G09G29G06G15G18G26G21
  21120964.59046  16477335.41044  23560745.8524                   23560741.6134
  25394244.37547  19803807.36744  23977626.0164                   23977624.5354
 -36330436.10948 -28287582.06546  21390847.4534                   21390846.0634
  29047120.92247                  22650134.33244  24285486.5394   24285485.0084
 -24050841.89848 -18718003.78446  20871641.7034                   20871639.2974
 -13110247.20348 -10193585.18146  21341461.0314                   21341457.5204
 -20922721.68446 -16285452.91844  22942385.1564                   22942383.2424
 -21230362.52748 -16528724.15846  21104134.9384                   21104130.8094
 11  9 27  2 59 30.0000000  0  8G22G09G29G06G15G18G26G21
  20963803.50047  16354872.28544  23530839.1724                   23530834.9224
  25210924.09447  19660960.47644  23942740.6024                   23942739.9924
 -36347425.73048 -28300820.76946  21387615.2344                   21387613.3014
  28873885.90647                  22515146.00744  24252521.6884   24252520.1454
 -24101353.85948 -18757363.75146  20862029.5704                   20862026.9304
 -13227337.16848 -10284824.11746  21319179.2504                   21319175.5514
 -20918444.37146 -16282119.93643  22943197.9144                   22943197.3324
 -21379874.65648 -16645227.09146  21075683.7974                   21075680.0434
 11  9 27  3  0  0.0000000  0  8G22G09G29G06G15G18G26G21
  20806804.00047  16232535.11144  23500963.6484                   23500959.0354
  25027669.10547  19518164.49344  23907869.1724                   23907868.4534
 -36364026.60248 -28313756.53846  21384456.4224                   21384454.5944
  28700988.03147                  22380420.50243  24219619.4694   24219618.8954
 -24151348.34448 -18796320.48746  20852515.9064                   20852513.0164
 -13344241.82848 -10375918.62146  21296933.4384                   21296929.8714
 -20913804.95346 -16278504.82143  22944081.0704                   22944079.5394
 -21529193.80148 -16761579.63846  21047269.2734                   21047265.4024
 11  9 27  3  0 30.0000000  0  8G22G09G29G06G15G18G26G21
  20649969.87547  16110326.79544  23471118.6174                   23471114.2704
  24844486.62547  19375424.98444  23873009.8984                   23873009.1254
 -36380237.90648 -28326388.74246  21381371.0784                   21381369.6214
  28528433.44947                  22245962.54844  24186783.4694   24186782.4574
 -24200823.42248 -18834872.47246  20843101.1724                   20843098.2704
 -13460957.96948 -10466866.23746  21274722.6024                   21274719.4694
 -20908802.59846 -16274606.83343  22945033.7504                   22945031.7344
 -21678313.86748 -16877777.07646  21018892.6484                   21018888.5044
 11  9 27  3  1  0.0000000  0  8G22G09G29G06G15G18G26G21
  20493299.44547  15988246.04244  23441305.6564                   23441300.4654
  24661378.50846  19232743.42244  23838165.3914                   23838165.5084
 -36396063.32848 -28338720.28446  21378359.6884                   21378357.9184
  28356223.08246                  22111772.70243  24154012.1414   24154011.5514
 -24249782.44148 -18873022.36246  20833784.5004                   20833781.7544
 -13577487.69948 -10557668.61246  21252547.6414                   21252544.5044
 -20903441.95346 -16270429.72043  22946054.6884                   22946051.8054
 -21827234.13348 -16993818.83546  20990553.8674                   20990549.8134
 11  9 27  3  1 30.0000000  0  8G22G09G29G06G15G18G26G21
  21912213.61346  17093893.49644  23711315.5704                   23711310.7464
  26053770.43046  20317724.28044  24103128.0634                   24103129.2034
 -34836088.64848 -27123155.61146  21675212.9774                   21675211.6954
  29759781.05946                  23205454.30543  24421100.2894   24421098.7974
 -22722809.60948 -17683173.39146  21124358.2664                   21124355.0824
 -12118411.64148  -9420726.19046  21530200.5704                   21530197.0474
 -19322310.52046 -15038379.16343  23246932.6024                   23246931.0434
 -20400531.59048 -15882102.53646  21262046.4924                   21262042.7814
 11  9 27  3  2  0.0000000  0  8G22G09G29G06G15G18G26G21
  21755864.36747  16972062.99744  23681563.9304                   23681558.9304
  25870816.44146  20175162.83544  24068313.0004                   24068313.0204
 -34851154.90648 -27134895.57546  21672346.4144                   21672344.2234
  29588260.46146                  23071801.99843  24388460.8364   24388458.9924
 -22770747.64148 -17720527.68946  21115235.6724                   21115232.7154
 -12234575.97748  -9511243.83946  21508095.3594                   21508091.6214
 -19316248.41447 -15033655.46843  23248086.9774                   23248085.0314
 -20549051.70348 -15997832.46446  21233783.4534                   21233780.0784
 11  9 27  3  2 30.0000000  0  8G22G09G29G06G15G18G26G21
  21599675.85947  16850357.75844  23651841.4144                   23651837.0554
  25687944.85546  20032665.57044  24033514.3204                   24033513.3164
 -34865844.65648 -27146342.17046  21669551.1644                   21669548.8754
  29417088.70746                  22938421.46143  24355888.1334   24355886.2704
 -22818177.35248 -17757485.88946  21106209.9454                   21106207.3324
 -12350558.05948  -9601619.46946  21486025.0164                   21486021.3134
 -19309839.81247 -15028661.75543  23249306.6024                   23249304.6604
 -20697367.90648 -16113403.49946  21205560.2034                   21205556.2624
 11  9 27  3  3  0.0000000  0  8G22G09G29G06G15G18G26G21
  21443649.31646  16728778.67444  23622151.0944                   23622147.0204
  25505160.17246  19890236.03044  23998730.4384                   23998730.5434
 -34880159.34048 -27157496.48646  21666826.8444                   21666825.0234
  29246269.08246                  22805315.31743  24323382.5394   24323379.7544
 -22865099.73448 -17794048.76946  21097281.0004                   21097277.8284
 -12466357.49648  -9691852.78646  21463989.0084                   21463985.4924
 -19303086.68747 -15023399.54343  23250591.6804                   23250589.3954
 -20845477.12548 -16228813.25446  21177376.1954                   21177371.5314
 11  9 27  3  3 30.0000000  0  8G22G09G29G06G15G18G26G21
  21287782.86347  16607324.40244  23592490.4534                   23592485.9534
  25322464.71147  19747876.05443  23963965.4774                   23963964.4924
 -34894102.81648 -27168361.54646  21664173.6484                   21664171.8244
  29075802.31646                  22672484.15543  24290943.8364   24290941.0664
 -22911518.06648 -17830218.87846  21088447.8054                   21088444.7344
 -12581976.44948  -9781945.45146  21441987.2894                   21441983.7894
 -19295993.82447 -15017872.64043  23251941.6484                   23251939.6764
 -20993378.79348 -16344061.27946  21149231.3754                   21149227.1844
 11  9 27  3  4  0.0000000  0  8G22G09G29G06G15G18G26G21
  21132076.55547  16485994.88044  23562860.3134                   23562856.1214
  25139862.14146  19605588.37943  23929217.2034                   23929216.4884
 -34907677.43448 -27178939.20946  21661590.0394                   21661588.7774
  28905691.07046                  22539929.96743  24258572.9534   24258570.9614
 -22957434.09848 -17865997.57946  21079710.2584                   21079707.0904
 -12697414.94948  -9871897.50346  21420019.9064                   21420016.6914
 -19288564.03547 -15012083.13944  23253355.3914                   23253353.0394
 -21141070.10548 -16459145.38746  21121126.6484                   21121122.3204
 11  9 27  3  4 30.0000000  0  8G22G09G29G06G15G18G26G21
  20976529.72346  16364789.66144  23533259.7344                   23533256.4964
  24957355.06347  19463375.20144  23894487.1414                   23894487.1094
 -34920886.23848 -27189231.81046  21659076.7894                   21659074.6334
  28735936.82447                  22407654.03043  24226269.5704   24226268.1454
 -23002850.66048 -17901387.10246  21071067.4614                   21071064.6954
 -12812674.50048  -9961710.11546  21398086.7274                   21398083.6684
 -19280801.14547 -15006034.14144  23254832.0164                   23254830.6684
 -21288549.78548 -16574064.60946  21093061.9454                   21093057.8914
 11  9 27  3  5  0.0000000  0  8G22G09G29G06G15G18G26G21
  20821142.76247  16243708.97144  23503690.9454                   23503687.4774
  24774947.82447  19321239.74544  23859776.1254                   23859774.6094
 -34933731.11747 -27199240.83846  21656632.4924                   21656630.8674
  28566542.48447                  22275658.47243  24194034.9694   24194033.2854
 -23047768.96148 -17936388.35746  21062519.9534                   21062517.0664
 -12927754.94148 -10051383.17846  21376187.7974                   21376184.1604
 -19272707.60947 -14999727.47944  23256371.4304                   23256370.2384
 -21435815.23048 -16688816.88446  21065038.1334                   21065034.0664
 11  9 27  3  5 30.0000000  0  8G22G09G29G06G15G18G26G21
  20665914.00447  16122751.53044  23474152.2894                   23474147.8164
  24592642.11747  19179183.47444  23825084.4924                   23825084.4844
 -34946215.92247 -27208969.28946  21654256.4694                   21654254.7234
  28397508.74246                  22143944.00743  24161868.1724   24161866.5204
 -23092192.16848 -17971003.83546  21054066.7274                   21054063.8984
 -13042658.53148 -10140918.41546  21354322.2194                   21354319.1374
 -19264288.23047 -14993166.90644  23257974.7344                   23257972.8524
 -21582865.53148 -16803401.50546  21037055.5394                   21037051.5784
 11  9 27  3  6  0.0000000  0  8G22G09G29G06G15G18G26G21
  20510846.00847  16001919.42844  23444644.0944                   23444640.1994
  24410444.78547  19037211.57144  23790414.3834                   23790412.0314
 -34958340.33247 -27218416.90046  21651949.2974                   21651947.7894
  28228840.73846                  22012514.40143  24129772.3834   24129769.9844
 -23136119.53948 -18005232.94046  21045707.4614                   21045704.5744
 -13157382.80948 -10230313.92846  21332490.9384                   21332487.2304
 -19255543.27047 -14986352.67744  23259639.1254                   23259637.4884
 -21729695.83248 -16917814.69246  21009114.5554                   21009110.9574
 11  9 27  3  6 30.0000000  0  8G22G09G29G06G15G18G26G21
  20355935.89147  15881210.25744  23415165.7584                   23415161.4384
  24228356.12147  18895324.40044  23755764.2664                   23755763.6134
 -34970109.81247 -27227587.96446  21649709.9694                   21649708.2384
  28060537.68046                  21881369.25243  24097744.6804   24097742.5784
 -23179556.21148 -18039079.69146  21037441.6334                   21037438.7584
 -13271931.62148 -10319572.70746  21310693.0554                   21310689.7304
 -19246478.82847 -14979289.47944  23261363.8134                   23261361.6454
 -21876306.85948 -17032057.03646  20981215.2814                   20981211.6524
 11  9 27  3  7  0.0000000  0  8G22G09G29G06G15G18G26G21
  20201182.31647  15760623.12844  23385717.2814                   23385713.0824
  24046378.89147  18753524.01644  23721133.6644                   23721132.9494
 -34981527.83647 -27236485.15446  21647536.9844                   21647535.3674
  27892600.97746                  21750509.50343  24065787.1644   24065784.6804
 -23222504.94948 -18072546.21546  21029269.1414                   21029266.0084
 -13386306.43448 -10408695.94146  21288928.5004                   21288924.2704
 -19237098.74646 -14971980.33244  23263148.6174                   23263146.8594
 -22022697.19548 -17146127.41346  20953358.3674                   20953354.1214
 11  9 27  3  7 30.0000000  0  8G22G09G29G06G15G18G26G21
  20046586.27047  15640158.71244  23356297.9454                   23356293.8404
  23864517.27047  18611813.73444  23686527.7814                   23686525.8524
 -34992595.69947 -27245109.49546  21645430.4304                   21645429.0784
  27725033.83246                  21619937.76243  24033900.0784   24033898.0164
 -23264966.64148 -18105633.25146  21021188.5554                   21021185.6914
 -13500506.36748 -10497682.86746  21267196.5004                   21267192.9224
 -19227405.22346 -14964426.94343  23264993.2814                   23264990.6024
 -22168863.68448 -17260023.37946  20925543.6564                   20925539.3714
 11  9 27  3  8  0.0000000  0  8G22G09G29G06G15G18G26G21
  19892147.55147  15519816.92144  23326909.3284                   23326905.1884
  23682774.68847  18470196.22244  23651942.8524                   23651941.9454
 -35003315.93047 -27253462.96146  21643391.0704                   21643389.5744
  27557838.56347                  21489655.73843  24002084.1254   24002081.0904
 -23306943.69147 -18138342.62646  21013200.3134                   21013197.8164
 -13614532.12948 -10586534.08546  21245498.4064                   21245494.5824
 -19217401.25847 -14956631.62643  23266896.4774                   23266894.6524
 -22314803.93048 -17373743.01946  20897771.9304                   20897768.2424
 11  9 27  3  8 30.0000000  0  8G22G09G29G06G15G18G26G21
  19737865.69147  15399597.33644  23297550.7194                   23297546.0784
  23501154.91047  18328674.35744  23617382.1174                   23617380.3204
 -35013691.33647 -27261547.71146  21641416.5864                   21641414.8204
  27391017.02047                  21359664.98044  23970339.0164   23970336.3794
 -23348437.93047 -18170675.79046  21005304.6564                   21005302.0274
 -13728384.65648 -10675250.30646  21223833.0084                   21223828.8324
 -19207090.43446 -14948597.22643  23268858.4144                   23268856.8524
 -22460516.30948 -17487285.11746  20870043.8364                   20870040.3284
 11  9 27  3  9  0.0000000  0  8G22G09G29G06G15G18G26G21
  19583740.34847  15279499.73344  23268221.4304                   23268217.2464
  23319660.91847  18187250.61144  23582844.2734                   23582843.4774
 -35023724.85947 -27269366.08446  21639507.5394                   21639505.4454
  27224571.16447                  21229966.95743  23938665.5784   23938662.1414
 -23389452.41848 -18202635.13146  20997499.6564                   20997496.5824
 -13842064.51248 -10763832.00246  21202200.5314                   21202196.4964
 -19196476.26646 -14940326.44943  23270877.8984                   23270876.7154
 -22605998.60948 -17600647.93146  20842359.7664                   20842355.3714
 11  9 27  3  9 30.0000000  0  8G22G09G29G06G15G18G26G21
  21005195.71547  16387127.34244  23538715.2034                   23538710.6604
  24713721.68046  19273531.71544  23848125.1174                   23848123.2974
 -33457999.23847 -26049320.15246  21937455.0784                   21937453.2734
  28633927.93047                  22328167.02644  24206857.2894   24206855.6844
 -21854567.90647 -17006621.22146  21289578.3524                   21289575.3204
 -12380149.77048  -9624677.63746  21480393.4614                   21480390.4304
 -17610142.77047 -13704222.43343  23572748.0554                   23572746.0124
 -21175824.69548 -16486226.68246  21114512.7814                   21114508.6484
 11  9 27  3 10  0.0000000  0  8G22G09G29G06G15G18G26G21
  20851382.49247  16267272.89844  23509445.3984                   23509441.1564
  24532489.75847  19132312.18544  23813638.6334                   23813636.7704
 -33467356.78547 -26056611.77546  21935674.2274                   21935673.0314
  28468239.56646                  22199059.24043  24175327.0944   24175326.8714
 -21894627.82048 -17037836.73846  21281955.3594                   21281952.3984
 -12493487.34848  -9712992.61346  21458825.7114                   21458822.5474
 -17598931.16447 -13695486.09643  23574881.0394                   23574879.9844
 -21320840.42248 -16599225.94146  21086917.1884                   21086912.9694
 11  9 27  3 10 30.0000000  0  8G22G09G29G06G15G18G26G21
  20697726.37547  16147540.88744  23480206.0004                   23480202.0204
  24351395.76647  18991200.06344  23779176.3364                   23779176.3444
 -33476378.16047 -26063641.45446  21933957.6884                   21933956.1484
  28302934.97746                  22070250.48544  24143871.9614   24143870.2854
 -21934212.30548 -17068681.77846  21274422.3984                   21274419.8204
 -12606652.85548  -9801173.50046  21437291.1414                   21437287.9884
 -17587424.04747 -13686519.46744  23577071.5784                   23577069.3834
 -21465618.37548 -16712039.90346  21059366.7894                   21059362.6374
 11  9 27  3 11  0.0000000  0  8G22G09G29G06G15G18G26G21
  20544224.42247  16027929.03644  23450995.2274                   23450990.5664
  24170440.35946  18850195.91144  23744741.5554                   23744740.4614
 -33485068.97347 -26070413.54546  21932304.0314                   21932302.7114
  28138013.15646                  21941740.04744  24112488.0234   24112486.1024
 -21973326.30547 -17099160.22446  21266979.3594                   21266976.6484
 -12719649.35248  -9889222.70046  21415788.7504                   21415785.2154
 -17575627.10247 -13677327.00743  23579315.6804                   23579314.3914
 -21610158.96548 -16824668.92946  21031861.5554                   21031857.3054
 11  9 27  3 11 30.0000000  0  8G22G09G29G06G15G18G26G21
  20390878.14847  15908438.46044  23421814.6254                   23421809.6644
  23989628.92247  18709303.97044  23710335.7344                   23710333.8874
 -33493430.23047 -26076928.85746  21930712.9614                   21930711.2114
  27973478.03546                  21813530.91144  24081177.7584   24081176.3164
 -22011970.13748 -17129272.30446  21259625.5474                   21259622.7424
 -12832476.20747  -9977139.70546  21394318.1884                   21394315.1054
 -17563542.19546 -13667910.18843  23581614.8674                   23581613.9654
 -21754458.07048 -16937109.78446  21004402.2734                   21004398.3404
 11  9 27  3 12  0.0000000  0  8G22G09G29G06G15G18G26G21
  20237686.06347  15789068.02944  23392662.7734                   23392658.1294
  23808963.37947  18568525.74544  23675955.8364                   23675952.6214
 -33501466.10247 -26083190.60546  21929183.9144                   21929181.7344
  27809330.49246                  21685623.75744  24049941.0784   24049940.1334
 -22050147.68048 -17159021.03646  21252360.6254                   21252357.9844
 -12945134.87548 -10064925.68446  21372880.5314                   21372876.5434
 -17551173.50046 -13658272.24743  23583969.4454                   23583967.1884
 -21898514.93048 -17049361.86946  20976989.3754                   20976985.2034
 11  9 27  3 12 30.0000000  0  8G22G09G29G06G15G18G26G21
  20084647.69947  15669817.36744  23363540.5554                   23363535.6994
  23628447.18047  18427863.84944  23641603.3594                   23641603.6484
 -33509179.19947 -26089200.85046  21927715.7194                   21927714.5164
  27645572.15646                  21558019.94944  24018778.9454   24018778.7274
 -22087860.87148 -17188407.94646  21245184.3524                   21245181.4924
 -13057626.48448 -10152581.44546  21351473.8674                   21351470.3054
 -17538524.46946 -13648415.85343  23586375.7894                   23586374.4104
 -22042327.63348 -17161423.69946  20949622.5234                   20949618.4734
 11  9 27  3 13  0.0000000  0  8G22G09G29G06G15G18G26G21
  19931765.30947  15550688.30644  23334448.2504                   23334442.9844
  23448086.50847  18287323.14544  23607281.9454                   23607280.4654
 -33516569.52047 -26094959.56045  21926309.5554                   21926308.1054
  27482207.86347                  21430723.14644  23987691.4774   23987691.8324
 -22125109.61748 -17217432.93546  21238095.7274                   21238093.4384
 -13169949.47747 -10240105.84346  21330099.3754                   21330096.1174
 -17525595.79346 -13638341.49043  23588836.1724                   23588834.1214
 -22185891.48447 -17273291.62446  20922303.4694                   20922299.3244
 11  9 27  3 13 30.0000000  0  8G22G09G29G06G15G18G26G21
  19779035.75847  15431678.31244  23305384.4614                   23305380.2544
  23267882.26647  18146904.34844  23572990.7344                   23572989.9264
 -33523642.50047 -26100471.00946  21924963.8284                   21924962.5044
  27319236.75447                  21303732.68144  23956679.5394   23956679.2274
 -22161898.62548 -17246099.69846  21231095.6414                   21231092.5204
 -13282106.55948 -10327500.95946  21308756.6094                   21308753.0864
 -17512393.44546 -13628053.97043  23591348.6804                   23591346.9534
 -22329206.70348 -17384965.79446  20895031.3364                   20895027.4184
 11  9 27  3 14  0.0000000  0  8G22G09G29G06G15G18G26G21
  19626459.35247  15312787.62944  23276350.6254                   23276344.6024
  23087838.44547  18006610.55044  23538729.3444                   23538728.0704
 -33530400.41847 -26105736.94146  21923677.4694                   21923676.2114
  27156661.84046                  21177050.97744  23925742.3674   23925741.5554
 -22198229.77748 -17274409.68646  21224181.8444                   21224179.1724
 -13394097.87147 -10414766.89646  21287445.8524                   21287442.2544
 -17498919.61346 -13617554.82043  23593913.2814                   23593910.3834
 -22472270.95748 -17496444.41646  20867807.1414                   20867802.9344
 11  9 27  3 14 30.0000000  0  8G22G09G29G06G15G18G26G21
  19474034.46147  15194015.04744  23247344.8594                   23247339.7304
  22907956.96547  17866443.22044  23504499.0394                   23504498.1724
 -33536847.10947 -26110760.35646  21922450.8444                   21922449.5704
  26994483.17247                  21050678.06544  23894880.7274   23894879.8984
 -22234106.69948 -17302365.72846  21217354.4614                   21217351.8444
 -13505925.70747 -10501905.46146  21266165.0944                   21266162.0164
 -17485179.19146 -13606847.99943  23596527.3134                   23596526.0044
 -22615083.05948 -17607726.56146  20840630.7114                   20840626.6564
 11  9 27  3 15  0.0000000  0  9G22G09G29G06G15G18G14G26G21
  19321760.73847  15075360.26044  23218368.4384                   23218363.0944
  22728241.34447  17726405.15744  23470299.9384                   23470298.6094
 -33542985.33647 -26115543.43346  21921282.6094                   21921281.3324
  26832703.11347                  20924615.66744  23864095.6484   23864093.9414
 -22269531.43048 -17329969.42046  21210613.4064                   21210610.9534
 -13617590.58648 -10588917.03546  21244916.3134                   21244912.6764
  37510358.60915                  24522204.297
 -17471175.14146 -13595935.81543  23599191.4694                   23599190.1214
 -22757640.97748 -17718810.63946  20813502.9384                   20813499.0474
 11  9 27  3 15 30.0000000  0  9G22G09G29G06G15G18G14G26G21
  19169629.39547  14956816.39244  23189418.6254                   23189413.4534
  22548686.50847  17586492.37544  23436131.8524                   23436131.1214
 -33548826.37947 -26120094.92146  21920171.5474                   21920170.3954
  26671314.92246                  20798858.68244  23833383.9614   23833382.1844
 -22304515.10547 -17357229.42746  21203956.2274                   21203953.7664
 -13729101.91047 -10675808.96446  21223695.9924                   21223693.0984
  37307133.87545  29093643.73553  24483531.0784                   24483532.1844
 -17456919.32846 -13584827.33643  23601905.1414                   23601902.8524
 -22899951.39848 -17829701.86946  20786422.2344                   20786418.2584
 11  9 27  3 16  0.0000000  0  9G22G09G29G06G15G18G14G26G21
  19017637.08247  14838380.84544  23160495.2664                   23160490.6214
  22369292.99647  17446705.25144  23401994.0634                   23401992.8874
 -33554376.12147 -26124419.42646  21919115.3054                   21919114.1484
  26510317.32446                  20673406.06644  23802747.2344   23802745.4024
 -22339062.84847 -17384149.75646  21197382.0004                   21197379.6524
 -13840462.91848 -10762583.77246  21202504.9454                   21202501.4574
  37104009.50046  28935365.21043  24444878.6564                   24444878.2304
 -17442418.08646 -13573527.65043  23604664.1884                   23604662.8134
 -23042015.02748 -17940400.78646  20759388.2274                   20759384.3404
 11  9 27  3 16 30.0000000  0  9G22G09G29G06G15G18G14G26G21
  18865785.42647  14720054.94045  23131598.6024                   23131594.8594
  22190066.31347  17307048.16744  23367888.0004                   23367887.8634
 -33559635.29747 -26128517.52545  21918114.6024                   21918113.1724
  26349714.48447                  20548261.02744  23772185.6644   23772183.2074
 -22373175.26247 -17410730.86046  21190891.3284                   21190888.5004
 -13951672.43048 -10849240.51646  21181342.2734                   21181338.8404
  36900989.92246  28777168.33743  24406245.4924                   24406244.4924
 -17427672.60946 -13562037.65643  23607470.2424                   23607468.9654
 -23183827.67648 -18050904.13246  20732402.6564                   20732398.1414
 11  9 27  3 17  0.0000000  0  9G22G09G29G06G15G18G14G26G21
  18714074.96547  14601839.03744  23102729.5634                   23102724.8984
  22011010.70347  17167524.37844  23333815.9534                   23333814.2034
 -33564605.37947 -26132390.34845  21917168.9844                   21917167.3954
  26189509.05546                  20423425.68744  23741699.5164   23741696.9884
 -22406853.51248 -17436973.67346  21184482.1024                   21184479.5744
 -14062730.34848 -10935779.13846  21160208.9614                   21160205.4694
  36698078.33646  28619055.55343  24367632.6414                   24367630.4494
 -17412684.97747 -13550358.96943  23610322.2664                   23610320.6134
 -23325386.23448 -18161209.49646  20705464.5784                   20705460.3204
 11  9 27  3 17 30.0000000  0  9G22G09G29G06G15G18G14G26G21
  20137934.14147  15711339.77345  23373680.0004                   23373676.2704
  23407559.28147  18255744.11944  23599569.7894                   23599567.9144
 -31993865.56647 -24908437.29045  22216070.8284                   22216069.6414
  27605132.00046                  21526508.55543  24011082.9774   24011081.6134
 -20864675.43047 -16235276.47046  21477948.7584                   21477946.7114
 -12598209.73048  -9794594.22046  21438897.7584                   21438894.6094
  38070707.33246  29688636.78043  24628835.0314                   24628833.8984
 -15822035.32447 -12310891.70943  23913013.8524                   23913011.3444
 -21891260.13748 -17043708.63446  20978369.7344                   20978365.2704
 11  9 27  3 18  0.0000000  0  9G22G09G29G06G15G18G14G26G21
  19986512.54747  15593349.02845  23344865.5164                   23344862.4264
  23228863.89847  18116501.04144  23565564.6724                   23565563.5124
 -31998258.60547 -24911860.48045  22215234.6724                   22215233.1604
  27445734.81646                  21402302.97544  23980750.3674   23980749.6954
 -20897485.34448 -16260842.65546  21471705.5944                   21471703.0164
 -12708958.34448  -9880891.81146  21417822.4774                   21417819.5084
  37868025.90646  29530703.32143  24590265.7664                   24590265.6954
 -15806565.52047 -12298837.24243  23915956.9064                   23915954.6484
 -22032296.23448 -17153606.87846  20951531.5944                   20951527.3284
 11  9 27  3 18 30.0000000  0  9G22G09G29G06G15G18G14G26G21
  19835235.21147  15475470.62545  23316078.5474                   23316074.0944
  23050354.34047  17977402.73744  23531595.5704                   23531595.2034
 -32002367.02047 -24915061.87745  22214453.1414                   22214451.8444
  27286744.94546                  21278414.87844  23950495.5314   23950494.6884
 -20929863.92647 -16286072.72346  21465543.7424                   21465540.9844
 -12819553.07848  -9967069.49846  21396777.4614                   21396773.9734
  37665463.46146  29372862.64743  24551718.9534                   24551718.5634
 -15790858.93447 -12286598.32843  23918945.8834                   23918943.7074
 -22173067.46148 -17263298.72946  20924743.5164                   20924739.4844
 11  9 27  3 19  0.0000000  0  9G22G09G29G06G15G18G14G26G21
  19684101.80147  15357704.39645  23287318.9144                   23287315.4064
  22872034.34847  17838452.17944  23497662.1564                   23497660.8014
 -32006193.37547 -24918043.48245  22213725.0234                   22213723.3444
  27128164.28147                  21154845.54144  23920319.2344   23920317.9614
 -20961813.69948 -16310968.65946  21459464.3674                   21459461.5434
 -12929994.50048 -10053127.74546  21375761.6024                   21375757.8014
  37463022.60946  29215116.69343  24513195.9454                   24513195.2034
 -15774918.79746 -12274177.43943  23921978.9064                   23921977.4574
 -22313572.17248 -17372782.91146  20898005.8444                   20898002.1764
 11  9 27  3 19 30.0000000  0  9G22G09G29G06G15G18G14G26G21
  19533110.60947  15240048.95345  23258585.9844                   23258581.9654
  22693905.88747  17699650.85244  23463765.9144                   23463764.2344
 -32009741.71547 -24920808.46545  22213050.0864                   22213048.1994
  26969993.37146                  21031595.50743  23890219.9924   23890217.9344
 -20993338.18748 -16335533.20046  21453465.2504                   21453462.0984
 -13040284.48848 -10139067.97946  21354773.8834                   21354770.2624
  37260704.17246  29057466.08743  24474696.7734                   24474694.9414
 -15758749.53546 -12261577.89443  23925056.0554                   23925053.6994
 -22453809.21148 -17482058.51846  20871320.0234                   20871316.3404
 11  9 27  3 20  0.0000000  0  9G22G09G29G06G15G18G14G26G21
  19382263.50447  15122505.78944  23229881.4454                   23229876.7774
  22515974.78947  17561003.29844  23429906.1804                   23429904.8524
 -32013012.79747 -24923357.40845  22212427.5394                   22212425.8714
  26812236.33647                  20908668.02343  23860200.4454   23860196.8594
 -21024437.96148 -16359766.79346  21447547.2974                   21447544.0274
 -13150421.49648 -10224889.01446  21333815.4144                   21333811.4454
  37058512.68446  28899914.46743  24436219.9774                   24436219.4384
 -15742352.21946 -12248800.76242  23928175.3674                   23928173.2814
 -22593774.03948 -17591122.00546  20844685.5784                   20844681.9494
 11  9 27  3 20 30.0000000  0  9G22G09G29G06G15G18G14G26G21
  19231559.16447  15005073.91745  23201202.8054                   23201198.4964
  22338243.11347  17422511.14844  23396084.8914                   23396083.2774
 -32016010.44547 -24925693.27445  22211856.7194                   22211855.2664
  26654893.84446                  20786063.44643  23830258.4224   23830254.7734
 -21055116.36748 -16383672.05846  21441709.0234                   21441706.4224
 -13260406.96148 -10310591.96446  21312885.7504                   21312882.0474
  36856448.65246  28742462.20043  24397769.2814                   24397767.8364
 -15725730.76646 -12235849.02742  23931339.1724                   23931336.0434
 -22733465.77748 -17699972.70146  20818103.1254                   20818099.4884
 11  9 27  3 21  0.0000000  0  9G22G09G29G06G15G18G14G26G21
  19080997.87147  14887753.48045  23172551.8364                   23172547.4654
  22160715.22347  17284177.75444  23362302.6094                   23362300.5314
 -32018736.73447 -24927817.69645  22211338.2034                   22211336.4104
  26497968.18446                  20663783.75843  23800396.7194   23800393.4104
 -21085374.97748 -16407250.19246  21435951.1484                   21435948.2504
 -13370240.86348 -10396176.79546  21291984.8054                   21291981.0944
  36654515.62546  28585111.98442  24359340.7194                   24359340.7624
 -15708887.96546 -12222724.78643  23934544.0084                   23934542.4654
 -22872881.64548 -17808608.43146  20791573.2344                   20791569.5004
 11  9 27  3 21 30.0000000  0 10G22G09G29G06G15G18G14G03G26G21
  18930579.78147  14770544.63645  23143928.2814                   23143923.9104
  21983395.26247  17146006.44444  23328559.2664                   23328557.8014
 -32021193.74647 -24929732.25845  22210870.3364                   22210869.4024
  26341461.85246                  20541830.83343  23770614.3364   23770610.2854
 -21115215.84048 -16430502.83446  21430272.4534                   21430269.9344
 -13479923.52348 -10481643.79746  21271112.9614                   21271109.5824
  36452716.93846  28427866.37843  24320940.9304                   24320940.9614
  39142252.14157  30519282.76953  24135988.9064                   24135985.0864
 -15691826.31246 -12209429.93143  23937792.1564                   23937789.7274
 -23012018.64848 -17917026.88046  20765096.4614                   20765092.5354
